     2              OBSERVATION DATA    GPS                 RINEX VERSION / TYPE
teqc 1999Jul19 19991123 03:03:19UTC                         PGM / RUN BY / DATE
                                                            COMMENT
Original Marker Name: 0414                                  COMMENT
Campaign Name: HPGN 1991                                    COMMENT
4-Character Station Name: 0414                              COMMENT
6-Character Antenna Code: TRMSST                            COMMENT
Vertical Measurement Point: BPA                             COMMENT
Vertical Offset to Rinex Ref. Point: 0.0000                 COMMENT
Radial Measurement Point: RRP                               COMMENT
Radial Offset to Rinex Ref. Point: 0.0000                   COMMENT
Antenna Height from Field Measurement: 2.2200 m             COMMENT
                                                            COMMENT
Original XYZ: -2701978.7975 -4190712.3360 3963869.8728      COMMENT
New XYZ position is based on association with SCEC monument COMMENT
E1F8S7R9+0011. Position of that monument is believed to be  COMMENT
valid to within 1 m horizontally; vertical accuracy         COMMENT
should be no worse than 3-times this value.                 COMMENT
                                                            COMMENT
Revised Rinex header created by UCSD GPS archive for        COMMENT
GSAC on 10-Mar-2000 (2000:070) 05:07:22 GMT                 COMMENT
For assistance contact dagnew@ucsd.edu or hjohnson@ucsd.edu COMMENT
                                                            COMMENT
HPGN CA 04 14                                               MARKER NAME
0414                                                        MARKER NUMBER
-Unknown- CALIF DEPT TRANSPORTATION                         OBSERVER / AGENCY
335 TRIMBLE 4000 SST NP 4.53 / SP 4.20                      REC # / TYPE / VERS
43 TR 4000SST L1/L2 GEO                                     ANT # / TYPE
 -2701986.9893 -4190714.2300  3963873.8025                  APPROX POSITION XYZ
        2.2200        0.0000        0.0000                  ANTENNA: DELTA H/E/N
     1     1     0                                          WAVELENGTH FACT L1/2
     5    C1    L1    L2    S1    S2                        # / TYPES OF OBSERV
     0                                                      INTERVAL
  1991     7     4     2     7   45.000000                  TIME OF FIRST OBS
  1991     7     4     8     4   60.000000                  TIME OF LAST OBS
                                                            END OF HEADER
 91  7  4  2  7 45.0000000  0  5G 3G16G17G20G23
  20752868.070          -0.35117        -0.05633        26.250           2.750
  22484494.438          -0.34317        -0.17032        21.500           1.750
  21020264.867          -0.25417        -0.08432        22.000           2.250
  22852045.492          -0.61716                        15.250
  24130273.703          -0.86015        -0.26531         9.000           0.375
 91  7  4  2  8  0.0000000  0  5G 3G16G17G20G23
  20748170.469      -24686.834 7    -19236.25023        26.500           2.719
  22489079.156       24079.276 7     18763.15522        21.750           1.563
  21014309.805      -31313.772 7    -24400.21422        22.000           2.313
  22859630.945       39874.256 6        -0.41031        14.750           0.594
  24117805.422      -65526.895 5    -51059.41821         9.000           0.281
 91  7  4  2  8 15.0000000  0  5G 3G16G17G20G23
  20743481.789      -49330.567 7    -38439.13823        26.750           2.781
  22493673.594       48232.304 7     37583.68322        21.250           1.500
  21008355.992      -62575.242 7    -48759.78422        22.000           2.469
  22867225.203       79777.827 6     31093.23521        15.250           0.656
  24105332.281     -131049.412 5   -102115.82121         8.750           0.406
 91  7  4  2  8 30.0000000  0  5G 3G16G17G20G23
  20738802.086      -73926.663 7    -57604.90223        26.750           2.844
  22498287.891       72463.166 7     56464.86022        21.250           1.563
  21002420.227      -93780.114 7    -73075.24322        22.250           2.438
  22874826.531      119714.501 6     62212.68921        15.500           0.500
  24092865.406     -196563.257 5   -153165.47721         8.250           0.469
 91  7  4  2  8 45.0000000  0  5G 3G16G17G20G23
  20734129.281      -98471.402 7    -76730.66523        27.000           2.719
  22502911.320       96775.352 7     75409.40221        20.000           1.469
  20996496.570     -124924.923 7    -97343.91222        22.250           2.438
  22882433.383      159687.458 6     93360.40921        15.500           0.656
  24080406.359     -262064.875 5   -204205.61121         8.500           0.438
 91  7  4  2  9  0.0000000  0  5G 3G16G17G20G23
  20729469.563     -122962.971 7    -95814.98623        27.000           2.813
  22507553.625      121170.110 7     94418.29121        20.250           1.469
  20990577.641     -156007.847 7   -121564.35623        22.000           2.500
  22890045.219      199698.181 6    124537.55721        14.750           0.688
  24067934.219     -327552.237 5   -255234.62821         8.000           0.438
 91  7  4  2  9 15.0000000  0  5G 3G16G17G20G23
  20724819.977     -147397.786 7   -114855.09523        27.000           2.813
  22512213.055      145650.221 7    113493.67921        20.500           1.438
  20984675.438     -187025.526 7   -145733.95522        22.500           2.438
  22897668.266      239749.344 6    155746.21421        14.500           0.625
  24055478.258     -393021.775 5   -306249.74621         7.750           0.469
 91  7  4  2  9 30.0000000  0  5G 3G16G17G20G23
  20720179.992     -171775.744 7   -133850.89223        27.500           2.844
  22516887.234      170215.495 7    132635.43621        20.000           1.250
  20978786.516     -217977.937 7   -169852.69722        22.000           2.375
  22905295.828      279840.655 6    186986.14621        14.250           0.688
  24043023.000     -458473.277 5   -357250.83821         8.000           0.500
 91  7  4  2  9 45.0000000  0  5G 3G16G17G20G23
  20715551.945     -196091.203 7   -152797.98923        27.500           2.875
  22521579.594      194870.863 6    151847.40621        19.750           1.313
  20972912.148     -248859.784 7   -193916.45223        22.500           2.531
  22912934.867      319977.201 6    218261.31821        14.750           0.844
  24030573.102     -523901.001 5   -408233.39121         8.250           0.438
 91  7  4  2 10  0.0000000  0  5G 3G16G17G20G23
  20710940.227     -220342.854 7   -171695.36823        27.500           2.875
  22526288.953      219617.045 7    171130.12221        20.000           1.344
  20967045.500     -279670.270 7   -217924.60022        22.000           2.438
  22920581.188      360159.451 6    249572.10621        14.500           0.688
  24018125.875     -589303.869 5   -459196.58521         8.500           0.438
 91  7  4  2 10 15.0000000  0  5G 3G16G17G20G23
  20706337.133     -244529.383 7   -190542.00423        27.000           2.906
  22531014.859      244455.310 7    190484.59421        20.000           1.375
  20961195.711     -310408.068 7   -241876.12123        22.000           2.625
  22928236.805      400388.655 6    280919.49621        15.000           0.719
  24005689.328     -654679.975 5   -510138.92121         9.000           0.438
 91  7  4  2 10 30.0000000  0  5G 3G16G17G20G23
  20701745.727     -268651.683 7   -209338.58623        26.750           2.875
  22535757.172      269383.778 7    209909.35021        20.250           1.406
  20955363.648     -341074.513 7   -265772.04323        22.250           2.563
  22935903.109      440662.761 6    312301.86021        15.250           0.688
  23993253.563     -720030.570 5   -561061.37321         9.000           0.469
 91  7  4  2 10 45.0000000  0  5G 3G16G17G20G23
  20697166.016     -292710.014 7   -228085.32823        26.500           3.000
  22540520.820      294402.096 7    229404.12721        21.250           1.250
  20949540.891     -371669.758 7   -289612.47523        21.500           2.531
  22943573.711      480981.409 6    343718.93921        15.250           0.750
  23980821.945     -785355.571 5   -611963.88321         9.750           0.406
 91  7  4  2 11  0.0000000  0  5G 3G16G17G20G23
  20692600.578     -316705.800 7   -246783.33823        26.000           2.938
  22545297.938      319508.208 7    248967.31321        21.500           1.188
  20943729.906     -402195.797 7   -313398.97922        22.000           2.406
  22951252.477      521342.470 6    375169.06421        15.500           0.656
  23968395.977     -850656.414 5   -662847.57521         9.500           0.500
 91  7  4  2 11 15.0000000  0  5G 3G16G17G20G23
  20688048.359     -340636.483 7   -265430.61823        25.500           2.938
  22550093.453      344703.995 7    268600.38121        20.500           1.188
  20937932.813     -432650.148 7   -337129.61822        21.250           2.313
  22958944.320      561747.781 6    406653.67421        15.500           0.688
  23955975.273     -915930.452 5   -713710.36121         9.250           0.531
 91  7  4  2 11 30.0000000  0  5G 3G16G17G20G23
  20683505.156     -364502.871 7   -284027.79423        26.500           2.938
  22554899.531      369988.003 7    288302.16821        20.750           1.313
  20932154.039     -463033.871 7   -360805.23722        21.750           2.375
  22966642.359      602195.922 6    438171.66421        16.500           0.656
  23943558.352     -981178.542 5   -764552.92821         9.750           0.406
 91  7  4  2 11 45.0000000  0  5G 3G16G17G20G23
  20678975.000     -388311.872 7   -302580.25223        26.250           2.844
  22559730.477      395353.011 7    308067.08821        21.500           1.313
  20926384.383     -493353.945 7   -384431.24822        21.750           2.375
  22974347.227      642679.630 6    469717.35821        16.500           0.688
  23931143.602    -1046407.457 5   -815380.56121        10.000           0.469
 91  7  4  2 12  0.0000000  0  5G 3G16G17G20G23
  20674458.914     -412050.422 7   -321077.81423        26.250           2.906
  22564575.453      420811.505 7    327904.84822        21.750           1.500
  20920628.750     -523597.565 7   -407997.69722        22.250           2.406
  22982058.992      683211.275 6    501300.40621        16.250           0.688
  23918741.133    -1111603.982 5   -866182.94921        10.250           0.375
 91  7  4  2 12 15.0000000  0  5G 3G16G17G20G23
  20669954.234     -435721.641 7   -339522.91623        25.750           2.875
  22569436.648      446359.792 7    347812.58521        22.000           1.313
  20914887.477     -553768.303 7   -431507.34122        22.000           2.438
  22989781.664      723787.118 6    532917.90821        16.250           0.625
  23906336.586    -1176771.346 5   -916962.63521        10.000           0.344
 91  7  4  2 12 30.0000000  0  5G 3G16G17G20G23
  20665460.859     -459329.492 7   -357918.64623        26.250           2.906
  22574312.750      471993.556 7    367786.92421        22.500           1.375
  20909157.664     -583870.397 7   -454963.50922        21.000           2.438
  22997508.992      764402.681 6    564566.34321        16.000           0.688
  23893941.461    -1241913.278 5   -967722.48921        10.250           0.406
 91  7  4  2 12 45.0000000  0  5G 3G16G17G20G23
  20660981.344     -482864.088 7   -376257.27623        26.250           2.906
  22579209.039      497722.136 7    387835.15821        22.750           1.406
  20903446.094     -613893.875 7   -478358.41022        21.000           2.406
  23005246.383      805067.314 6    596253.02221        15.500           0.688
  23881553.383    -1307019.726 5  -1018454.70121        10.750           0.438
 91  7  4  2 13  0.0000000  0  5G 3G16G17G20G23
  20656516.336     -506331.249 7   -394543.36923        26.000           3.000
  22584124.813      523539.100 7    407952.26022        23.000           1.563
  20897748.063     -643844.904 7   -501696.85022        21.750           2.406
  23012991.742      845774.480 6    627972.84321        15.000           0.875
  23869170.109    -1372096.794 5  -1069164.01421        10.500           0.375
 91  7  4  2 13 15.0000000  0  5G 3G16G17G20G23
  20652063.625     -529732.649 7   -412778.22023        25.750           3.000
  22589051.836      549442.696 7    428136.85422        22.500           1.500
  20892060.719     -673725.479 7   -524980.39222        22.250           2.375
  23020744.680      886522.003 6    659724.10121        14.750           0.750
  23856789.453    -1437145.729 5  -1119851.39821        10.750           0.313
 91  7  4  2 13 30.0000000  0  5G 3G16G17G20G23
  20647624.445     -553062.166 7   -430957.06423        26.000           3.000
  22593997.984      575438.082 7    448392.97921        21.750           1.375
  20886389.281     -703529.621 7   -548204.37822        21.750           2.344
  23028508.094      927315.541 6    691511.21721        15.250           0.813
  23844420.125    -1502160.478 5  -1170512.14321        11.250           0.313
 91  7  4  2 13 45.0000000  0  5G 3G16G17G20G23
  20643200.195     -576315.814 7   -449076.78623        26.250           3.000
  22598966.258      601529.027 7    468723.56021        22.250           1.406
  20880732.281     -733253.597 7   -571365.90922        21.000           2.406
  23036281.758      968158.633 6    723336.96121        16.000           0.688
  23832051.898    -1567136.973 5  -1221143.08021        11.250           0.531
 91  7  4  2 14  0.0000000  0  5G 3G16G17G20G23
  20638786.938     -599496.561 7   -467139.70023        26.250           2.906
  22603942.688      627711.830 7    489125.73321        21.500           1.406
  20875090.805     -762900.464 7   -594467.36222        20.750           2.375
  23044065.281     1009047.401 6    755198.28921        16.500           0.750
  23819695.141    -1632078.143 5  -1271746.49521        11.250           0.375
 91  7  4  2 14 15.0000000  0  5G 3G16G17G20G23
  20634389.859     -622609.264 7   -485149.59723        26.500           3.063
  22608943.070      653981.158 7    509595.31921        21.500           1.344
  20869463.594     -792475.513 7   -617512.83322        21.000           2.375
  23051853.086     1049976.466 6    787091.02021        17.000           0.844
  23807343.977    -1696988.848 5  -1322326.17521        11.250           0.438
 91  7  4  2 14 30.0000000  0  5G 3G16G17G20G23
  20630005.477     -645652.279 7   -503105.18623        26.000           3.031
  22613961.445      680338.157 7    530133.23121        21.500           1.344
  20863849.695     -821977.267 7   -640501.19422        21.750           2.313
  23059650.750     1090946.946 6    819016.01621        16.500           0.719
  23794998.203    -1761867.128 5  -1372880.57321        11.250           0.375
 91  7  4  2 14 45.0000000  0  5G 3G16G17G20G23
  20625634.359     -668625.930 7   -521006.72923        26.250           3.125
  22618992.297      706781.764 7    550738.62421        21.250           1.313
  20858247.039     -851406.447 7   -663433.01122        21.500           2.406
  23067451.633     1131957.926 6    850972.57021        16.750           0.719
  23782654.305    -1826713.464 5  -1423410.08821        11.000           0.375
 91  7  4  2 15  0.0000000  0  5G 3G16G17G20G23
  20621276.055     -691532.255 7   -538855.80223        26.500           3.031
  22624039.773      733309.686 7    571409.71021        20.750           1.438
  20852662.117     -880765.270 7   -686310.00922        21.750           2.344
  23075266.070     1173006.719 6    882958.58821        17.000           0.781
  23770323.813    -1891529.945 5  -1473916.35121        11.250           0.438
 91  7  4  2 15 15.0000000  0  5G 3G16G17G20G23
  20616928.805     -714368.046 7   -556649.92423        25.750           3.063
  22629106.977      759924.707 7    592148.66122        21.250           1.531
  20847090.023     -910050.521 7   -709129.66922        21.750           2.344
  23083082.586     1214096.225 6    914976.33221        16.500           0.719
  23757996.383    -1956313.118 5  -1524396.64121        11.500           0.500
 91  7  4  2 15 30.0000000  0  5G 3G16G17G20G23
  20612594.727     -737136.766 7   -574391.77723        25.500           3.000
  22634186.266      786622.448 7    612952.06622        20.750           1.500
  20841531.430     -939266.028 7   -731894.98622        21.750           2.469
  23090910.164     1255222.314 6    947022.58121        16.000           0.781
  23745671.164    -2021066.310 5  -1574853.58321        11.250           0.438
 91  7  4  2 15 45.0000000  0  5G 3G16G17G20G23
  20608276.852     -759834.824 7   -592078.57323        26.250           2.938
  22639280.477      813406.193 7    633822.48522        20.500           1.594
  20835984.078     -968408.497 7   -754603.38923        21.500           2.563
  23098740.258     1296387.876 6    979099.58021        15.250           0.656
  23733358.938    -2085785.996 5  -1625284.40921        11.750           0.375
 91  7  4  2 16  0.0000000  0  5G 3G16G17G20G23
  20603970.742     -782464.732 7   -609712.27023        25.750           3.094
  22644395.344      840272.981 7    654757.62122        20.250           1.563
  20830452.055     -997480.504 7   -777256.88722        22.500           2.469
  23106582.414     1337589.813 6   1011204.93721        15.000           0.594
  23721043.469    -2150474.465 5  -1675690.91921        11.250           0.438
 91  7  4  2 16 15.0000000  0  5G 3G16G17G20G23
  20599679.352     -805024.028 7   -627290.93423        26.000           3.063
  22649525.195      867224.569 7    675758.84721        20.500           1.438
  20824933.086    -1026479.982 7   -799853.86523        22.000           2.531
  23114427.250     1378830.223 6   1043340.26721        14.250           0.594
  23708743.516    -2215129.389 5  -1726071.29021        11.250           0.344
 91  7  4  2 16 30.0000000  0  5G 3G16G17G20G23
  20595398.266     -827510.646 7   -644812.96623        26.000           3.156
  22654668.789      894262.709 7    696827.50421        20.250           1.406
  20819430.133    -1055405.000 7   -822392.83523        22.000           2.625
  23122284.344     1420110.499 6   1075506.66621        14.250           0.625
  23696446.578    -2279748.361 5  -1776423.64321        10.750           0.406
 91  7  4  2 16 45.0000000  0  5G 3G16G17G20G23
  20591132.813     -849927.268 7   -662280.45723        26.250           3.063
  22659828.227      921384.183 6    717961.10521        19.500           1.313
  20813940.633    -1084258.631 7   -844876.16923        21.750           2.781
  23130146.109     1461427.308 6   1107701.53721        14.500           0.656
  23684160.391    -2344334.149 5  -1826750.13321        11.500           0.406
 91  7  4  2 17  0.0000000  0  5G 3G16G17G20G23
  20586879.992     -872273.518 7   -679693.11323        26.750           3.125
  22665007.344      948588.637 6    739159.35921        19.250           1.438
  20808461.797    -1113040.894 7   -867303.89523        21.500           2.719
  23138014.766     1502780.395 6   1139924.66321        14.750           0.625
  23671873.781    -2408886.410 5  -1877050.49221        11.500           0.375
 91  7  4  2 17 15.0000000  0  5G 3G16G17G20G23
  20582641.234     -894549.475 7   -697050.99723        26.750           3.063
  22670197.992      975875.619 6    760421.92921        19.000           1.469
  20802996.852    -1141751.840 7   -889676.03523        21.500           2.781
  23145889.523     1544169.143 6   1172175.58221        14.500           0.688
  23659594.898    -2473405.282 5  -1927324.84921        11.250           0.344
 91  7  4  2 17 30.0000000  0  5G 3G16G17G20G23
  20578417.305     -916756.619 7   -714355.26323        26.750           3.094
  22675408.320     1003243.290 6    781747.35422        19.000           1.594
  20797545.422    -1170392.999 7   -911993.80723        21.000           2.781
  23153776.422     1585591.594 6   1204452.76821        14.750           0.656
  23647324.563    -2537891.918 5  -1977574.08021        11.250           0.375
 91  7  4  2 17 45.0000000  0  5G 3G16G17G20G23
  20574203.891     -938892.306 7   -731603.84023        27.000           3.063
  22680633.031     1030693.731 6    803137.28022        19.000           1.594
  20792110.539    -1198962.081 7   -934255.42223        21.500           2.625
  23161667.609     1627050.015 6   1236757.96621        14.750           0.594
  23635061.000    -2602343.551 5  -2027796.04421        11.500           0.438
 91  7  4  2 18  0.0000000  0  5G 3G16G17G20G23
  20570003.883     -960961.138 7   -748800.33023        26.750           3.094
  22685870.438     1058221.579 6    824587.53421        19.750           1.469
  20786687.828    -1227463.870 7   -956464.59423        21.500           2.719
  23169561.117     1668538.895 6   1269086.91521        13.750           0.719
  23622801.945    -2666764.911 5  -2077994.42121        11.250           0.563
 91  7  4  2 18 15.0000000  0  5G 3G16G17G20G23
  20565816.500     -982958.648 7   -765941.23723        26.500           3.094
  22691122.797     1085830.623 6    846101.05921        19.500           1.344
  20781278.430    -1255894.506 7   -978618.32423        21.500           2.656
  23177460.531     1710062.047 6   1301442.55821        13.500           0.719
  23610551.859    -2731151.565 5  -2128165.75721        11.250           0.531
 91  7  4  2 18 30.0000000  0  5G 3G16G17G20G23
  20561646.156    -1004881.338 7   -783023.84423        27.500           3.156
  22696389.570     1113524.292 6    867680.52621        18.750           1.281
  20775880.875    -1284250.380 7  -1000713.78923        21.250           2.656
  23185371.516     1751622.652 6   1333827.38821        13.250           0.719
  23598302.188    -2795499.598 5  -2178306.99021        10.500           0.438
 91  7  4  2 18 45.0000000  0  5G 3G16G17G20G23
  20557488.352    -1026733.443 7   -800051.46623        27.500           3.094
  22701678.469     1141297.528 6    889321.99321        19.000           1.281
  20770497.313    -1312536.210 7  -1022754.68123        21.250           2.625
  23193286.570     1793215.715 6   1366237.50821        12.750           0.719
  23586062.984    -2859813.288 5  -2228421.48521        10.000           0.469
 91  7  4  2 19  0.0000000  0  5G 3G16G17G20G23
  20553344.508    -1048511.287 7   -817021.20423        27.500           3.031
  22706979.836     1169153.716 6    911028.09721        19.500           1.219
  20765126.547    -1340748.432 7  -1044738.22323        21.500           2.688
  23201202.641     1834844.264 6   1398675.27421        12.250           0.719
  23573829.313    -2924089.149 5  -2278506.49521         9.250           0.469
 91  7  4  2 19 15.0000000  0  5G 3G16G17G20G23
  20549213.938    -1070214.282 7   -833932.61723        27.000           3.000
  22712295.469     1197092.742 6    932798.75921        19.750           1.281
  20759777.602    -1368886.693 7  -1066664.13323        22.750           2.719
  23209134.078     1876508.541 6   1431140.88821        12.750           0.781
  23561612.852    -2988326.367 5  -2328561.38921         9.750           0.531
 91  7  4  2 19 30.0000000  0  5G 3G16G17G20G23
  20545096.148    -1091849.275 7   -850791.04323        27.250           3.125
  22717629.516     1225107.093 7    954628.10921        20.250           1.094
  20754434.281    -1396958.249 7  -1088538.05723        22.000           2.719
  23217064.883     1918201.021 6   1463628.47321        12.500           0.719
  23549392.016    -3052531.780 5  -2378591.50121         9.750           0.531
 91  7  4  2 19 45.0000000  0  5G 3G16G17G20G23
  20540994.227    -1113410.365 7   -867591.88923        27.500           2.969
  22722972.711     1253202.389 7    976520.52121        20.000           1.156
  20749106.352    -1424957.329 7  -1110355.51623        21.500           2.781
  23225010.563     1959926.935 6   1496142.11321        13.000           0.688
  23537179.719    -3116699.391 5  -2428592.15321        10.000           0.531
 91  7  4  2 20  0.0000000  0  5G 3G16G17G20G23
  20536903.805    -1134896.234 7   -884334.11123        26.500           3.094
  22728337.938     1281379.416 7    998476.62721        20.500           1.094
  20743792.305    -1452882.841 7  -1132115.65023        22.500           2.750
  23232957.594     2001687.248 6   1528682.56521        13.000           0.563
  23524977.070    -3180827.773 5  -2478562.25521        10.000           0.594
 91  7  4  2 20 15.0000000  0  5G 3G16G17G20G23
  20532830.930    -1156311.799 7   -901021.55123        27.000           3.000
  22733714.227     1309632.966 7   1020492.36221        20.500           1.094
  20738488.047    -1480739.959 7  -1153822.47823        22.250           2.781
  23240911.844     2043476.386 6   1561245.47721        13.250           0.594
  23512780.703    -3244921.705 5  -2528505.50821        10.500           0.531
 91  7  4  2 20 30.0000000  0  5G 3G16G17G20G23
  20528770.547    -1177650.560 7   -917649.14723        27.500           3.000
  22739102.633     1337968.585 7   1042572.05921        20.000           1.156
  20733202.609    -1508522.506 7  -1175471.19623        22.000           2.781
  23248867.898     2085300.032 6   1593835.27821        12.500           0.656
  23500590.672    -3308974.893 5  -2578417.01721        10.500           0.531
 91  7  4  2 20 45.0000000  0  5G 3G16G17G20G23
  20524722.586    -1198912.440 7   -934216.83323        27.250           2.969
  22744513.414     1366386.102 7   1064715.55921        20.000           1.094
  20727931.813    -1536230.327 7  -1197061.69823        22.000           2.844
  23256833.352     2127158.182 6   1626451.95621        12.750           0.625
  23488410.172    -3372987.056 5  -2628296.54621        11.000           0.531
 91  7  4  2 21  0.0000000  0  5G 3G16G17G20G23
  20520690.500    -1220099.381 7   -950726.12723        27.000           3.063
  22749936.359     1394882.560 7   1086920.56621        20.250           1.031
  20722675.898    -1563865.966 7  -1218595.95623        22.500           2.781
  23264806.836     2169047.854 6   1659093.21321        13.000           0.656
  23476235.227    -3436960.167 5  -2678145.65821        10.750           0.531
 91  7  4  2 21 15.0000000  0  5G 3G16G17G20G23
  20516674.063    -1241212.926 7   -967178.23423        27.500           3.156
  22755371.906     1423456.173 7   1109185.70621        20.500           1.031
  20717426.422    -1591430.977 7  -1240075.17223        22.250           2.813
  23272781.406     2210967.020 6   1691757.44821        12.000           0.656
  23464071.133    -3500895.378 5  -2727965.22821        10.750           0.594
 91  7  4  2 21 30.0000000  0  5G 3G16G17G20G23
  20512672.102    -1262249.254 7   -983570.15823        27.000           3.125
  22760825.492     1452110.621 7   1131513.81821        20.500           0.938
  20712195.273    -1618921.732 7  -1261496.53223        22.750           2.781
  23280765.516     2252919.123 5   1724447.33121        11.750           0.688
  23451911.953    -3564788.901 5  -2777752.32021        11.000           0.563
 91  7  4  2 21 45.0000000  0  5G 3G16G17G20G23
  20508683.539    -1283210.082 7   -999903.26523        26.750           3.125
  22766294.063     1480843.454 7   1153903.02821        21.000           0.969
  20706977.656    -1646340.397 7  -1282861.70923        22.750           2.719
  23288756.266     2294901.891 5   1757161.11121        11.250           0.719
  23439761.625    -3628642.525 5  -2827508.32321        11.250           0.500
 91  7  4  2 22  0.0000000  0  5G 3G16G17G20G23
  20504706.430    -1304099.345 7  -1016180.60423        26.750           3.000
  22771776.117     1509650.207 7   1176349.82621        21.500           1.063
  20701772.750    -1673691.088 7  -1304173.92623        22.000           2.656
  23296748.570     2336910.535 5   1789895.06121        10.750           0.656
  23427616.906    -3692460.195 5  -2877236.30421        11.250           0.563
 91  7  4  2 22 15.0000000  0  5G 3G16G17G20G23
  20500746.266    -1324907.907 7  -1032395.05823        26.500           3.000
  22777272.102     1538539.243 7   1198860.75621        20.750           1.063
  20696584.125    -1700964.856 7  -1325426.20323        22.500           2.688
  23304748.711     2378953.644 5   1822655.85821        10.500           0.688
  23415478.063    -3756232.837 5  -2926929.21821        11.250           0.656
 91  7  4  2 22 30.0000000  0  5G 3G16G17G20G23
  20496802.141    -1345638.982 7  -1048549.13323        27.250           3.000
  22782783.594     1567506.959 7   1221432.98721        20.000           1.000
  20691407.617    -1728165.089 7  -1346621.17823        22.500           2.563
  23312754.828     2421027.530 5   1855440.64321        11.000           0.594
  23403353.688    -3819963.426 6  -2976589.33621        12.000           0.688
 91  7  4  2 22 45.0000000  0  5G 3G16G17G20G23
  20492871.242    -1366299.822 7  -1064648.48123        27.000           2.938
  22788310.516     1596545.580 6   1244060.45621        19.750           1.125
  20686242.547    -1755299.401 7  -1367764.79123        22.500           2.625
  23320766.563     2463124.353 6   1888243.30421        12.000           0.500
  23391233.727    -3883659.048 6  -3026222.22321        12.250           0.656
 91  7  4  2 23  0.0000000  0  5G 3G16G17G20G23
  20488954.031    -1386884.498 7  -1080688.48023        26.500           3.000
  22793851.367     1625660.561 7   1266747.42721        20.250           1.094
  20681093.445    -1782362.067 7  -1388852.57422        23.250           2.469
  23328785.031     2505249.420 6   1921067.97421        12.250           0.563
  23379119.008    -3947313.726 6  -3075823.19921        12.250           0.625
 91  7  4  2 23 15.0000000  0  5G 3G16G17G20G23
  20485051.063    -1407392.652 7  -1096668.84323        26.750           2.938
  22799404.680     1654851.603 6   1289493.67221        19.500           1.094
  20675956.789    -1809352.791 7  -1409884.29723        23.000           2.531
  23336806.000     2547402.568 6   1953914.52421        12.500           0.500
  23367012.344    -4010927.070 6  -3125391.95621        12.500           0.625
 91  7  4  2 23 30.0000000  0  5G 3G16G17G20G23
  20481160.680    -1427825.974 7  -1112590.90823        26.500           2.969
  22804972.148     1684116.658 6   1312297.59221        19.500           1.125
  20670835.688    -1836273.657 7  -1430861.59423        23.000           2.656
  23344829.906     2589581.688 6   1986781.31921        12.500           0.500
  23354914.922    -4074500.691 6  -3174929.77121        12.500           0.656
 91  7  4  2 23 45.0000000  0  5G 3G16G17G20G23
  20477289.617    -1448181.388 7  -1128452.26023        26.250           2.969
  22810558.109     1713458.175 6   1335161.08521        19.000           1.063
  20665727.336    -1863122.093 7  -1451782.44923        23.750           2.750
  23352865.813     2631789.032 6   2019670.09921        13.250           0.500
  23342826.859    -4138031.721 6  -3224434.41121        13.000           0.656
 91  7  4  2 24  0.0000000  0  5G 3G16G17G20G23
  20473431.570    -1468459.370 7  -1144253.27423        26.000           3.031
  22816155.328     1742875.019 6   1358083.28721        18.500           1.125
  20660629.664    -1889898.413 7  -1472647.09923        23.750           2.813
  23360899.453     2674023.849 6   2052580.29521        13.000           0.594
  23330744.883    -4201520.329 6  -3273905.98321        13.500           0.688
 91  7  4  2 24 15.0000000  0  5G 3G16G17G20G23
  20469585.977    -1488659.237 7  -1159993.42323        25.500           2.969
  22821767.867     1772367.729 6   1381064.58621        19.000           0.969
  20655547.758    -1916602.424 7  -1493455.40423        23.250           2.750
  23368942.625     2716286.073 6   2085511.83221        13.250           0.469
  23318670.172    -4264965.739 6  -3323343.90821        14.000           0.656
 91  7  4  2 24 30.0000000  0  5G 3G16G17G20G23
  20465755.609    -1508782.652 7  -1175674.00223        25.250           2.969
  22827394.070     1801933.933 6   1404103.18221        18.750           1.031
  20650481.336    -1943236.028 7  -1514208.86323        23.500           2.781
  23376990.758     2758573.383 6   2118462.94221        13.500           0.531
  23306605.680    -4328369.636 6  -3372749.48421        14.250           0.625
 91  7  4  2 24 45.0000000  0  5G 3G16G17G20G23
  20461940.938    -1528827.690 7  -1191293.49523        25.750           3.000
  22833035.727     1831574.941 6   1427200.05621        18.500           1.063
  20645427.297    -1969797.567 7  -1534906.15023        23.750           2.750
  23385038.844     2800887.071 6   2151434.58221        13.500           0.563
  23294549.195    -4391729.920 6  -3422121.07621        14.250           0.625
 91  7  4  2 25  0.0000000  0  5G 3G16G17G20G23
  20458142.680    -1548796.264 7  -1206853.41623        26.000           2.906
  22838691.039     1861288.151 6   1450353.19021        18.750           1.125
  20640384.695    -1996289.132 7  -1555548.90623        23.250           2.844
  23393101.367     2843224.593 6   2184424.80321        13.750           0.531
  23282499.742    -4455048.813 6  -3471460.40821        14.500           0.781
 91  7  4  2 25 15.0000000  0  5G 3G16G17G20G23
  20454359.484    -1568685.524 7  -1222351.53123        26.000           2.938
  22844356.852     1891076.248 6   1473564.66821        18.000           1.125
  20635356.188    -2022707.900 7  -1576134.94823        23.000           2.781
  23401160.758     2885588.664 6   2217435.70121        13.750           0.531
  23270461.344    -4518323.116 6  -3520764.98521        14.750           0.719
 91  7  4  2 25 30.0000000  0  5G 3G16G17G20G23
  20450587.641    -1588495.873 7  -1237788.16123        26.250           2.969
  22850041.453     1920938.264 6   1496833.74321        18.250           1.156
  20630344.867    -2049054.734 7  -1596664.94623        23.500           2.781
  23409226.172     2927978.013 6   2250466.30421        13.250           0.500
  23258428.875    -4581553.111 6  -3570035.04821        14.500           0.688
 91  7  4  2 25 45.0000000  0  5G 3G16G17G20G23
  20446833.531    -1608225.990 7  -1253162.27223        26.000           2.844
  22855735.852     1950874.973 6   1520161.03221        18.250           1.156
  20625345.406    -2075328.613 7  -1617138.09023        23.750           2.875
  23417299.938     2970393.553 6   2283517.30621        13.250           0.500
  23246404.617    -4644737.519 6  -3619269.57221        14.750           0.688
 91  7  4  2 26  0.0000000  0  5G 3G16G17G20G23
  20443095.227    -1627873.333 7  -1268471.87323        25.500           3.000
  22861449.969     1980888.402 6   1543548.10421        18.500           1.125
  20620358.023    -2101527.329 7  -1637552.66023        23.500           2.813
  23425375.156     3012837.232 6   2316590.24121        13.500           0.531
  23234390.211    -4707873.738 6  -3668466.56021        14.750           0.594
 91  7  4  2 26 15.0000000  0  5G 3G16G17G20G23
  20439372.602    -1647442.827 7  -1283720.82423        25.750           2.844
  22867173.219     2010972.815 6   1566990.48721        17.750           1.188
  20615387.320    -2127655.774 7  -1657912.47723        24.000           2.813
  23433456.500     3055303.224 6   2349680.54921        13.250           0.563
  23222384.578    -4770966.819 6  -3717629.93321        14.750           0.625
 91  7  4  2 26 30.0000000  0  5G 3G16G17G20G23
  20435660.594    -1666938.032 7  -1298911.89023        25.750           2.906
  22872909.523     2041124.502 6   1590485.28321        17.500           1.188
  20610428.563    -2153717.663 7  -1678220.42823        23.750           2.781
  23441540.672     3097787.640 6   2382785.23021        13.250           0.500
  23210386.023    -4834019.931 6  -3766762.16321        14.500           0.688
 91  7  4  2 26 45.0000000  0  5G 3G16G17G20G23
  20431966.078    -1686353.557 7  -1314040.86523        25.250           2.813
  22878662.820     2071347.866 6   1614035.92621        17.750           1.125
  20605483.164    -2179707.964 7  -1698472.60423        24.250           2.875
  23449631.266     3140295.152 6   2415907.90421        13.000           0.469
  23198397.195    -4897028.088 6  -3815859.36221        14.750           0.594
 91  7  4  2 27  0.0000000  0  5G 3G16G17G20G23
  20428287.758    -1705686.898 7  -1329105.80123        25.500           2.844
  22884427.023     2101645.104 6   1637644.13821        17.750           1.094
  20600549.945    -2205624.632 7  -1718667.39423        24.250           2.781
  23457723.680     3182827.698 6   2449050.07521        13.500           0.469
  23186414.266    -4959988.583 6  -3864919.44021        14.500           0.563
 91  7  4  2 27 15.0000000  0  5G 3G16G17G20G23
  20424624.320    -1724938.138 7  -1344106.76223        25.250           2.813
  22890206.484     2132015.516 6   1661309.37821        17.250           1.063
  20595631.570    -2231468.028 7  -1738805.09123        24.250           2.938
  23465824.039     3225384.816 6   2482211.40321        14.000           0.438
  23174442.852    -5022901.204 6  -3913942.19021        14.000           0.625
 91  7  4  2 27 30.0000000  0  5G 3G16G17G20G23
  20420973.789    -1744112.713 7  -1359047.98223        25.000           2.813
  22895999.273     2162453.148 6   1685026.97321        17.750           1.031
  20590728.188    -2257243.425 7  -1758889.81023        24.250           2.938
  23473925.258     3267960.485 6   2515387.17721        14.000           0.344
  23162476.586    -5085771.299 6  -3962931.82021        13.500           0.750
 91  7  4  2 27 45.0000000  0  5G 3G16G17G20G23
  20417341.977    -1763205.572 7  -1373925.53023        25.250           2.813
  22901803.305     2192962.597 6   1708800.55621        17.750           0.969
  20585835.305    -2282946.504 7  -1778918.16923        24.500           2.938
  23482033.391     3310558.999 6   2548580.76521        13.750           0.344
  23150520.945    -5148594.088 6  -4011884.57521        13.000           0.656
 91  7  4  2 28  0.0000000  0  5G 3G16G17G20G23
  20413725.055    -1782217.982 7  -1388740.39123        25.250           2.750
  22907625.953     2223542.304 6   1732628.88221        18.500           1.094
  20580957.164    -2308578.482 7  -1798891.12923        24.000           2.906
  23490137.813     3353178.820 6   2581790.94621        13.500           0.313
  23138575.305    -5211370.489 6  -4060801.18021        13.000           0.688
 91  7  4  2 28 14.9990000  0  5G 3G16G17G20G23
  20410120.464    -1801149.418 7  -1403492.15223        25.250           2.906
  22913454.620     2254188.601 6   1756509.08721        18.250           1.031
  20576095.355    -2334138.827 7  -1818808.26823        24.500           3.063
  23498251.378     3395815.467 6   2615014.26021        12.500           0.344
  23126638.862    -5274097.327 6  -4109679.18121        12.750           0.563
 91  7  4  2 28 29.9990000  0  5G 3G16G17G20G23
  20406533.706    -1820002.127 7  -1418182.56323        25.500           2.906
  22919302.558     2284905.847 6   1780444.59321        18.250           0.969
  20571243.886    -2359630.581 7  -1838671.95323        24.500           3.063
  23506369.855     3438474.821 6   2648255.23721        12.000           0.281
  23114711.933    -5336782.008 6  -4158524.33121        13.000           0.625
 91  7  4  2 28 44.9990000  0  5G 3G16G17G20G23
  20402962.761    -1838775.574 7  -1432811.22823        25.750           2.844
  22925158.144     2315690.477 6   1804432.60621        17.500           1.063
  20566403.753    -2385053.366 7  -1858481.90523        24.750           3.063
  23514489.183     3481152.416 6   2681510.43321        12.000           0.344
  23102790.636    -5399421.505 6  -4207334.27321        12.750           0.563
 91  7  4  2 28 59.9990000  0  5G 3G16G17G20G23
  20399404.042    -1857464.411 7  -1447373.95123        25.250           2.969
  22931030.956     2346547.294 6   1828476.84921        17.250           0.969
  20561581.456    -2410401.966 7  -1878234.04423        25.250           3.156
  23522617.198     3523852.928 6   2714783.48121        12.000           0.344
  23090881.511    -5462010.513 6  -4256104.85521        12.500           0.750
 91  7  4  2 29 14.9990000  0  5G 3G16G17G20G23
  20395862.862    -1876072.031 7  -1461873.39423        25.250           2.969
  22936915.370     2377472.450 6   1852574.35021        17.500           1.031
  20556772.331    -2435679.881 7  -1897931.11023        25.500           3.063
  23530747.472     3566572.521 6   2748071.41721        12.750           0.375
  23078981.019    -5524551.950 6  -4304838.39121        12.250           0.688
 91  7  4  2 29 29.9990000  0  5G 3G16G17G20G23
  20392341.300    -1894595.917 7  -1476307.59023        25.750           2.875
  22942812.159     2408467.659 6   1876726.43021        17.250           0.969
  20551973.081    -2460884.903 7  -1917571.37923        25.500           3.063
  23538879.839     3609313.064 6   2781375.67021        12.750           0.375
  23067089.956    -5587043.355 6  -4353532.92621        12.500           0.688
 91  7  4  2 29 44.9990000  0  5G 3G16G17G20G23
  20388828.503    -1913036.608 7  -1490676.95023        24.750           2.906
  22948723.745     2439532.038 6   1900932.41221        17.500           1.031
  20547194.386    -2486017.830 7  -1937155.46123        26.250           3.063
  23547017.644     3652073.577 6   2814695.47521        12.750           0.438
  23055207.245    -5649485.354 6  -4402188.96821        12.750           0.719
 91  7  4  2 29 59.9990000  0  5G 3G16G17G20G23
  20385336.089    -1931397.651 7  -1504984.25023        25.250           2.906
  22954650.276     2470661.362 6   1925189.00121        18.250           0.875
  20542422.870    -2511082.579 7  -1956686.42523        25.500           3.125
  23555159.159     3694849.831 6   2848027.56621        13.250           0.438
  23043333.792    -5711881.451 6  -4450809.24521        12.500           0.750
 91  7  4  2 30 14.9990000  0  5G 3G16G17G20G23
  20381860.909    -1949670.034 7  -1519222.46823        25.000           2.813
  22960588.730     2501864.260 6   1949502.90721        18.500           1.000
  20537666.206    -2536070.458 7  -1976157.49023        25.500           3.094
  23563303.206     3737650.224 6   2881378.44821        13.000           0.375
  23031466.120    -5774222.714 6  -4499386.80321        12.000           0.625
 91  7  4  2 30 29.9990000  0  5G 3G16G17G20G23
  20378397.440    -1967860.216 7  -1533396.63723        25.000           2.844
  22966539.675     2533133.920 6   1973868.85321        18.000           1.094
  20532927.987    -2560987.781 7  -1995573.57923        25.750           3.063
  23571453.480     3780467.711 6   2914742.65921        13.250           0.469
  23019613.175    -5836515.428 6  -4547926.53121        12.500           0.656
 91  7  4  2 30 44.9990000  0  5G 3G16G17G20G23
  20374951.401    -1985967.927 7  -1547506.53923        25.000           2.906
  22972501.276     2564469.684 6   1998286.30821        17.750           0.969
  20528196.394    -2585834.744 7  -2014934.83823        25.500           3.094
  23579603.370     3823302.135 6   2948120.08021        12.750           0.406
  23007770.269    -5898759.349 6  -4596428.23421        13.000           0.625
 91  7  4  2 30 59.9990000  0  5G 3G16G17G20G23
  20371523.151    -2003991.298 7  -1561550.72023        25.250           2.781
  22978478.261     2595873.264 6   2022756.58021        18.000           1.000
  20523483.573    -2610609.842 7  -2034240.09423        25.500           3.125
  23587755.808     3866154.926 6   2981511.78421        12.500           0.500
  22995935.105    -5960952.304 6  -4644890.22421        12.750           0.625
 91  7  4  2 31 14.9990000  0  5G 3G16G17G20G23
  20368106.730    -2021932.843 7  -1575531.14723        25.250           2.875
  22984465.292     2627341.305 6   2047277.11121        17.500           0.906
  20518783.480    -2635315.673 7  -2053491.38723        25.750           3.094
  23595910.956     3909022.596 5   3014915.09021        11.500           0.531
  22984110.222    -6023096.962 6  -4693314.57921        13.000           0.656
 91  7  4  2 31 29.9990000  0  5G 3G16G17G20G23
  20364710.894    -2039791.829 7  -1589447.23423        25.250           2.938
  22990464.065     2658874.001 6   2071848.00021        17.250           0.969
  20514092.511    -2659951.848 7  -2072688.39023        25.750           3.219
  23604072.894     3951905.380 5   3048330.19621        10.750           0.500
  22972290.003    -6085192.693 6  -4741700.81521        12.750           0.688
 91  7  4  2 31 44.9990000  0  5G 3G16G17G20G23
  20361324.737    -2057565.671 7  -1603296.98223        25.000           2.875
  22996478.776     2690473.804 6   2096471.18721        17.250           1.000
  20509420.605    -2684515.847 7  -2091829.15423        26.250           3.250
  23612237.526     3994805.625 5   3081758.86421        10.000           0.500
  22960488.128    -6147236.413 6  -4790046.51521        13.500           0.719
 91  7  4  2 31 59.9990000  0  5G 3G16G17G20G23
  20357962.089    -2075253.493 7  -1617079.69723        25.250           2.750
  23002504.612     2722140.718 6   2121146.67921        16.500           1.094
  20504758.620    -2709007.078 7  -2110913.22023        26.250           3.281
  23620402.636     4037723.299 5   3115201.13121        10.250           0.375
  22948692.456    -6209227.492 6  -4838351.19321        14.250           0.781
 91  7  4  2 32 14.9990000  0  5G 3G16G17G20G23
  20354609.730    -2092861.440 7  -1630800.17423        24.500           2.781
  23008542.776     2753868.251 6   2145869.39321        17.250           1.000
  20500111.190    -2733432.022 7  -2129945.63323        26.750           3.281
  23628577.995     4080651.910 5   3148651.93821        10.500           0.250
  22936900.956    -6271171.753 6  -4886619.39121        14.000           0.844
 91  7  4  2 32 29.9990000  0  5G 3G16G17G20G23
  20351274.378    -2110386.901 7  -1644456.37723        24.500           2.719
  23014592.940     2785658.611 6   2170641.06921        17.750           1.063
  20495478.245    -2757788.167 7  -2148924.43223        27.250           3.313
  23636746.269     4123593.436 5   3182112.80721        10.500           0.219
  22925125.081    -6333066.665 6  -4934849.13721        14.000           0.781
 91  7  4  2 32 44.9990000  0  5G 3G16G17G20G23
  20347957.073    -2127826.437 7  -1658045.62723        24.250           2.781
  23020653.019     2817514.549 6   2195463.84921        17.750           1.031
  20490854.753    -2782072.362 7  -2167847.16823        26.750           3.250
  23644923.558     4166550.903 5   3215586.09521        10.250           0.344
  22913357.315    -6394908.781 6  -4983037.73921        14.500           0.844
 91  7  4  2 32 59.9990000  0  5G 3G16G17G20G23
  20344652.753    -2145182.141 7  -1671569.55123        24.250           2.844
  23026726.276     2849433.473 6   2220335.71521        17.750           1.000
  20486247.425    -2806287.283 7  -2186715.93323        26.500           3.281
  23653096.440     4209521.418 5   3249069.55621         9.750           0.406
  22901598.073    -6456700.369 6  -5031186.97121        15.000           0.813
 91  7  4  2 33 14.9990000  0  5G 3G16G17G20G23
  20341370.722    -2162449.417 7  -1685024.57123        25.000           2.750
  23032814.534     2881419.421 6   2245259.81421        17.500           1.000
  20481651.917    -2830428.157 7  -2205526.98923        26.500           3.188
  23661275.925     4252509.189 5   3282566.45121         9.250           0.344
  22889849.940    -6518436.473 6  -5079292.97121        15.250           0.875
 91  7  4  2 33 29.9990000  0  5G 3G16G17G20G23
  20338095.339    -2179634.859 7  -1698415.82723        24.250           2.906
  23038914.519     2913465.249 6   2270230.56221        18.000           0.875
  20477073.894    -2854502.015 7  -2224285.82623        27.000           3.281
  23669459.940     4295507.036 5   3316071.20121         9.250           0.375
  22878109.987    -6580123.768 6  -5127360.94321        15.500           0.844
 91  7  4  2 33 44.9990000  0  5G 3G16G17G20G23
  20334845.558    -2196732.775 7  -1711738.88223        24.750           2.750
  23045023.534     2945576.288 6   2295252.13621        17.750           0.813
  20472503.917    -2878503.081 7  -2242987.93823        26.750           3.313
  23677644.190     4338520.502 5   3349588.10921         9.000           0.344
  22866382.511    -6641756.185 6  -5175386.15221        15.500           0.875
 91  7  4  2 33 59.9990000  0  5G 3G16G17G20G23
  20331607.847    -2213744.108 7  -1724994.46523        25.500           2.813
  23051146.823     2977750.814 6   2320323.17621        17.250           0.875
  20467952.980    -2902433.000 7  -2261634.61823        27.000           3.406
  23685836.511     4381547.347 5   3383115.46621         9.500           0.344
  22854663.597    -6703335.104 6  -5223369.66421        15.500           0.875
 91  7  4  2 34 14.9990000  0  5G 3G16G17G20G23
  20328387.542    -2230670.550 7  -1738183.89823        24.750           2.656
  23057279.980     3009986.742 6   2345442.06621        17.000           0.781
  20463409.089    -2926293.742 7  -2280227.38723        27.000           3.344
  23694021.386     4424585.553 5   3416651.66421         9.000           0.375
  22842956.480    -6764862.144 6  -5271312.74621        16.000           0.875
 91  7  4  2 34 29.9990000  0  5G 3G16G17G20G23
  20325180.745    -2247509.517 7  -1751305.17323        25.000           2.813
  23063425.003     3042286.334 6   2370610.56321        16.750           0.875
  20458884.339    -2950082.714 7  -2298764.23723        26.750           3.406
  23702211.964     4467637.261 5   3450198.37921         9.000           0.313
  22831258.589    -6826334.356 6  -5319213.11021        16.000           0.906
 91  7  4  2 34 44.9990000  0  5G 3G16G17G20G23
  20321995.495    -2264260.801 7  -1764358.12323        25.000           2.656
  23069585.839     3074649.252 6   2395828.39221        17.250           0.906
  20454368.644    -2973799.794 7  -2317245.06623        26.500           3.438
  23710414.065     4510702.273 5   3483755.46421         8.750           0.313
  22819573.612    -6887751.348 6  -5367070.44021        16.500           0.875
 91  7  4  2 34 59.9990000  0  5G 3G16G17G20G23
  20318822.651    -2280923.523 7  -1777342.05923        24.750           2.625
  23075755.964     3107075.611 6   2421095.66221        17.000           0.875
  20449871.894    -2997444.647 7  -2335669.61223        26.500           3.469
  23718609.253     4553780.546 5   3517322.88321         9.000           0.344
  22807894.222    -6949112.565 6  -5414884.32121        16.000           0.844
 91  7  4  2 35 14.9990000  0  5G 3G16G17G20G23
  20315669.519    -2297499.240 7  -1790258.20823        24.250           2.625
  23081937.206     3139563.370 6   2446410.78221        16.500           0.844
  20445384.815    -3021018.985 7  -2354039.21423        27.750           3.406
  23726805.026     4596869.883 5   3550898.92121         8.500           0.313
  22796227.581    -7010419.505 6  -5462655.90021        16.250           0.875
 91  7  4  2 35 29.9990000  0  5G 3G16G17G20G23
  20312529.722    -2313993.148 7  -1803110.59223        24.250           2.688
  23088127.519     3172106.896 6   2471769.34621        16.000           0.875
  20440912.097    -3044528.086 7  -2372357.97823        27.750           3.375
  23735007.081     4639964.787 5   3584479.29621         8.500           0.281
  22784571.917    -7071677.089 6  -5510389.01421        16.500           0.844
 91  7  4  2 35 44.9990000  0  5G 3G16G17G20G23
  20309408.698    -2330397.611 7  -1815893.29123        24.000           2.688
  23094335.065     3204713.209 6   2497176.84121        16.500           0.813
  20436452.542    -3067964.769 7  -2390620.31823        27.500           3.344
  23743212.222     4683072.324 5   3618069.51721         9.000           0.375
  22772922.776    -7132877.841 6  -5558077.85221        16.500           0.906
 91  7  4  2 35 59.9990000  0  5G 3G16G17G20G23
  20306304.769    -2346714.772 7  -1828607.95523        24.750           2.781
  23100553.558     3237379.771 6   2522631.27721        16.250           0.813
  20432004.237    -3091331.400 7  -2408828.06823        26.500           3.375
  23751419.136     4726189.691 5   3651667.40121         9.000           0.438
  22761290.284    -7194023.869 6  -5605724.04321        17.250           0.781
 91  7  4  2 36 14.9990000  0  5G 3G16G17G20G23
  20303214.745    -2362943.794 7  -1841253.94723        24.750           2.719
  23106777.417     3270106.895 6   2548132.89921        16.000           0.844
  20427572.222    -3114627.303 7  -2426980.71023        27.000           3.344
  23759621.698     4769317.254 5   3685273.23121         8.750           0.438
  22749664.214    -7255114.155 6  -5653326.80721        17.000           0.938
 91  7  4  2 36 29.9990000  0  5G 3G16G17G20G23
  20300145.675    -2379083.659 7  -1853830.46423        24.250           2.781
  23113017.128     3302894.957 6   2573682.02521        15.500           0.813
  20423150.737    -3137851.951 7  -2445077.82823        26.750           3.250
  23767829.667     4812455.459 5   3718887.33421         9.000           0.375
  22738053.308    -7316147.620 6  -5700885.29021        17.500           0.813
 91  7  4  2 36 44.9990000  0  5G 3G16G17G20G23
  20297089.339    -2395135.954 7  -1866338.74623        24.250           2.781
  23119270.542     3335741.830 6   2599276.95321        15.250           0.813
  20418746.675    -3161007.018 7  -2463120.72923        27.250           3.313
  23776046.659     4855602.097 5   3752508.03521         9.750           0.375
  22726446.097    -7377125.792 6  -5748400.69121        17.000           0.906
 91  7  4  2 36 59.9990000  0  5G 3G16G17G20G23
  20294051.339    -2411103.359 7  -1878780.87623        25.000           3.000
  23125531.065     3368644.318 6   2624915.22121        15.500           0.813
  20414351.737    -3184095.520 7  -2481111.76023        27.000           3.156
  23784252.815     4898753.959 5   3786132.78121         9.250           0.375
  22714850.167    -7438051.475 6  -5795875.19021        16.750           0.844
 91  7  4  2 37 14.9990000  0  5G 3G16G17G20G23
  20291031.995    -2426979.520 7  -1891151.91023        24.750           2.906
  23131802.956     3401608.573 6   2650601.63721        16.000           0.844
  20409972.026    -3207111.018 7  -2499045.91023        27.000           3.219
  23792469.433     4941916.996 5   3819766.24021         9.250           0.375
  22703267.230    -7498918.010 6  -5843303.59821        16.750           0.844
 91  7  4  2 37 29.9990000  0  5G 3G16G17G20G23
  20288025.589    -2442765.551 7  -1903452.71523        25.000           2.938
  23138089.542     3434632.585 6   2676334.61521        16.250           0.719
  20405608.558    -3230055.028 7  -2516924.34523        26.750           3.281
  23800685.690     4985089.417 5   3853407.01621         9.250           0.313
  22691695.159    -7559726.572 6  -5890686.82521        16.500           0.969
 91  7  4  2 37 44.9990000  0  5G 3G16G17G20G23
  20285039.901    -2458460.095 7  -1915682.22623        24.500           2.844
  23144382.300     3467717.317 6   2702114.91421        16.000           0.750
  20401253.581    -3252926.417 7  -2534746.19623        27.000           3.188
  23808900.276     5028272.222 5   3887055.86121         9.250           0.438
  22680137.542    -7620475.742 6  -5938023.78521        16.750           1.000
 91  7  4  2 37 59.9990000  0  5G 3G16G17G20G23
  20282071.433    -2474062.726 7  -1927840.12023        24.500           2.719
  23150691.847     3500862.545 6   2727942.33421        15.750           0.781
  20396914.183    -3275725.199 7  -2552511.47323        27.000           3.188
  23817121.808     5071464.959 5   3920712.48321         9.250           0.406
  22668588.159    -7681165.078 6  -5985314.10621        17.000           1.031
 91  7  4  2 38 14.9990000  0  5G 3G16G17G20G23
  20279117.323    -2489573.945 7  -1939926.78123        24.000           2.781
  23157005.987     3534067.588 6   2753816.36221        15.000           0.719
  20392593.331    -3298452.093 7  -2570220.73123        27.500           3.281
  23825341.308     5114666.588 5   3954376.00221         9.500           0.375
  22657051.761    -7741794.928 6  -6032558.08421        17.500           0.969
 91  7  4  2 38 29.9990000  0  5G 3G16G17G20G23
  20276185.073    -2504994.051 7  -1951942.45123        24.250           2.906
  23163337.612     3567331.462 6   2779736.22921        15.500           0.813
  20388279.339    -3321107.437 7  -2587874.24323        27.500           3.281
  23833564.425     5157876.517 5   3988045.99821         9.500           0.313
  22645524.589    -7802365.641 6  -6079755.98021        17.250           1.031
 91  7  4  2 38 44.9990000  0  5G 3G16G17G20G23
  20273268.612    -2520326.963 7  -1963890.17223        23.750           2.813
  23169680.823     3600649.889 6   2805698.60221        16.000           0.813
  20383980.128    -3343695.450 8  -2605475.28423        28.000           3.281
  23841790.183     5201090.210 5   4021718.93121        10.000           0.406
  22634009.120    -7862881.191 6  -6126910.89521        17.000           1.125
 91  7  4  2 38 59.9990000  0  5G 3G16G17G20G23
  20270366.019    -2535570.188 7  -1975768.01523        24.000           2.750
  23176032.573     3634024.484 6   2831704.74921        15.750           0.781
  20379697.159    -3366213.794 8  -2623022.04223        28.250           3.313
  23850014.862     5244309.362 5   4055396.11821        10.500           0.250
  22622503.800    -7923338.896 6  -6174020.74021        16.500           0.969
 91  7  4  2 39 14.9990000  0  5G 3G16G17G20G23
  20267482.292    -2550719.070 7  -1987572.33723        24.250           2.688
  23182394.839     3667459.508 6   2857757.97221        15.750           0.875
  20375427.417    -3388658.253 8  -2640511.22023        28.000           3.281
  23858240.730     5287538.292 5   4089080.92321        10.500           0.250
  22611012.894    -7983733.941 6  -6221081.75821        16.000           1.125
 91  7  4  2 39 29.9990000  0  5G 3G16G17G20G23
  20264619.722    -2565776.759 7  -1999305.60723        24.500           2.750
  23188768.612     3700951.410 6   2883855.54321        16.000           0.781
  20371169.534    -3411032.161 8  -2657945.42523        28.000           3.156
  23866460.636     5330773.295 5   4122770.44221         9.500           0.250
  22599531.519    -8044069.790 6  -6268096.63121        16.250           0.969
 91  7  4  2 39 44.9990000  0  5G 3G16G17G20G23
  20261772.081    -2580742.209 7  -2010966.99423        24.500           2.719
  23195151.644     3734500.991 6   2909998.02721        16.000           0.781
  20366923.120    -3433334.737 7  -2675324.04823        27.500           3.406
  23874693.323     5374014.982 5   4156465.21421         9.750           0.250
  22588061.659    -8104344.966 6  -6315064.25021        16.500           1.031
 91  7  4  2 39 59.9990000  0  5G 3G16G17G20G23
  20258938.159    -2595616.953 7  -2022557.70123        24.250           2.750
  23201547.472     3768105.716 6   2936183.49021        16.000           0.813
  20362693.214    -3455567.652 7  -2692648.39423        27.250           3.344
  23882923.542     5417260.991 5   4190163.31721        10.250           0.406
  22576602.995    -8164561.273 6  -6361985.98721        16.250           1.031
 91  7  4  2 40 14.9990000  0  5G 3G16G17G20G23
  20256124.534    -2610401.358 7  -2034078.01923        24.500           2.719
  23207953.253     3801764.898 6   2962411.40721        16.000           0.781
  20358478.690    -3477731.516 8  -2709918.92723        28.000           3.375
  23891153.151     5460510.412 5   4223864.07021        10.500           0.281
  22565153.300    -8224718.967 6  -6408862.05221        15.250           1.031
 91  7  4  2 40 29.9990000  0  5G 3G16G17G20G23
  20253329.331    -2625094.810 7  -2045527.46123        24.500           2.844
  23214371.112     3835478.837 6   2988681.99321        16.500           0.844
  20354271.573    -3499825.660 7  -2727135.14023        27.750           3.469
  23899385.745     5503763.554 5   4257567.75121        10.500           0.313
  22553720.050    -8284817.138 6  -6455691.73921        15.000           1.000
 91  7  4  2 40 44.9990000  0  5G 3G16G17G20G23
  20250552.206    -2639690.966 7  -2056901.08323        24.000           2.781
  23220793.409     3869253.263 6   3014999.70221        15.750           0.750
  20350079.940    -3521844.380 8  -2744292.57324        28.000           3.500
  23907616.808     5547026.143 5   4291278.77821        10.500           0.375
  22542291.237    -8344849.501 6  -6502470.16821        14.500           0.938
 91  7  4  2 40 59.9990000  0  5G 3G16G17G20G23
  20247792.737    -2654193.992 7  -2068202.13923        24.750           2.906
  23227232.886     3903083.441 6   3041360.85121        16.250           0.781
  20345902.151    -3543792.261 7  -2761394.81023        27.000           3.438
  23915850.019     5590293.302 5   4324993.37921        10.000           0.344
  22530879.636    -8404820.329 6  -6549200.61521        14.750           0.938
 91  7  4  2 41 14.9990000  0  5G 3G16G17G20G23
  20245051.315    -2668602.899 7  -2079429.85923        24.250           2.813
  23233677.550     3936970.101 6   3067766.02721        15.750           0.719
  20341741.245    -3565668.180 7  -2778440.97923        27.250           3.375
  23924079.862     5633565.739 5   4358712.07721         9.750           0.281
  22519482.667    -8464728.181 6  -6595882.01021        15.500           0.906
 91  7  4  2 41 29.9990000  0  5G 3G16G17G20G23
  20242326.940    -2682915.162 7  -2090582.27323        24.500           2.813
  23240138.370     3970914.647 6   3094216.30121        16.500           0.844
  20337595.737    -3587470.163 7  -2795429.52723        27.500           3.219
  23932314.940     5676845.101 5   4392436.18521         9.500           0.344
  22508093.620    -8524570.737 6  -6642512.52321        15.000           0.875
 91  7  4  2 41 44.9990000  0  5G 3G16G17G20G23
  20239619.308    -2697135.104 7  -2101662.75023        24.250           2.875
  23246610.526     4004912.559 6   3120708.14621        16.500           0.813
  20333459.339    -3609202.591 7  -2812363.88923        27.750           3.250
  23940556.581     5720126.728 5   4426162.04421         9.500           0.313
  22496718.261    -8584352.517 6  -6689095.68121        15.000           0.906
 91  7  4  2 41 59.9990000  0  5G 3G16G17G20G23
  20236933.792    -2711256.396 7  -2112666.35423        24.500           2.813
  23253089.433     4038969.536 6   3147246.03221        16.250           0.844
  20329338.612    -3630859.297 8  -2829239.24723        28.000           3.188
  23948794.737     5763416.376 5   4459894.15221         9.750           0.313
  22485355.440    -8644067.005 6  -6735626.40021        14.750           0.969
 91  7  4  2 42 14.9990000  0  5G 3G16G17G20G23
  20234265.175    -2725280.816 7  -2123594.47123        24.750           2.844
  23259581.292     4073083.643 6   3173828.43821        16.250           0.875
  20325230.120    -3652442.259 7  -2846057.13023        27.750           3.219
  23957037.097     5806711.773 5   4493630.73321         9.750           0.344
  22474004.628    -8703715.852 6  -6782105.96121        14.500           1.031
 91  7  4  2 42 29.9990000  0  5G 3G16G17G20G23
  20231614.284    -2739213.496 7  -2134451.10923        25.250           2.781
  23266085.237     4107248.899 6   3200450.68721        15.750           0.844
  20321134.855    -3673957.033 7  -2862821.88023        27.000           3.156
  23965272.847     5850007.144 5   4527367.29621         9.500           0.219
  22462666.167    -8763304.202 6  -6828538.39621        15.000           1.063
 91  7  4  2 42 44.9990000  0  5G 3G16G17G20G23
  20228980.081    -2753052.569 7  -2145234.80023        24.500           2.719
  23272593.269     4141466.793 6   3227113.95321        16.000           0.781
  20317053.886    -3695401.736 7  -2879532.03623        27.000           3.188
  23973511.300     5893303.945 5   4561104.98521         9.000           0.219
  22451339.526    -8822830.093 6  -6874922.14921        14.750           1.000
 91  7  4  2 42 59.9990000  0  5G 3G16G17G20G23
  20226366.917    -2766793.376 7  -2155941.92223        25.250           2.781
  23279115.245     4175741.431 6   3253821.44021        16.250           0.781
  20312986.230    -3716772.033 7  -2896184.21523        27.250           3.094
  23981753.300     5936606.300 5   4594846.98821         9.000           0.313
  22440018.667    -8882288.932 6  -6921253.66121        13.750           1.094
 91  7  4  2 43 14.9990000  0  5G 3G16G17G20G23
  20223768.214    -2780444.559 7  -2166579.20823        24.250           2.750
  23285650.597     4210063.900 6   3280566.19821        16.250           0.781
  20308933.425    -3738076.888 8  -2912785.39623        28.000           2.938
  23989992.612     5979904.978 5   4628586.14421         9.000           0.250
  22428720.136    -8941688.934 6  -6967539.31721        14.500           1.094
 91  7  4  2 43 29.9990000  0  5G 3G16G17G20G23
  20221189.206    -2794002.074 7  -2177143.50123        24.500           2.750
  23292189.628     4244437.461 6   3307350.78321        16.250           0.625
  20304892.245    -3759312.897 8  -2929332.93423        28.250           2.969
  23998229.534     6023203.144 5   4662324.90021         8.750           0.313
  22417426.183    -9001026.492 6  -7013776.32021        14.750           0.969
 91  7  4  2 43 44.9990000  0  5G 3G16G17G20G23
  20218627.269    -2807464.053 7  -2187633.35523        24.750           2.750
  23298740.011     4278863.660 6   3334176.38421        15.750           0.594
  20300864.847    -3780477.679 7  -2945824.97223        27.750           3.094
  24006468.401     6066502.651 5   4696064.67921         8.500           0.313
  22406148.120    -9060299.280 6  -7059962.86321        15.250           1.094
 91  7  4  2 43 59.9990000  0  5G 3G16G17G20G23
  20216081.651    -2820832.975 7  -2198050.70123        24.000           2.563
  23305303.261     4313339.236 6   3361040.47321        15.500           0.656
  20296850.495    -3801574.368 8  -2962263.95623        28.250           2.875
  24014705.050     6109800.163 5   4729802.92021         8.000           0.344
  22394875.706    -9119509.922 6  -7106100.98821        15.000           1.031
 91  7  4  2 44 14.9990000  0  5G 3G16G17G20G23
  20213557.300    -2834109.197 7  -2208395.80423        25.500           2.781
  23311871.480     4347863.638 6   3387942.59821        15.000           0.656
  20292847.315    -3822603.412 7  -2978650.22723        27.250           2.906
  24022951.534     6153094.908 5   4763538.98921         8.000           0.250
  22383627.659    -9178658.616 6  -7152190.83721        16.000           0.969
 91  7  4  2 44 29.9990000  0  5G 3G16G17G20G23
  20211048.901    -2847285.599 7  -2218663.13023        24.750           2.719
  23318453.276     4382443.582 6   3414887.97721        15.000           0.719
  20288861.925    -3843557.905 8  -2994978.39223        28.000           2.906
  24031189.276     6196393.427 5   4797278.01021         7.750           0.250
  22372381.964    -9237738.270 6  -7198226.88221        15.750           1.063
 91  7  4  2 44 44.9990000  0  5G 3G16G17G20G23
  20208559.050    -2860369.654 7  -2228858.49323        25.250           2.719
  23325042.644     4417070.907 6   3441870.28321        15.000           0.625
  20284887.534    -3864445.571 7  -3011254.48923        27.500           2.813
  24039427.105     6239687.683 5   4831013.69121         7.750           0.219
  22361154.097    -9296756.503 6  -7244215.07421        16.250           1.031
 91  7  4  2 44 59.9990000  0  5G 3G16G17G20G23
  20206087.690    -2873357.361 7  -2238978.77523        25.750           2.844
  23331640.011     4451749.117 6   3468892.26421        14.750           0.625
  20280925.698    -3885262.904 7  -3027475.78723        27.000           2.875
  24047663.503     6282981.071 5   4864748.72321         7.500           0.313
  22349932.097    -9355709.157 6  -7290152.16221        16.500           1.031
 91  7  4  2 45 14.9990000  0  5G 3G16G17G20G23
  20203633.589    -2886245.860 7  -2249021.76923        25.000           2.719
  23338250.737     4486480.606 6   3495955.74421        15.250           0.563
  20276978.144    -3906006.863 7  -3043639.90823        27.000           2.906
  24055899.097     6326276.381 5   4898485.25021         7.500           0.219
  22338728.151    -9414592.995 6  -7336035.62121        17.000           1.188
 91  7  4  2 45 29.9990000  0  5G 3G16G17G20G23
  20201200.355    -2899039.915 7  -2258991.16323        25.000           2.781
  23344869.503     4521260.264 6   3523056.76621        15.750           0.688
  20273044.284    -3926682.886 7  -3059751.09323        27.250           2.906
  24064140.862     6369567.986 4   4932218.88821         7.250           0.156
  22327535.503    -9473412.874 6  -7381869.24721        17.500           1.188
 91  7  4  2 45 44.9990000  0  5G 3G16G17G20G23
  20198784.714    -2911735.058 7  -2268883.47723        24.750           2.688
  23351491.230     4556091.565 6   3550198.03421        14.750           0.688
  20269122.769    -3947286.586 7  -3075805.91923        27.750           2.875
  24072377.956     6412859.679 5   4965952.59721         7.500           0.250
  22316354.284    -9532164.649 6  -7427649.81021        17.000           1.188
 91  7  4  2 45 59.9990000  0  5G 3G16G17G20G23
  20196387.800    -2924333.341 7  -2278700.32723        25.000           2.625
  23358132.792     4590972.310 6   3577377.80821        14.750           0.563
  20265213.948    -3967819.926 7  -3091805.91623        26.750           2.813
  24080614.050     6456148.873 4   4999684.36721         7.000           0.313
  22305186.167    -9590850.188 6  -7473378.75121        17.500           1.125
 91  7  4  2 46 14.9990000  0  4G 3G16G17G23
  20194009.925    -2936834.673 7  -2288441.61923        25.500           2.750
  23364781.222     4625902.212 6   3604595.92121        15.000           0.625
  20261320.503    -3988282.971 7  -3107751.14723        26.750           2.938
  22294032.206    -9649469.020 6  -7519055.71921        17.750           1.219
 91  7  4  2 46 29.9990000  0  4G 3G16G17G23
  20191646.839    -2949239.202 7  -2298107.48823        25.000           2.625
  23371438.855     4660880.141 6   3631851.43821        15.250           0.656
  20257439.620    -4008676.691 7  -3123642.35323        26.250           3.000
  22282890.925    -9708021.760 6  -7564681.18421        18.250           1.156
 91  7  4  2 46 44.9990000  0  4G 3G16G17G23
  20189304.370    -2961547.750 7  -2307698.56223        25.000           2.719
  23378100.167     4695904.993 6   3659143.50621        14.500           0.594
  20253572.573    -4029002.037 7  -3139480.27823        26.750           2.906
  22271758.081    -9766508.858 6  -7610255.50321        18.000           1.250
 91  7  4  2 46 59.9990000  0  4G 3G16G17G23
  20186981.448    -2973757.790 7  -2317212.87723        24.500           2.719
  23384777.089     4730978.954 6   3686473.85121        14.500           0.531
  20249718.886    -4049256.306 7  -3155262.82223        27.000           3.031
  22260644.761    -9824927.813 6  -7655776.72021        18.750           1.250
 91  7  4  2 47 14.9990000  0  4G 3G16G17G23
  20184678.542    -2985866.734 7  -2326648.41523        24.750           2.688
  23391458.573     4766104.232 6   3713844.15821        13.750           0.594
  20245877.065    -4069437.293 7  -3170988.26323        27.750           2.969
  22249539.292    -9883275.673 6  -7701242.54621        18.500           1.281
 91  7  4  2 47 29.9990000  0  4G 3G16G17G23
  20182393.769    -2997877.050 7  -2336007.10523        24.500           2.719
  23398151.862     4801277.630 6   3741252.00021        13.500           0.625
  20242050.011    -4089547.734 8  -3186658.73323        28.000           3.125
  22238450.417    -9941555.196 6  -7746655.11721        19.000           1.281
 91  7  4  2 47 44.9990000  0  4G 3G16G17G23
  20180123.995    -3009789.874 7  -2345289.82623        24.000           2.719
  23404854.870     4836497.468 6   3768695.99621        14.000           0.500
  20238238.026    -4109589.233 8  -3202275.48023        28.000           3.094
  22227372.120    -9999767.608 6  -7792015.38821        19.250           1.313
 91  7  4  2 47 59.9990000  0  4G 3G16G17G23
  20177877.198    -3021603.979 7  -2354495.61723        24.500           2.781
  23411565.815     4871764.537 6   3796176.81821        14.000           0.469
  20234435.761    -4129560.355 7  -3217837.38823        27.500           3.094
  22216307.378   -10057911.351 6  -7837322.16321        19.250           1.313
 91  7  4  2 48 14.9990000  0  4G 3G16G17G23
  20175647.300    -3033318.026 7  -2363623.45023        24.250           2.813
  23418283.269     4907079.483 6   3823694.94921        13.750           0.469
  20230648.284    -4149460.405 7  -3233343.91223        27.000           3.156
  22205256.425   -10115985.385 6  -7882574.62021        19.500           1.313
 91  7  4  2 48 29.9990000  0  4G 3G16G17G23
  20173436.815    -3044931.443 7  -2372672.86623        24.250           2.813
  23425015.964     4942442.714 6   3851250.71021        13.750           0.469
  20226877.886    -4169289.011 7  -3248794.77123        27.750           3.000
  22194218.651   -10173988.765 6  -7927772.00921        19.250           1.219
 91  7  4  2 48 44.9990000  0  4G 3G16G17G23
  20171246.956    -3056444.329 7  -2381643.94523        24.250           2.781
  23431754.386     4977853.728 6   3878843.65921        13.750           0.469
  20223117.620    -4189046.116 8  -3264189.91023        28.000           3.250
  22183193.519   -10231921.464 6  -7972914.32721        19.500           1.281
 91  7  4  2 48 59.9990000  0  4G 3G16G17G23
  20169075.823    -3067859.595 7  -2390538.96023        24.500           2.656
  23438502.261     5013308.927 6   3906471.08821        13.500           0.625
  20219370.222    -4208735.016 8  -3279531.90323        28.000           3.156
  22172183.683   -10289786.348 7  -8018003.81321        20.000           1.313
 91  7  4  2 49 14.9990000  0  4G 3G16G17G23
  20166920.433    -3079173.148 7  -2399354.71323        24.750           2.781
  23445256.214     5048812.191 6   3934135.96121        13.750           0.469
  20215638.605    -4228351.824 8  -3294817.72523        28.000           3.063
  22161187.331   -10347579.224 7  -8063037.18621        20.000           1.250
 91  7  4  2 49 29.9990000  0  4G 3G16G17G23
  20164789.401    -3090386.028 7  -2408092.02423        24.500           2.813
  23452024.394     5084361.757 6   3961836.89321        14.250           0.625
  20211917.300    -4247898.052 8  -3310048.54323        28.250           3.156
  22150200.456   -10405301.503 6  -8108015.54221        19.500           1.313
 91  7  4  2 49 44.9990000  0  4G 3G16G17G23
  20162673.487    -3101497.144 7  -2416750.03123        24.000           2.719
  23458797.855     5119958.407 6   3989574.51321        14.250           0.563
  20208213.940    -4267372.500 8  -3325223.43523        28.750           3.063
  22139231.448   -10462951.730 7  -8152937.75621        20.000           1.375
 91  7  4  2 49 59.9990000  0  4G 3G16G17G23
  20160578.495    -3112507.385 7  -2425329.44223        24.000           2.625
  23465580.519     5155600.372 6   4017347.44121        15.000           0.656
  20204518.581    -4286776.810 8  -3340343.67123        28.250           3.188
  22128275.503   -10520531.039 7  -8197804.71221        20.250           1.344
 91  7  4  2 50 14.9990000  0  4G 3G16G17G23
  20158502.870    -3123418.703 7  -2433831.76323        24.000           2.625
  23472371.120     5191285.559 6   4045154.06521        15.000           0.625
  20200841.722    -4306112.597 8  -3355410.52023        29.000           3.125
  22117331.628   -10578040.909 7  -8242617.55621        20.000           1.250
 91  7  4  2 50 29.9990000  0  4G 3G16G17G23
  20156446.683    -3134225.614 7  -2442252.73023        24.250           2.625
  23479171.636     5227018.769 6   4072998.08421        14.750           0.656
  20197173.628    -4325374.825 8  -3370420.03823        28.000           3.063
  22106401.776   -10635476.054 7  -8287372.17721        20.250           1.281
 91  7  4  2 50 44.9990000  0  4G 3G16G17G23
  20154406.847    -3144935.691 7  -2450598.25023        24.250           2.781
  23485976.472     5262791.881 6   4100873.18721        13.500           0.656
  20193522.253    -4344571.190 8  -3385378.24223        28.500           2.969
  22095484.464   -10692844.007 7  -8332074.44021        20.250           1.281
 91  7  4  2 50 59.9990000  0  4G 3G16G17G23
  20152390.026    -3155543.950 7  -2458864.42823        25.000           2.844
  23492793.558     5298609.765 6   4128783.19621        13.500           0.625
  20189880.276    -4363696.939 8  -3400281.42023        28.000           3.063
  22084581.745   -10750139.687 6  -8376720.38321        19.750           1.406
 91  7  4  2 51 14.9990000  0  4G 3G16G17G23
  20150389.261    -3166048.586 7  -2467049.85523        24.500           2.813
  23499617.839     5334473.607 6   4156729.02221        13.500           0.625
  20186257.769    -4382750.680 8  -3415128.49023        29.000           3.125
  22073690.909   -10807361.272 6  -8421308.59521        19.000           1.313
 91  7  4  2 51 29.9990000  0  4G 3G16G17G23
  20148412.073    -3176450.966 7  -2475155.60523        24.750           2.750
  23506450.565     5370381.527 6   4184709.21021        13.750           0.625
  20182643.690    -4401733.954 8  -3429920.63923        28.750           3.031
  22062818.964   -10864510.171 6  -8465840.17221        19.250           1.406
 91  7  4  2 51 44.9990000  0  4G 3G16G17G23
  20146450.722    -3186748.874 7  -2483179.95423        25.000           2.750
  23513292.323     5406335.120 6   4212724.95521        13.500           0.563
  20179047.198    -4420644.764 8  -3444656.32823        29.250           3.281
  22051956.878   -10921584.100 6  -8510313.32621        18.750           1.344
 91  7  4  2 51 59.9990000  0  4G 3G16G17G23
  20144511.831    -3196941.643 7  -2491122.37323        24.000           2.750
  23520145.237     5442334.642 6   4240776.51421        13.750           0.594
  20175459.472    -4439482.590 8  -3459335.14323        29.500           3.281
  22041108.144   -10978582.341 6  -8554727.49921        18.250           1.344
 91  7  4  2 52 14.9990000  0  4G 3G16G17G23
  20142592.894    -3207024.620 7  -2498979.23523        24.500           2.938
  23527003.480     5478384.316 6   4268867.15021        13.250           0.656
  20171891.480    -4458243.163 8  -3473953.77023        29.750           3.406
  22030276.573   -11035500.086 6  -8599078.94521        18.000           1.344
 91  7  4  2 52 29.9990000  0  4G 3G16G17G23
  20140693.417    -3217005.756 7  -2506756.75223        24.750           2.750
  23533872.784     5514475.670 6   4296990.27721        13.000           0.656
  20168334.558    -4476934.381 8  -3488518.35123        29.250           3.406
  22019463.105   -11092345.177 6  -8643373.78121        18.500           1.281
 91  7  4  2 52 44.9990000  0  4G 3G16G17G23
  20138813.878    -3226883.862 7  -2514453.96723        24.500           2.750
  23540748.019     5550609.558 6   4325146.51021        12.750           0.688
  20164789.776    -4495555.322 8  -3503028.17523        29.500           3.406
  22008656.964   -11149116.379 6  -8687611.03921        18.250           1.313
 91  7  4  2 52 59.9990000  0  4G 3G16G17G23
  20136953.386    -3236655.201 7  -2522067.99723        23.750           2.688
  23547630.964     5586789.074 6   4353338.33121        12.500           0.656
  20161260.737    -4514102.383 8  -3517480.42624        30.000           3.500
  21997870.440   -11205810.068 6  -8731787.90421        19.000           1.313
 91  7  4  2 53 14.9990000  0  4G 3G16G17G23
  20135112.534    -3246322.181 7  -2529600.71423        23.750           2.688
  23554523.776     5623011.486 5   4381563.56921        11.500           0.750
  20157746.315    -4532578.134 8  -3531877.10623        30.750           3.313
  21987097.190   -11262428.344 6  -8775906.01421        19.000           1.188
 91  7  4  2 53 29.9990000  0  4G 3G16G17G23
  20133294.925    -3255880.822 7  -2537049.00423        23.500           2.594
  23561428.558     5659280.201 6   4409824.87821        12.000           0.688
  20154243.565    -4550979.293 8  -3546215.66723        31.000           3.313
  21976336.761   -11318967.475 6  -8819962.43821        18.250           1.344
 91  7  4  2 53 44.9990000  0  4G 3G16G17G23
  20131498.214    -3265333.503 7  -2544414.72623        24.000           2.656
  23568337.214     5695592.293 6   4438120.00121        12.000           0.594
  20150754.690    -4569308.159 8  -3560497.88623        31.250           3.438
  21965590.511   -11375429.674 6  -8863958.92521        17.500           1.438
 91  7  4  2 53 59.9990000  0  4G 3G16G17G23
  20129716.776    -3274682.034 7  -2551699.29523        23.750           2.656
  23575253.909     5731945.604 5   4466447.25221        11.750           0.563
  20147279.980    -4587566.749 8  -3574725.36423        31.000           3.438
  21954860.370   -11431816.662 6  -8907896.79521        17.750           1.469
 91  7  4  2 54 14.9990000  0  4G 3G16G17G23
  20127959.026    -3283921.115 7  -2558898.58423        23.750           2.594
  23582181.815     5768344.610 6   4494810.09521        12.000           0.563
  20143822.355    -4605750.059 8  -3588894.17324        31.500           3.531
  21944148.230   -11488123.164 6  -8951771.95621        17.750           1.469
 91  7  4  2 54 29.9990000  0  4G 3G16G17G23
  20126220.026    -3293053.513 7  -2566014.73823        23.500           2.625
  23589117.386     5804786.382 6   4523206.28421        12.250           0.438
  20140376.605    -4623861.150 8  -3603006.70124        31.750           3.563
  21933447.175   -11544351.810 6  -8995586.45221        17.750           1.406
 91  7  4  2 54 44.9990000  0  4G 3G16G17G23
  20124503.886    -3302078.065 7  -2573046.85423        23.750           2.656
  23596059.050     5841271.885 6   4551636.55721        12.500           0.500
  20136941.995    -4641898.798 8  -3617062.00524        31.000           3.656
  21922762.706   -11600501.410 6  -9039339.35222        18.250           1.563
 91  7  4  2 54 59.9990000  0  4G 3G16G17G23
  20122807.714    -3310997.032 7  -2579996.69923        23.750           2.688
  23603008.370     5877798.281 6   4580098.68521        12.250           0.469
  20133524.167    -4659865.502 8  -3631062.03724        31.750           3.813
  21912092.870   -11656574.177 6  -9083032.38022        18.000           1.563
 91  7  4  2 55 14.9990000  0  4G 3G16G17G23
  20121131.534    -3319808.470 7  -2586862.76223        24.000           2.719
  23609968.222     5914366.853 6   4608593.68321        12.500           0.500
  20130118.292    -4677759.503 8  -3645005.41024        31.750           3.719
  21901434.917   -11712568.182 6  -9126664.03422        17.500           1.625
 91  7  4  2 55 29.9990000  0  4G 3G16G17G23
  20119474.659    -3328511.507 7  -2593644.34623        23.750           2.594
  23616933.855     5950977.755 5   4637121.64821        11.500           0.438
  20126726.042    -4695580.693 8  -3658892.03824        31.250           3.656
  21890798.534   -11768482.730 6  -9170233.77122        18.250           1.594
 91  7  4  2 55 44.9990000  0  4G 3G16G17G23
  20117841.222    -3337105.938 7  -2600341.30023        24.250           2.656
  23623906.019     5987631.426 5   4665682.93121        11.500           0.375
  20123349.745    -4713328.376 8  -3672721.40624        31.250           3.719
  21880175.315   -11824317.039 6  -9213740.97322        18.000           1.781
 91  7  4  2 55 59.9990000  0  4G 3G16G17G23
  20116225.417    -3345590.727 7  -2606952.82722        24.000           2.469
  23630890.862     6024327.817 5   4694277.50621        11.250           0.406
  20119985.605    -4731001.991 8  -3686493.04724        31.000           3.656
  21869561.784   -11880070.200 6  -9257184.95722        17.500           1.563
 91  7  4  2 56 14.9990000  0  4G 3G16G17G23
  20114630.526    -3353970.875 7  -2613482.80923        24.000           2.688
  23637878.526     6061061.399 5   4722901.07121        10.250           0.375
  20116635.886    -4748606.841 8  -3700211.10524        32.000           3.813
  21858966.073   -11935747.385 6  -9300569.74522        17.500           1.594
 91  7  4  2 56 29.9990000  0  4G 3G16G17G23
  20113055.253    -3362248.191 7  -2619932.67023        24.500           2.531
  23644876.730     6097830.410 5   4751552.25021        11.000           0.406
  20113298.605    -4766144.397 8  -3713876.72724        31.000           3.813
  21848384.362   -11991350.086 6  -9343896.49522        17.500           1.531
 91  7  4  2 56 44.9990000  0  4G 3G16G17G23
  20111502.151    -3370416.242 7  -2626297.38623        24.750           2.531
  23651885.995     6134640.255 5   4780235.22121        11.000           0.406
  20109975.019    -4783609.300 8  -3727485.73724        30.500           3.813
  21837822.050   -12046872.325 6  -9387160.54322        18.500           1.531
 91  7  4  2 56 59.9990000  0  4G 3G16G17G23
  20109968.433    -3378471.551 7  -2632574.24723        24.750           2.594
  23658898.675     6171494.211 5   4808952.57521        11.000           0.344
  20106666.128    -4800998.094 8  -3741035.44524        30.750           3.844
  21827271.409   -12102310.411 6  -9430359.01522        18.250           1.531
 91  7  4  2 57 14.9990000  0  4G 3G16G17G23
  20108455.784    -3386419.782 7  -2638767.68423        24.000           2.719
  23665917.862     6208386.841 5   4837700.08321        11.250           0.281
  20103370.261    -4818316.187 8  -3754530.05324        31.000           3.938
  21816737.190   -12157669.458 6  -9473495.89622        18.250           1.563
 91  7  4  2 57 29.9990000  0  4G 3G16G17G23
  20106964.026    -3394256.546 7  -2644874.24923        24.500           2.688
  23672944.058     6245321.651 5   4866480.46721        11.000           0.406
  20100089.331    -4835559.453 8  -3767966.36324        30.750           3.969
  21806220.980   -12212945.126 6  -9516567.80922        18.750           1.625
 91  7  4  2 57 44.9990000  0  4G 3G16G17G23
  20105492.745    -3401985.208 7  -2650896.58423        24.250           2.625
  23679977.784     6282294.166 5   4895290.22421        10.500           0.313
  20096823.761    -4852731.977 8  -3781347.54824        32.000           3.938
  21795711.628   -12268141.223 6  -9559577.71722        17.750           1.594
 91  7  4  2 57 59.9990000  0  4G 3G16G17G23
  20104040.761    -3409605.132 7  -2656834.19523        24.000           2.594
  23687020.089     6319305.072 5   4924129.84021        11.000           0.313
  20093567.175    -4869832.954 8  -3794672.97524        30.750           4.063
  21785224.995   -12323256.712 6  -9602524.82022        17.750           1.688
 91  7  4  2 58 14.9990000  0  4G 3G16G17G23
  20102613.097    -3417113.989 7  -2662685.24923        24.000           2.594
  23694073.745     6356356.243 5   4953000.88721        10.750           0.344
  20090328.026    -4886860.291 8  -3807941.03424        31.500           3.938
  21774752.675   -12378289.325 6  -9645407.33822        18.250           1.656
 91  7  4  2 58 29.9990000  0  4G 3G16G17G23
  20101206.237    -3424511.710 7  -2668449.71223        23.500           2.656
  23701131.714     6393447.379 5   4981903.08121        11.000           0.375
  20087101.769    -4903814.351 8  -3821151.97824        31.500           4.000
  21764299.105   -12433238.964 6  -9688225.20522        18.750           1.656
 91  7  4  2 58 44.9990000  0  4G 3G16G17G23
  20099821.636    -3431793.744 7  -2674124.02523        24.000           2.625
  23708200.487     6430582.097 5   5010839.18521        10.750           0.469
  20083888.706    -4920690.480 8  -3834302.20524        31.000           4.031
  21753857.761   -12488100.965 6  -9730974.77722        19.000           1.688
 91  7  4  2 58 59.9990000  0  4G 3G16G17G23
  20098454.003    -3438965.482 7  -2679712.39323        23.750           2.688
  23715274.386     6467755.019 5   5039805.07821        11.000           0.594
  20080693.230    -4937494.415 8  -3847396.18024        31.500           4.000
  21743432.433   -12542880.691 6  -9773660.24622        18.750           1.656
 91  7  4  2 59 14.9990000  0  4G 3G16G17G23
  20097112.565    -3446027.072 7  -2685214.93923        25.000           2.656
  23722357.714     6504965.228 5   5068799.99821        11.250           0.594
  20077506.886    -4954226.521 8  -3860434.17824        30.000           3.969
  21733024.081   -12597578.292 6  -9816281.72022        19.250           1.719
 91  7  4  2 59 29.9980000  0  4G 3G16G17G23
  20095790.264    -3452977.547 7  -2690630.89223        24.250           2.563
  23729442.701     6542210.421 5   5097822.18121        11.250           0.500
  20074337.061    -4970885.423 8  -3873415.14224        30.250           3.938
  21722631.975   -12652189.615 6  -9858835.96222        19.500           1.719
 91  7  4  2 59 44.9980000  0  4G 3G16G17G23
  20094486.607    -3459816.608 7  -2695960.03523        23.750           2.625
  23736536.170     6579496.693 5   5126876.38621        11.500           0.531
  20071182.193    -4987471.898 8  -3886339.66024        30.500           3.906
  21712253.764   -12706720.331 6  -9901327.39322        19.500           1.688
 91  7  4  2 59 59.9980000  0  4G 3G16G17G23
  20093206.068    -3466548.062 7  -2701205.32723        24.000           2.688
  23743639.373     6616816.650 6   5155956.81221        12.000           0.531
  20068038.607    -5003989.547 8  -3899210.54924        29.750           4.031
  21701892.381   -12761171.317 7  -9943756.70322        20.000           1.688
 91  7  4  3  0 14.9980000  0  4G 3G16G17G23
  20091949.193    -3473169.276 7  -2706364.71323        24.500           2.594
  23750747.881     6654172.525 6   5185065.27721        12.000           0.563
  20064908.295    -5020436.132 8  -3912026.07024        29.250           4.000
  21691549.287   -12815540.017 7  -9986121.88322        20.250           1.781
 91  7  4  3  0 29.9980000  0  4G 3G16G17G23
  20090706.506    -3479678.785 7  -2711437.06123        23.750           2.625
  23757862.475     6691565.252 5   5214202.41621        11.750           0.500
  20061793.545    -5036810.090 8  -3924784.99524        30.000           4.000
  21681216.592   -12869824.387 7 -10028421.35322        20.000           1.813
 91  7  4  3  0 44.9980000  0  4G 3G16G17G23
  20089490.240    -3486079.753 7  -2716424.83823        23.750           2.594
  23764985.787     6728991.342 5   5243365.55721        11.250           0.563
  20058691.459    -5053115.052 8  -3937490.15124        30.000           3.938
  21670904.943   -12924027.819 7 -10070657.76122        20.250           1.875
 91  7  4  3  0 59.9980000  0  4G 3G16G17G23
  20088294.076    -3492366.481 7  -2721323.58123        24.250           2.531
  23772116.334     6766455.727 5   5272558.58021        10.750           0.469
  20055603.115    -5069345.714 8  -3950137.41824        29.750           4.000
  21660604.701   -12978144.982 6 -10112826.93922        19.750           1.875
 91  7  4  3  1 14.9980000  0  4G 3G16G17G23
  20087118.162    -3498542.748 7  -2726136.25823        23.750           2.750
  23779255.029     6803954.523 5   5301778.40321        11.250           0.406
  20052526.193    -5085505.536 8  -3962729.48424        29.500           3.906
  21650320.670   -13032179.104 7 -10154931.41122        20.250           1.906
 91  7  4  3  1 29.9980000  0  4G 3G16G17G23
  20085964.756    -3504604.782 7  -2730859.93023        24.500           2.500
  23786395.225     6841490.936 5   5331027.51421        10.250           0.406
  20049465.834    -5101591.247 8  -3975263.79724        29.500           3.781
  21640055.826   -13086126.636 7 -10196968.41522        20.500           2.000
 91  7  4  3  1 44.9980000  0  4G 3G16G17G23
  20084833.295    -3510557.052 7  -2735498.06123        24.250           2.563
  23793544.982     6879060.161 5   5360302.22621        10.000           0.344
  20046417.764    -5117607.288 8  -3987743.82324        29.250           3.781
  21629805.701   -13139991.657 7 -10238941.12622        20.750           2.094
 91  7  4  3  1 59.9980000  0  4G 3G16G17G23
  20083719.217    -3516398.088 7  -2740049.52523        23.500           2.594
  23800699.834     6916662.864 5   5389602.96821        10.500           0.406
  20043383.920    -5133552.616 8  -4000168.74624        29.000           3.750
  21619572.514   -13193772.881 7 -10280848.53722        21.500           2.031
 91  7  4  3  2 14.9980000  0  4G 3G16G17G23
  20082631.123    -3522123.040 7  -2744510.53523        23.250           2.563
  23807863.951     6954303.583 5   5418933.39721        11.000           0.375
  20040363.107    -5149422.489 8  -4012534.87924        28.750           3.781
  21609354.639   -13247465.374 7 -10322686.81622        21.250           2.063
 91  7  4  3  2 29.9980000  0  4G 3G16G17G23
  20081560.975    -3527738.116 7  -2748885.91822        23.250           2.469
  23815031.420     6991975.860 5   5448288.41121        11.250           0.469
  20037357.193    -5165223.290 8  -4024847.18824        29.000           3.781
  21599153.514   -13301075.262 7 -10364460.71522        21.500           2.094
 91  7  4  3  2 44.9980000  0  4G 3G16G17G23
  20080515.537    -3533240.403 7  -2753173.42122        24.000           2.469
  23822204.381     7029682.136 5   5477669.95721        11.250           0.344
  20034363.381    -5180952.386 8  -4037103.61724        28.500           3.781
  21588966.592   -13354599.722 7 -10406168.05822        21.250           1.969
 91  7  4  3  2 59.9980000  0  3G 3G17G23
  20079490.475    -3538630.341 7  -2757373.37923        24.250           2.563
  20031383.490    -5196610.137 8  -4049304.45924        28.250           3.844
  21578798.498   -13408039.117 7 -10447809.11022        21.000           2.000
 91  7  4  3  3 14.9980000  0  3G 3G17G23
  20078484.975    -3543906.956 7  -2761485.02823        24.250           2.625
  20028417.842    -5212195.851 8  -4061449.16724        28.250           3.750
  21568644.850   -13461392.209 7 -10489382.91122        21.250           2.156
 91  7  4  3  3 29.9980000  0  3G 3G17G23
  20077503.373    -3549068.957 7  -2765507.37222        24.500           2.406
  20025466.709    -5227708.428 8  -4073536.87824        28.500           3.781
  21558510.982   -13514657.646 7 -10530888.40922        21.250           2.125
 91  7  4  3  3 44.9980000  0  3G 3G17G23
  20076545.076    -3554116.842 7  -2769440.79223        24.750           2.500
  20022527.732    -5243148.580 8  -4085568.15924        28.500           3.750
  21548389.865   -13567836.044 7 -10572326.08922        21.000           2.031
 91  7  4  3  3 59.9980000  0  3G 3G17G23
  20075605.928    -3559047.803 7  -2773283.11422        24.250           2.438
  20019604.795    -5258514.097 8  -4097541.28424        29.000           3.688
  21538286.576   -13620924.732 7 -10613693.86522        21.000           2.063
 91  7  4  3  4 14.9980000  0  3G 3G17G23
  20074688.053    -3563866.850 7  -2777038.22023        25.000           2.500
  20016693.147    -5273809.888 8  -4109460.07924        28.250           3.688
  21528201.639   -13673928.509 7 -10654995.47522        21.250           2.094
 91  7  4  3  4 29.9980000  0  3G 3G17G23
  20073790.943    -3568574.052 7  -2780706.17223        24.250           2.563
  20013796.350    -5289036.001 8  -4121324.57624        28.500           3.563
  21518131.162   -13726847.360 7 -10696230.90922        21.500           1.938
 91  7  4  3  4 44.9980000  0  3G 3G17G23
  20072917.732    -3573168.960 7  -2784286.62523        23.250           2.500
  20010911.092    -5304192.282 8  -4133134.65924        28.500           3.500
  21508076.107   -13779680.666 7 -10737399.69122        21.750           2.000
 91  7  4  3  4 59.9980000  0  3G 3G17G23
  20072066.506    -3577646.859 7  -2787775.90322        24.250           2.469
  20008041.850    -5319274.182 8  -4144886.78124        28.750           3.563
  21498040.998   -13832423.685 7 -10778498.12222        21.750           2.125
 91  7  4  3  5 14.9980000  0  3G 3G17G23
  20071235.186    -3582009.334 7  -2791175.24222        23.250           2.344
  20005185.412    -5334283.760 8  -4156582.55124        29.000           3.531
  21488022.061   -13885078.234 7 -10819527.60422        22.000           2.000
 91  7  4  3  5 29.9980000  0  3G 3G17G23
  20070428.795    -3586257.374 7  -2794485.40922        23.500           2.375
  20002342.795    -5349221.589 8  -4168222.41023        29.250           3.438
  21478016.475   -13937644.746 7 -10860488.49322        21.500           2.094
 91  7  4  3  5 44.9980000  0  3G 3G17G23
  20069640.389    -3590391.100 7  -2797706.50322        23.000           2.344
  19999514.811    -5364088.416 8  -4179806.94823        29.500           3.406
  21468031.662   -13990123.745 7 -10901381.18622        21.250           2.000
 91  7  4  3  5 59.9980000  0  3G 3G17G23
  20068874.615    -3594413.566 7  -2800840.89723        23.500           2.500
  19996697.373    -5378887.379 8  -4191338.59923        29.000           3.250
  21458060.404   -14042518.162 7 -10942207.97522        20.750           2.000
 91  7  4  3  6 14.9980000  0  3G 3G17G23
  20068131.732    -3598318.619 7  -2803883.79722        24.000           2.281
  19993894.936    -5393612.480 8  -4202812.69423        28.750           3.344
  21448107.334   -14094821.775 7 -10982964.00422        20.750           2.031
 91  7  4  3  6 29.9980000  0  3G 3G17G23
  20067410.811    -3602110.778 7  -2806838.74222        23.500           2.281
  19991106.764    -5408268.305 8  -4214232.81723        29.250           3.313
  21438171.623   -14147038.857 7 -11023652.61122        20.750           2.063
 91  7  4  3  6 44.9980000  0  3G 3G17G23
  20066709.451    -3605790.055 7  -2809705.72322        23.000           2.344
  19988330.178    -5422855.026 8  -4225599.08423        28.750           3.250
  21428250.232   -14199169.339 7 -11064273.73522        21.250           1.875
 91  7  4  3  6 59.9980000  0  3G 3G17G23
  20066032.068    -3609353.964 7  -2812482.79922        23.750           2.344
  19985568.787    -5437370.593 8  -4236909.91123        28.750           3.219
  21418346.912   -14251210.962 7 -11104825.61922        21.000           1.969
 91  7  4  3  7 14.9980000  0  3G 3G17G23
  20065376.615    -3612800.956 7  -2815168.76922        24.000           2.250
  19982820.436    -5451813.638 8  -4248164.22723        28.750           3.188
  21408460.889   -14303161.877 7 -11145306.82822        20.250           1.938
 91  7  4  3  7 29.9980000  0  3G 3G17G23
  20064743.037    -3616129.111 7  -2817762.14422        23.750           2.250
  19980086.647    -5466182.566 8  -4259360.79423        29.250           3.281
  21398593.147   -14355020.447 7 -11185716.07222        20.000           1.906
 91  7  4  3  7 44.9980000  0  3G 3G17G23
  20064131.178    -3619341.518 7  -2820265.32522        23.500           2.219
  19977366.154    -5480480.376 8  -4270501.93523        29.250           3.094
  21388743.920   -14406789.458 7 -11226055.53122        20.500           1.906
 91  7  4  3  7 59.9980000  0  3G 3G17G23
  20063542.623    -3622437.905 7  -2822678.09622        23.000           2.219
  19974657.756    -5494706.581 8  -4281587.28323        29.500           3.219
  21378907.912   -14458468.359 7 -11266324.77022        20.750           2.000
 91  7  4  3  8 14.9980000  0  3G 3G17G23
  20062973.975    -3625415.885 7  -2824998.60622        22.250           2.219
  19971965.397    -5508859.721 8  -4292615.70023        30.000           3.188
  21369091.084   -14510055.142 7 -11306522.22822        20.500           1.906
 91  7  4  3  8 29.9980000  0  3G 3G17G23
  20062430.045    -3628280.595 7  -2827230.85422        22.750           2.313
  19969285.365    -5522944.506 8  -4303590.85523        30.250           3.188
  21359289.443   -14561554.539 7 -11346651.60122        20.000           1.906
 91  7  4  3  8 44.9980000  0  3G 3G17G23
  20061906.818    -3631027.456 7  -2829371.27222        22.750           2.219
  19966618.318    -5536956.731 8  -4314509.46823        30.000           3.125
  21349506.842   -14612962.090 7 -11386709.40822        20.000           1.938
 91  7  4  3  8 59.9980000  0  3G 3G17G23
  20061407.022    -3633658.207 7  -2831421.21622        22.750           2.156
  19963964.779    -5550898.199 8  -4325372.94923        29.750           3.250
  21339742.217   -14664279.547 7 -11426697.01622        21.500           2.063
 91  7  4  3  9 14.9980000  0  3G 3G17G23
  20060927.904    -3636172.047 7  -2833380.06122        23.000           2.250
  19961326.170    -5564768.713 8  -4336181.14323        29.250           3.156
  21329996.951   -14715505.984 7 -11466613.68622        22.000           2.031
 91  7  4  3  9 29.9980000  0  3G 3G17G23
  20060472.897    -3638566.798 7  -2835246.10522        23.500           2.219
  19958699.553    -5578566.001 8  -4346932.27123        28.750           3.188
  21320264.350   -14766639.311 7 -11506457.81522        22.000           2.000
 91  7  4  3  9 44.9980000  0  3G 3G17G23
  20060038.920    -3640847.061 7  -2837022.93922        23.250           2.219
  19956087.592    -5592294.648 8  -4357629.91323        28.750           3.094
  21310551.154   -14817683.842 7 -11546232.74522        22.000           1.969
 91  7  4  3  9 59.9980000  0  3G 3G17G23
  20059627.498    -3643011.151 7  -2838709.23822        22.750           2.188
  19953488.100    -5605952.986 8  -4368272.77023        29.000           3.031
  21300854.920   -14868637.662 7 -11585936.99522        22.000           2.094
 91  7  4  3 10 14.9980000  0  3G 3G17G23
  20059237.342    -3645060.008 7  -2840305.76122        23.250           2.125
  19950903.061    -5619542.737 8  -4378862.17523        29.000           3.125
  21291174.482   -14919502.087 7 -11625571.58022        21.500           1.938
 91  7  4  3 10 29.9980000  0  3G 3G17G23
  20058870.061    -3646992.246 7  -2841811.40822        23.250           2.094
  19948330.170    -5633062.192 8  -4389396.81523        29.000           3.031
  21281514.936   -14970275.663 7 -11665135.37822        21.750           2.031
 91  7  4  3 10 44.9980000  0  3G 3G17G23
  20058524.576    -3648806.322 7  -2843224.97622        24.000           2.094
  19945771.381    -5646510.040 8  -4399875.66023        29.250           3.125
  21271869.162   -15020956.660 7 -11704627.02922        21.750           1.906
 91  7  4  3 10 59.9980000  0  3G 3G17G23
  20058201.342    -3650501.284 7  -2844545.72622        23.750           2.156
  19943225.350    -5659885.438 8  -4410298.04023        29.250           3.063
  21262242.865   -15071543.986 7 -11744045.70122        21.750           1.938
 91  7  4  3 11 14.9980000  0  3G 3G17G23
  20057902.943    -3652077.476 7  -2845773.93822        24.250           2.063
  19940693.225    -5673189.190 8  -4420664.60023        28.250           3.031
  21252634.561   -15122038.220 7 -11783391.83022        22.250           1.906
 91  7  4  3 11 29.9980000  0  3G 3G17G23
  20057624.717    -3653536.046 7  -2846910.48222        24.000           2.031
  19938176.662    -5686422.347 8  -4430976.13923        28.500           3.031
  21243043.334   -15172439.952 7 -11822665.88022        22.000           1.906
 91  7  4  3 11 44.9980000  0  3G 3G17G23
  20057369.131    -3654874.131 7  -2847953.14922        24.000           2.031
  19935671.022    -5699582.727 8  -4441230.97923        28.500           3.031
  21233469.178   -15222746.865 7 -11861866.04522        21.750           1.938
 91  7  4  3 11 59.9980000  0  3G 3G17G23
  20057139.756    -3656093.802 7  -2848903.54322        23.750           1.938
  19933181.654    -5712671.668 8  -4451430.14723        28.750           3.125
  21223915.076   -15272960.208 7 -11900993.29822        22.500           1.938
 91  7  4  3 12 14.9980000  0  3G 3G17G23
  20056927.779    -3657190.289 7  -2849757.95722        23.250           2.000
  19930704.709    -5725685.237 8  -4461570.58523        28.750           3.156
  21214378.287   -15323075.793 7 -11940044.37522        22.250           1.938
 91  7  4  3 12 29.9980000  0  3G 3G17G23
  20056742.545    -3658169.297 7  -2850520.81522        23.750           1.938
  19928241.225    -5738628.950 8  -4471656.59823        29.000           3.219
  21204859.217   -15373099.097 7 -11979023.54922        22.250           2.063
 91  7  4  3 12 44.9980000  0  3G 3G17G23
  20056578.420    -3659027.295 7  -2851189.38922        23.750           1.969
  19925791.787    -5751499.534 8  -4481685.61723        28.750           3.281
  21195357.732   -15423026.545 7 -12017928.03322        22.000           2.125
 91  7  4  3 12 59.9980000  0  3G 3G17G23
  20056441.318    -3659766.619 7  -2851765.48722        24.750           2.000
  19923355.803    -5764299.469 8  -4491659.58823        28.250           3.156
  21185876.451   -15472860.378 7 -12056759.56022        21.750           2.219
 91  7  4  3 13 14.9980000  0  3G 3G17G23
  20056320.647    -3660386.495 7  -2852248.50922        25.000           2.063
  19920934.342    -5777028.140 8  -4501578.02323        28.000           3.219
  21176409.975   -15522599.899 7 -12095517.59722        21.500           2.188
 91  7  4  3 13 29.9980000  0  3G 3G17G23
  20056226.701    -3660883.674 7  -2852635.92822        24.500           1.969
  19918526.920    -5789682.620 8  -4511438.66223        28.750           3.313
  21166964.436   -15572241.671 7 -12134199.47122        21.000           2.281
 91  7  4  3 13 44.9980000  0  3G 3G17G23
  20056156.092    -3661261.870 7  -2852930.62522        25.250           1.969
  19916131.654    -5802266.495 8  -4521244.27123        28.500           3.250
  21157534.818   -15621789.324 7 -12172807.99922        20.250           2.375
 91  7  4  3 13 59.9980000  0  3G 3G17G23
  20056103.818    -3661521.230 7  -2853132.73122        25.250           2.031
  19913749.412    -5814780.221 7  -4530995.22223        27.500           3.250
  21148125.928   -15671243.134 7 -12211343.40522        20.500           2.344
 91  7  4  3 14 14.9980000  0  3G 3G17G23
  20056079.842    -3661660.294 7                        25.500
  19911382.975    -5827222.387 8  -4540690.42223        28.000           3.344
  21138731.412   -15720601.182 7 -12249804.18622        20.000           2.469
 91  7  4  3 14 29.9980000  0  3G 3G17G23
  20056076.842    -3661681.064 7                        26.000
  19909028.279    -5839595.161 7  -4550331.54123        27.750           3.344
  21129357.264   -15769865.602 6 -12288192.01522        19.750           2.469
 91  7  4  3 14 44.9980000  0  3G 3G17G23
  20056094.982    -3661578.191 7                        26.000
  19906688.357    -5851893.229 7  -4559914.44923        27.250           3.219
  21120000.873   -15819031.062 7 -12326502.73822        20.000           2.406
 91  7  4  3 14 59.9980000  0  3G 3G17G23
  20056136.522    -3661357.053 7                        26.000
  19904361.928    -5864122.503 7  -4569443.75623        27.250           3.281
  21110662.303   -15868102.961 7 -12364740.55322        20.750           2.406
 91  7  4  3 15 14.9980000  0  3G 3G17G23
  20056200.459    -3661013.057 7                        26.000
  19902046.764    -5876278.130 7  -4578915.66623        26.750           3.344
  21101343.256   -15917076.278 7 -12402901.54522        20.500           2.438
 91  7  4  3 15 29.9980000  0  3G 3G17G23
  20056291.795    -3660555.589 7  -2852380.30822        26.500           2.000
  19899747.170    -5888369.889 7  -4588337.81023        27.250           3.313
  21092040.537   -15965960.868 6 -12440993.40422        19.750           2.469
 91  7  4  3 15 44.9980000  0  3G 3G17G23
  20056400.709    -3659974.492 7  -2851927.50822        26.000           1.938
  19897459.522    -5900387.687 7  -4597702.32623        27.000           3.219
  21082756.607   -16014746.160 6 -12479007.89122        19.750           2.438
 91  7  4  3 15 59.9980000  0  3G 3G17G23
  20056532.225    -3659274.678 7  -2851382.20422        26.000           1.906
  19895185.912    -5912336.455 7  -4607013.05423        27.250           3.250
  21073490.623   -16063436.967 7 -12516948.75522        20.500           2.375
 91  7  4  3 16 14.9980000  0  3G 3G17G23
  20056688.389    -3658453.233 7  -2850742.12522        25.750           2.000
  19892924.936    -5924213.804 7  -4616268.13123        27.000           3.375
  21064244.381   -16112030.729 7 -12554813.99822        20.500           2.344
 91  7  4  3 16 29.9980000  0  3G 3G17G23
  20056867.975    -3657509.834 7  -2850007.01422        25.250           2.031
  19890678.584    -5936019.216 7  -4625467.15023        27.500           3.344
  21055018.295   -16160526.673 7 -12592603.01922        21.000           2.344
 91  7  4  3 16 44.9980000  0  3G 3G17G23
  20057071.561    -3656441.708 7  -2849174.71322        25.000           1.969
  19888445.857    -5947750.136 7  -4634608.12523        27.750           3.313
  21045806.920   -16208922.182 7 -12630313.78522        21.000           2.281
 91  7  4  3 16 59.9980000  0  3G 3G17G23
  20057295.631    -3655253.691 7  -2848248.99622        24.500           1.875
  19886227.428    -5959411.542 8  -4643694.93723        28.250           3.406
  21036616.717   -16257222.012 7 -12667949.99022        21.250           2.344
 91  7  4  3 17 14.9980000  0  3G 3G17G23
  20057546.318    -3653947.075 7  -2847230.85922        25.250           1.969
  19884021.459    -5971004.597 8  -4652728.48923        28.000           3.375
  21027444.420   -16305427.038 7 -12705512.32623        21.250           2.500
 91  7  4  3 17 29.9980000  0  3G 3G17G23
  20057817.811    -3652520.863 7  -2846119.53022        25.000           2.031
  19881828.795    -5982528.727 8  -4661708.33223        28.500           3.375
  21018289.412   -16353536.572 7 -12743000.24923        21.000           2.500
 91  7  4  3 17 44.9980000  0  3G 3G17G23
  20058111.107    -3650974.653 7  -2844914.70022        24.750           1.906
  19879649.248    -5993983.681 8  -4670634.27424        29.000           3.500
  21009149.154   -16401550.065 7 -12780413.33822        20.750           2.375
 91  7  4  3 17 59.9980000  0  3G 3G17G23
  20058429.428    -3649309.595 7  -2843617.26322        25.500           2.094
  19877482.920    -6005370.390 8  -4679507.03724        29.250           3.563
  21000029.764   -16449468.645 7 -12817752.47022        20.750           2.406
 91  7  4  3 18 14.9980000  0  3G 3G17G23
  20058770.686    -3647520.644 7  -2842223.28722        26.000           2.031
  19875328.725    -6016684.365 8  -4688323.11924        28.750           3.625
  20990932.022   -16497287.092 7 -12855013.58122        21.000           2.375
 91  7  4  3 18 29.9980000  0  3G 3G17G23
  20059132.092    -3645610.696 7  -2840735.02422        26.000           2.031
  19873188.123    -6027928.444 8  -4697084.74424        28.250           3.594
  20981849.467   -16545008.397 7 -12892198.99222        20.750           2.406
 91  7  4  3 18 44.9980000  0  3G 3G17G23
  20059518.123    -3643581.633 7  -2839153.94122        26.000           2.063
  19871062.647    -6039104.757 8  -4705793.56824        28.500           3.563
  20972789.748   -16592634.486 7 -12929310.21423        21.250           2.500
 91  7  4  3 18 59.9980000  0  3G 3G17G23
  20059929.826    -3641426.356 7  -2837474.50922        26.000           2.063
  19868949.053    -6050206.411 8  -4714444.21124        28.750           3.625
  20963745.779   -16640158.020 7 -12966341.51423        21.500           2.531
 91  7  4  3 19 14.9980000  0  3G 3G17G23
  20060362.201    -3639146.067 7  -2835697.67222        26.000           1.938
  19866850.467    -6061234.306 8  -4723037.37624        28.750           3.500
  20954722.943   -16687579.826 7 -13003293.54723        21.500           2.500
 91  7  4  3 19 29.9980000  0  3G 3G17G23
  20060820.928    -3636744.402 7  -2833826.25322        25.500           2.031
  19864767.256    -6072192.505 8  -4731576.23924        30.000           3.531
  20945714.482   -16734903.993 7 -13040169.50823        21.000           2.625
 91  7  4  3 19 44.9980000  0  3G 3G17G23
  20061300.818    -3634219.594 7  -2831858.88022        25.500           2.063
  19862694.928    -6083079.239 8  -4740059.41224        29.500           3.625
  20936729.490   -16782128.362 7 -13076967.70323        21.500           2.656
 91  7  4  3 19 59.9980000  0  3G 3G17G23
  20061804.006    -3631573.177 7  -2829796.74422        25.500           2.063
  19860635.482    -6093896.084 8  -4748488.13124        29.250           3.563
  20927761.240   -16829254.524 7 -13113689.37123        21.750           2.750
 91  7  4  3 20 14.9980000  0  3G 3G17G23
  20062330.709    -3628806.462 7  -2827640.87622        26.250           2.125
  19858590.248    -6104644.782 8  -4756863.74523        29.000           3.469
  20918812.529   -16876283.722 7 -13150335.47623        21.500           2.844
 91  7  4  3 20 29.9980000  0  3G 3G17G23
  20062881.279    -3625919.751 7  -2825391.49422        26.250           2.000
  19856558.029    -6115326.002 8  -4765186.78023        29.000           3.438
  20909880.943   -16923216.306 7 -13186906.30623        21.500           2.750
 91  7  4  3 20 44.9980000  0  3G 3G17G23
  20063453.842    -3622903.171 7  -2823040.92422        26.250           2.125
  19854540.279    -6125929.247 8  -4773449.04723        28.500           3.469
  20900969.826   -16970042.086 7 -13223393.91023        21.500           2.719
 91  7  4  3 20 59.9980000  0  3G 3G17G23
  20064052.748    -3619760.752 7  -2820592.29722        26.250           2.063
  19852535.272    -6136458.971 8  -4781654.03124        28.500           3.594
  20892080.639   -17016765.347 7 -13259801.62623        21.750           2.844
 91  7  4  3 21 14.9980000  0  3G 3G17G23
  20064674.248    -3616493.755 7  -2818046.58922        25.500           2.156
  19850546.834    -6146916.556 8  -4789802.80724        29.250           3.500
  20883207.014   -17063387.058 7 -13296130.21323        21.750           2.844
 91  7  4  3 21 29.9980000  0  3G 3G17G23
  20065318.811    -3613105.292 7  -2815406.23722        25.500           2.125
  19848569.412    -6157305.304 8  -4797897.93524        29.250           3.656
  20874354.576   -17109910.308 7 -13332382.08223        21.750           2.938
 91  7  4  3 21 44.9980000  0  3G 3G17G23
  20065986.748    -3609592.643 7  -2812669.12222        25.750           2.156
  19846605.811    -6167622.664 8  -4805937.43924        28.750           3.719
  20865520.037   -17156332.246 7 -13368555.00223        21.500           2.969
 91  7  4  3 21 59.9980000  0  3G 3G17G23
  20066679.264    -3605951.977 7  -2809832.24422        25.500           2.063
  19844656.232    -6177864.766 8  -4813918.30424        28.750           3.719
  20856707.592   -17202648.950 7 -13404645.91723        21.750           3.000
 91  7  4  3 22 14.9980000  0  3G 3G17G23
  20067396.639    -3602188.048 7  -2806899.32022        25.250           2.125
  19842721.482    -6188036.615 8  -4821844.42624        29.250           3.656
  20847912.982   -17248865.380 7 -13440658.70023        22.250           3.063
 91  7  4  3 22 29.9980000  0  3G 3G17G23
  20068134.834    -3598303.027 7  -2803872.03922        25.000           2.094
  19840799.295    -6198140.298 8  -4829717.42624        29.500           3.625
  20839136.287   -17294983.483 7 -13476594.86423        22.250           3.063
 91  7  4  3 22 44.9980000  0  3G 3G17G23
  20068897.084    -3594297.366 7  -2800750.76022        25.000           2.094
  19838887.818    -6208176.557 8  -4837537.88524        29.000           3.594
  20830378.803   -17341003.624 7 -13512454.69323        22.250           3.063
 91  7  4  3 22 59.9980000  0  3G 3G17G23
  20069682.842    -3590169.250 7  -2797534.05322        24.500           2.094
  19836992.803    -6218143.603 8  -4845304.42324        29.000           3.531
  20821640.951   -17386924.054 7 -13548236.82623        22.750           3.219
 91  7  4  3 23 14.9980000  0  3G 3G17G23
  20070491.170    -3585916.778 7  -2794220.43822        24.500           2.094
  19835109.522    -6228039.804 8  -4853015.74523        29.000           3.469
  20812921.053   -17432742.582 7 -13583939.54723        22.750           3.156
 91  7  4  3 23 29.9980000  0  3G 3G17G23
  20071325.342    -3581540.922 7  -2790810.69722        24.750           2.094
  19833237.959    -6237866.075 8  -4860672.57524        28.500           3.531
  20804221.897   -17478460.038 7 -13619563.51923        23.250           3.156
 91  7  4  3 23 44.9980000  0  3G 3G17G23
  20072180.826    -3577043.938 7  -2787306.56322        24.750           2.125
  19831381.482    -6247624.872 8  -4868276.83823        28.250           3.469
  20795539.272   -17524079.032 7 -13655110.76123        23.250           3.188
 91  7  4  3 23 59.9980000  0  3G 3G17G23
  20073061.482    -3572419.354 7  -2783702.99522        25.000           2.063
  19829539.865    -6257309.636 8  -4875823.40823        28.750           3.438
  20786879.365   -17569592.749 7 -13690575.97423        23.250           3.219
 91  7  4  3 24 14.9980000  0  3G 3G17G23
  20073965.186    -3567670.091 7  -2780002.27922        25.000           2.156
  19827710.357    -6266923.400 8  -4883314.64724        28.500           3.531
  20778238.568   -17615004.154 7 -13725961.46623        23.750           3.250
 91  7  4  3 24 29.9980000  0  3G 3G17G23
  20074892.045    -3562797.241 7  -2776205.25922        24.500           2.250
  19825893.850    -6276467.452 8  -4890751.56924        28.250           3.500
  20769616.451   -17660313.999 7 -13761267.81823        23.750           3.281
 91  7  4  3 24 44.9980000  0  3G 3G17G23
  20075842.514    -3557799.922 7  -2772311.24722        24.500           2.125
  19824091.295    -6285940.866 8  -4898133.45624        28.250           3.500
  20761013.576   -17705521.485 7 -13796494.40623        24.000           3.281
 91  7  4  3 24 59.9980000  0  3G 3G17G23
  20076817.982    -3552676.557 7  -2768319.02222        24.250           2.156
  19822302.701    -6295342.556 8  -4905459.45023        28.250           3.469
  20752429.701   -17750625.009 7 -13831639.98523        24.000           3.156
 91  7  4  3 25 14.9980000  0  3G 3G17G23
  20077815.311    -3547432.677 7  -2764232.88922        23.750           2.156
  19820526.662    -6304678.064 8  -4912733.87124        28.500           3.531
  20743865.029   -17795630.170 7 -13866708.92323        24.500           3.281
 91  7  4  3 25 29.9980000  0  3G 3G17G23
  20078838.061    -3542065.436 7  -2760050.62922        24.250           2.281
  19818760.857    -6313944.365 7  -4919954.36424        27.000           3.531
  20735319.740   -17840533.743 7 -13901698.70123        24.750           3.219
 91  7  4  3 25 44.9980000  0  3G 3G17G23
  20079884.061    -3536571.771 7  -2755769.85922        24.500           2.250
  19817012.467    -6323138.614 7  -4927118.71524        27.250           3.594
  20726796.131   -17885332.880 7 -13936607.09723        24.750           3.219
 91  7  4  3 25 59.9980000  0  3G 3G17G23
  20080952.100    -3530953.021 7  -2751391.61522        24.500           2.313
  19815277.186    -6332262.334 7  -4934228.11124        27.250           3.563
  20718289.803   -17930029.016 7 -13971435.23023        24.500           3.250
 91  7  4  3 26 14.9980000  0  3G 3G17G23
  20082043.303    -3525210.580 7  -2746916.99422        23.250           2.313
  19813554.061    -6341317.012 7  -4941283.69924        26.750           3.500
  20709803.693   -17974623.206 7 -14006183.93023        25.250           3.219
 91  7  4  3 26 29.9980000  0  3G 3G17G23
  20083160.217    -3519343.957 7  -2742345.59722        23.000           2.344
  19811842.639    -6350302.239 7  -4948285.17824        26.000           3.625
  20701338.045   -18019114.927 7 -14040852.78423        25.750           3.313
 91  7  4  3 26 44.9980000  0  3G 3G17G23
  20084300.357    -3513353.759 7  -2737677.92322        23.250           2.281
  19810147.654    -6359218.615 7  -4955233.01024        26.250           3.625
  20692891.568   -18063504.837 7 -14075442.29923        25.750           3.375
 91  7  4  3 26 59.9980000  0  3G 3G17G23
  20085464.256    -3507237.755 7  -2732912.21422        22.750           2.250
  19808464.201    -6368064.128 7  -4962125.61724        26.000           3.625
  20684462.709   -18107790.388 7 -14109950.50023        26.000           3.344
 91  7  4  3 27 14.9980000  0  3G 3G17G23
  20086652.272    -3500997.239 7  -2728049.48122        23.000           2.313
  19806792.748    -6376840.087 7  -4968964.02524        26.000           3.531
  20676056.943   -18151972.657 7 -14144378.21623        26.250           3.281
 91  7  4  3 27 29.9980000  0  3G 3G17G23
  20087863.045    -3494634.458 7  -2723091.47722        23.000           2.188
  19805135.662    -6385548.715 7  -4975749.96324        26.500           3.531
  20667665.756   -18196054.322 7 -14178727.53923        26.000           3.375
 91  7  4  3 27 44.9980000  0  3G 3G17G23
  20089097.037    -3488142.932 7  -2718033.14822        22.750           2.313
  19803493.576    -6394183.634 7  -4982478.47324        26.500           3.594
  20659298.920   -18240028.535 7 -14212993.14323        26.750           3.219
 91  7  4  3 27 59.9980000  0  3G 3G17G23
  20090356.443    -3481527.410 7  -2712878.21122        22.500           2.281
  19801862.662    -6402749.748 7  -4989153.36524        26.250           3.594
  20650951.170   -18283900.166 7 -14247178.80323        27.500           3.125
 91  7  4  3 28 14.9980000  0  3G 3G17G23
  20091640.006    -3474788.713 7  -2707627.28222        22.500           2.219
  19800246.522    -6411247.850 7  -4995775.26424        26.250           3.688
  20642620.912   -18327669.713 7 -14281284.92323        27.000           3.000
 91  7  4  3 28 29.9980000  0  3G 3G17G23
  20092943.607    -3467923.167 7  -2702277.52022        21.750           2.188
  19798642.889    -6419674.419 7  -5002341.42524        26.000           3.719
  20634312.717   -18371333.474 7 -14315308.61323        27.250           2.906
 91  7  4  3 28 44.9980000  0  3G 3G17G23
  20094275.482    -3460931.988 7  -2696829.85422        22.000           2.188
  19797052.232    -6428030.900 7  -5008852.96624        25.500           3.656
  20626023.139   -18414892.719 8 -14349250.85823        28.000           2.875
 91  7  4  3 28 59.9980000  0  3G 3G17G23
  20095631.998    -3453814.489 7  -2691283.75722        22.750           2.156
  19795476.006    -6436316.592 7  -5015309.34624        24.750           3.656
  20617756.561   -18458346.426 8 -14383110.86423        28.250           2.781
 91  7  4  3 29 14.9980000  0  3G 3G17G23
  20097007.912    -3446572.981 7  -2685641.03222        22.750           2.125
  19793911.350    -6444533.772 7  -5021712.34224        25.250           3.719
  20609504.654   -18501696.953 7 -14416890.46723        27.750           2.813
 91  7  4  3 29 29.9980000  0  3G 3G17G23
  20098410.647    -3439204.305 7  -2679899.21222        23.500           2.063
  19792361.357    -6452679.584 7  -5028059.72624        25.000           3.844
  20601276.162   -18544941.279 7 -14450587.32823        27.500           2.750
 91  7  4  3 29 44.9980000  0  3G 3G17G23
  20099836.764    -3431711.364 7  -2674060.55822        23.750           2.000
  19790823.334    -6460756.898 7  -5034353.73324        24.750           3.938
  20593066.662   -18588082.095 7 -14484203.52923        27.750           2.750
 91  7  4  3 29 59.9980000  0  3G 3G17G23
  20101285.990    -3424094.260 7  -2668125.15222        22.750           2.000
  19789301.881    -6468765.882 7  -5040594.49624        25.000           3.938
  20584876.756   -18631119.630 8 -14517739.25423        28.250           2.750
 91  7  4  3 30 14.9980000  0  3G 3G17G23
  20102760.342    -3416350.427 7  -2662091.00722        23.250           1.969
  19787790.467    -6476704.071 7  -5046780.09624        25.250           3.813
  20576706.303   -18674051.150 7 -14551192.36523        27.750           2.781
 91  7  4  3 30 29.9970000  0  3G 3G17G23
  20104258.954    -3408476.552 7  -2655955.52122        23.750           1.938
  19786292.118    -6484567.061 7  -5052907.09724        24.500           3.844
  20568559.165   -18716869.711 7 -14584557.45523        27.750           2.781
 91  7  4  3 30 44.9970000  0  3G 3G17G23
  20105779.509    -3400476.816 7  -2649721.96922        23.500           2.000
  19784810.040    -6492361.402 7  -5058980.60724        24.750           3.844
  20560430.649   -18759586.490 7 -14617843.23423        27.250           2.688
 91  7  4  3 30 59.9970000  0  3G 3G17G23
  20107327.579    -3392349.953 7  -2643389.35622        24.000           2.000
  19783339.985    -6500084.886 7  -5064998.90624        25.250           3.813
  20552321.970   -18802196.547 7 -14651045.85423        26.500           2.688
 91  7  4  3 31 14.9970000  0  3G 3G17G23
  20108898.392    -3384094.666 7  -2636956.67422        24.500           1.969
  19781884.353    -6507735.898 7  -5070960.72424        25.250           3.844
  20544234.142   -18844698.379 7 -14684164.13523        26.000           2.813
 91  7  4  3 31 29.9970000  0  3G 3G17G23
  20110493.931    -3375711.396 7  -2630424.25422        24.500           2.094
  19780443.063    -6515315.314 7  -5076866.75824        25.500           3.719
  20536165.618   -18887092.750 7 -14717198.68423        26.000           2.781
 91  7  4  3 31 44.9970000  0  3G 3G17G23
  20112112.571    -3367202.969 7  -2623794.31422        24.000           2.031
  19779012.149    -6522825.675 7  -5082718.98524        25.250           3.844
  20528120.478   -18929381.943 7 -14750151.28623        26.500           2.906
 91  7  4  3 31 59.9970000  0  3G 3G17G23
  20113754.587    -3358566.118 7  -2617064.31322        23.250           1.969
  19777597.423    -6530263.794 7  -5088514.91624        25.500           3.844
  20520092.884   -18971562.740 7 -14783019.41523        27.000           2.844
 91  7  4  3 32 14.9970000  0  3G 3G17G23
  20115425.157    -3349803.580 7  -2610236.36522        24.500           2.000
  19776194.970    -6537632.963 7  -5094257.12624        25.500           3.844
  20512085.626   -19013637.912 7 -14815805.24123        26.250           2.750
 91  7  4  3 32 29.9970000  0  3G 3G17G23
  20117114.001    -3340913.952 7  -2603309.38822        23.750           1.906
  19774806.251    -6544931.541 7  -5099944.31524        25.750           3.875
  20504098.626   -19055606.037 7 -14848507.65923        26.000           2.719
 91  7  4  3 32 44.9970000  0  3G 3G17G23
  20118831.603    -3331897.471 7  -2596283.56222        23.750           1.969
  19773431.196    -6552159.874 7  -5105576.77724        26.000           3.750
  20496134.415   -19097467.193 7 -14881126.72023        25.750           2.750
 91  7  4  3 32 59.9970000  0  3G 3G17G23
  20120570.876    -3322751.730 7  -2589157.02122        24.500           1.906
  19772069.712    -6559315.568 7  -5111152.63724        26.250           3.906
  20488187.556   -19139218.882 7 -14913660.48123        24.750           2.625
 91  7  4  3 33 14.9970000  0  3G 3G17G23
  20122336.204    -3313481.655 7  -2581933.58622        24.500           1.938
  19770720.993    -6566403.659 7  -5116675.82424        27.000           3.875
  20480263.790   -19180866.261 7 -14946112.96723        24.500           2.781
 91  7  4  3 33 29.9970000  0  3G 3G17G23
  20124125.368    -3304080.050 7  -2574607.66622        24.500           1.938
  19769385.673    -6573416.577 7  -5122140.43424        26.500           3.938
  20472359.978   -19222401.708 7 -14978478.22123        24.250           2.906
 91  7  4  3 33 44.9970000  0  3G 3G17G23
  20125935.165    -3294555.961 7  -2567186.30822        24.250           1.875
  19768063.384    -6580363.849 7  -5127553.89524        27.250           3.906
  20464473.938   -19263834.180 7 -15010763.23823        23.500           2.781
 91  7  4  3 33 59.9970000  0  3G 3G17G23
  20127775.165    -3284901.964 7  -2559663.71922        25.250           1.906
  19766755.462    -6587238.319 7  -5132910.61524        26.750           3.969
  20456611.032   -19305156.175 7 -15042962.17523        24.000           2.906
 91  7  4  3 34 14.9970000  0  3G 3G17G23
  20129635.438    -3275120.895 7  -2552042.11422        25.750           1.969
  19765460.798    -6594042.622 7  -5138212.65624        26.750           3.813
  20448769.017   -19346370.601 7 -15075077.28223        24.000           2.938
 91  7  4  3 34 29.9970000  0  3G 3G17G23
  20131521.017    -3265210.857 7  -2544320.02122        25.500           1.906
  19764180.243    -6600774.949 7  -5143458.62724        27.000           3.844
  20440945.571   -19387475.484 7 -15107107.04423        23.500           2.938
 91  7  4  3 34 44.9970000  0  3G 3G17G23
  20133430.462    -3255173.500 7  -2536498.70222        25.750           1.906
  19762912.017    -6607437.046 7  -5148649.86824        26.500           3.906
  20433146.040   -19428472.350 7 -15139052.63623        23.500           2.813
 91  7  4  3 34 59.9970000  0  3G 3G17G23
  20135363.829    -3245008.108 7  -2528577.62222        25.000           1.813
  19761658.720    -6614028.003 7  -5153785.67824        26.500           3.844
  20425365.228   -19469360.302 7 -15170913.35823        24.250           2.969
 91  7  4  3 35 14.9970000  0  3G 3G17G23
  20137324.712    -3234717.739 7  -2520559.16122        26.000           1.750
  19760417.313    -6620550.906 7  -5158868.45224        26.750           3.844
  20417604.806   -19510142.478 7 -15202691.65523        23.500           3.094
 91  7  4  3 35 29.9970000  0  3G 3G17G23
  20139305.040    -3224300.333 7  -2512441.71522        25.250           1.781
  19759189.806    -6627003.867 7  -5163896.73224        27.250           3.875
  20409863.978   -19550816.852 7 -15234385.95523        23.250           2.875
 91  7  4  3 35 44.9970000  0  3G 3G17G23
  20141312.040    -3213754.552 7  -2504224.22022        25.000           1.750
  19757973.946    -6633385.785 7  -5168869.65024        27.250           3.813
  20402145.228   -19591381.825 7 -15265995.00023        23.750           2.844
 91  7  4  3 35 59.9970000  0  3G 3G17G23
  20143341.884    -3203083.190 7  -2495908.87122        25.500           1.719
  19756773.384    -6639699.547 7  -5173789.45924        27.250           3.750
  20394444.954   -19631839.970 7 -15297520.79923        23.250           2.750
 91  7  4  3 36 14.9970000  0  3G 3G17G23
  20145397.157    -3192282.762 7  -2487492.97022        25.250           1.719
  19755585.446    -6645941.612 7  -5178653.39724        27.000           3.719
  20386769.056   -19672187.916 7 -15328960.73923        23.250           2.813
 91  7  4  3 36 29.9970000  0  3G 3G17G23
  20147477.634    -3181353.944 7  -2478977.01122        25.000           1.688
  19754410.782    -6652112.403 7  -5183461.80624        27.500           3.719
  20379109.923   -19712426.347 7 -15360315.34623        23.000           2.813
 91  7  4  3 36 44.9970000  0  3G 3G17G23
  20149581.524    -3170296.045 7  -2470360.47622        25.250           1.719
  19753249.415    -6658211.530 7  -5188214.37224        27.250           3.625
  20371477.993   -19752554.328 7 -15391583.88623        24.000           2.906
 91  7  4  3 36 59.9970000  0  3G 3G17G23
  20151712.329    -3159110.792 7  -2461644.69822        25.500           1.750
  19752101.306    -6664240.692 7  -5192912.41424        27.250           3.531
  20363858.938   -19792573.521 7 -15422767.64523        22.750           2.813
 91  7  4  3 37 14.9970000  0  3G 3G17G23
  20153863.415    -3147801.507 7  -2452832.27422        25.250           1.688
  19750968.298    -6670203.238 8  -5197558.54324        28.000           3.500
  20356264.399   -19832487.131 7 -15453869.14423        22.250           2.969
 91  7  4  3 37 29.9970000  0  3G 3G17G23
  20156039.720    -3136367.125 7  -2443922.37722        25.500           1.781
  19749845.532    -6676098.134 7  -5202151.96224        27.500           3.563
  20348688.720   -19872294.223 7 -15484887.64223        22.750           2.938
 91  7  4  3 37 44.9970000  0  3G 3G17G23
  20158238.095    -3124807.616 7  -2434914.97622        25.750           1.781
  19748736.946    -6681925.333 7  -5206692.62724        27.250           3.625
  20341135.048   -19911994.488 7 -15515822.88623        22.250           2.875
 91  7  4  3 37 59.9970000  0  3G 3G17G23
  20160464.368    -3113119.477 7  -2425807.34622        26.000           1.750
  19747642.251    -6687681.554 7  -5211177.99324        27.750           3.656
  20333599.642   -19951584.317 7 -15546672.08423        21.750           2.969
 91  7  4  3 38 14.9970000  0  3G 3G17G23
  20162710.056    -3101304.538 7  -2416600.90622        25.500           1.750
  19746559.470    -6693368.371 7  -5215609.27324        27.500           3.500
  20326088.423   -19991065.565 7 -15577436.67423        21.750           3.063
 91  7  4  3 38 29.9970000  0  3G 3G17G23
  20164984.259    -3089365.577 7  -2407297.82522        25.750           1.813
  19745490.329    -6698988.693 7  -5219988.73624        27.500           3.531
  20318596.181   -20030440.820 7 -15608118.67123        21.750           3.031
 91  7  4  3 38 44.9970000  0  3G 3G17G23
  20167280.134    -3077298.478 7  -2397894.90722        25.500           1.781
  19744434.204    -6704538.710 7  -5224313.42023        27.500           3.375
  20311124.603   -20069705.926 7 -15638714.83623        22.250           3.000
 91  7  4  3 38 59.9970000  0  3G 3G17G23
  20169599.485    -3065106.388 7  -2388394.58522        25.500           1.781
  19743391.399    -6710021.391 7  -5228585.62823        27.000           3.375
  20303671.446   -20108864.096 7 -15669227.67423        22.500           3.063
 91  7  4  3 39 14.9970000  0  3G 3G17G23
  20171945.071    -3052785.334 7  -2378793.77422        25.750           1.750
  19742360.220    -6715432.929 7  -5232802.40723        27.000           3.375
  20296241.415   -20147911.042 7 -15699653.84723        22.750           3.094
 91  7  4  3 39 29.9970000  0  3G 3G17G23
  20174312.798    -3040338.664 7  -2369095.07522        25.500           1.719
  19741344.704    -6720776.588 7  -5236966.29023        27.250           3.375
  20288830.728   -20186850.031 7 -15729995.90223        22.500           3.063
 91  7  4  3 39 44.9970000  0  3G 3G17G23
  20176705.673    -3027763.445 7  -2359296.21722        25.000           1.719
  19740340.993    -6726049.463 7  -5241075.01223        27.000           3.406
  20281443.345   -20225678.237 7 -15760251.62623        23.250           2.938
 91  7  4  3 39 59.9970000  0  3G 3G17G23
  20179122.931    -3015060.653 7  -2349397.93722        24.500           1.688
  19739350.134    -6731252.502 7  -5245129.32023        27.000           3.438
  20274073.243   -20264396.446 7 -15790421.64023        23.000           3.000
 91  7  4  3 40 14.9970000  0  3G 3G17G23
  20181564.196    -3002230.628 7  -2339400.52722        24.500           1.719
  19738373.806    -6736386.067 7  -5249129.49723        26.750           3.344
  20266726.829   -20303004.977 7 -15820506.18223        23.250           2.938
 91  7  4  3 40 29.9970000  0  3G 3G17G23
  20184029.571    -2989272.409 7  -2329303.22022        24.750           1.656
  19737410.290    -6741448.981 7  -5253074.61923        26.500           3.313
  20259402.985   -20341502.862 7 -15850504.51723        23.250           2.969
 91  7  4  3 40 44.9970000  0  3G 3G17G23
  20186522.415    -2976190.163 7  -2319109.27422        25.750           1.781
  19736457.767    -6746445.841 7  -5256968.26923        26.250           3.219
  20252095.688   -20379894.112 7 -15880419.75823        22.750           3.031
 91  7  4  3 40 59.9970000  0  3G 3G17G23
  20189031.759    -2962982.503 7  -2308817.60022        24.500           1.750
  19735520.470    -6751375.189 7  -5260809.31223        26.500           3.219
  20244809.259   -20418177.273 7 -15910250.76923        22.750           2.969
 91  7  4  3 41 14.9970000  0  3G 3G17G23
  20191570.188    -2949653.536 7  -2298431.39722        25.250           1.781
  19734594.407    -6756241.095 7  -5264600.92323        26.250           3.125
  20237543.063   -20456356.276 7 -15940000.62323        22.250           2.906
 91  7  4  3 41 29.9970000  0  3G 3G17G23
  20194129.767    -2936195.793 7  -2287944.85822        24.750           1.813
  19733684.204    -6761035.997 7  -5268337.20623        26.500           3.063
  20230303.001   -20494423.664 7 -15969663.51323        23.250           3.031
 91  7  4  3 41 44.9970000  0  3G 3G17G23
  20196719.696    -2922586.547 7  -2277340.26222        24.500           1.719
  19732789.024    -6765737.304 7  -5272000.56423        26.500           3.031
  20223082.610   -20532356.538 7 -15999221.57523        23.000           2.906
 91  7  4  3 41 59.9970000  0  3G 3G17G23
  20199333.056    -2908851.736 7  -2266637.81522        24.500           1.719
  19731906.399    -6770370.980 7  -5275611.20823        26.500           3.063
  20215884.329   -20570180.763 7 -16028694.97023        22.250           2.813
 91  7  4  3 42 14.9970000  0  3G 3G17G23
  20201970.782    -2894991.354 7  -2255837.52722        24.750           1.750
  19731038.712    -6774936.881 7  -5279169.04223        26.500           3.063
  20208707.501   -20607896.076 7 -16058083.50823        22.000           2.844
 91  7  4  3 42 29.9970000  0  3G 3G17G23
  20204633.134    -2881006.706 7  -2244940.40922        24.500           1.781
  19730181.907    -6779436.391 7  -5282675.15223        26.250           2.969
  20201551.845   -20645503.988 7 -16087388.35523        22.750           2.813
 91  7  4  3 42 44.9970000  0  3G 3G17G23
  20207317.704    -2866894.003 7  -2233943.50122        25.250           1.813
  19729337.735    -6783865.941 7  -5286126.74623        25.750           2.969
  20194415.517   -20683000.444 7 -16116606.35023        23.000           2.781
 91  7  4  3 42 59.9970000  0  3G 3G17G23
  20210026.876    -2852655.601 7  -2222848.64822        25.000           1.875
  19728509.204    -6788227.484 7  -5289525.34723        25.500           2.906
  20187301.720   -20720387.804 7 -16145739.34123        23.000           2.906
 91  7  4  3 43 14.9970000  0  3G 3G17G23
  20212759.563    -2838292.568 7  -2211656.67822        25.000           1.844
  19727690.454    -6792522.347 7  -5292871.98523        25.250           2.938
  20180207.134   -20757667.278 7 -16174788.26223        23.250           3.000
 91  7  4  3 43 29.9970000  0  3G 3G17G23
  20215517.649    -2823801.198 7  -2200364.71722        25.000           1.906
  19726888.493    -6796746.886 7  -5296163.83123        26.250           3.000
  20173134.860   -20794834.948 7 -16203750.05923        23.000           2.906
 91  7  4  3 43 44.9970000  0  3G 3G17G23
  20218299.337    -2809186.028 7  -2188976.28022        24.500           1.906
  19726094.376    -6800905.611 7  -5299404.38823        26.000           2.938
  20166081.931   -20831894.951 7 -16232627.96523        22.250           2.938
 91  7  4  3 43 59.9970000  0  3G 3G17G23
  20221104.368    -2794443.986 7  -2177488.99122        24.000           1.844
  19725316.931    -6804995.504 7  -5302591.31523        26.500           2.906
  20159048.798   -20868844.393 7 -16261419.71923        22.000           2.875
 91  7  4  3 44 14.9970000  0  3G 3G17G23
  20223933.196    -2779576.786 7  -2165904.16822        23.750           1.875
  19724552.735    -6809018.272 7  -5305725.93423        26.750           2.875
  20152040.235   -20905684.941 7 -16290126.61523        23.000           2.938
 91  7  4  3 44 29.9970000  0  3G 3G17G23
  20226788.087    -2764584.271 7  -2154221.69122        24.000           1.906
  19723799.985    -6812973.694 7  -5308808.07123        27.000           2.938
  20145051.243   -20942416.273 7 -16318748.40623        23.000           2.844
 91  7  4  3 44 44.9970000  0  3G 3G17G23
  20229665.251    -2749461.416 7  -2142437.66322        23.250           1.844
  19723060.954    -6816856.331 7  -5311833.49723        27.500           3.031
  20138084.313   -20979032.934 7 -16347280.85223        23.250           2.906
 91  7  4  3 44 59.9970000  0  3G 3G17G23
  20232566.767    -2734207.246 7  -2130551.30322        24.250           1.875
  19722336.235    -6820665.578 7  -5314801.73423        27.000           3.031
  20131135.524   -21015534.184 7 -16375723.36123        23.000           2.844
 91  7  4  3 45 14.9970000  0  3G 3G17G23
  20235493.649    -2718828.167 7  -2118567.61322        24.250           1.781
  19721625.001    -6824408.105 7  -5317717.98723        27.500           3.125
  20124210.345   -21051926.532 7 -16404081.01423        23.000           2.844
 91  7  4  3 45 29.9970000  0  3G 3G17G23
  20238443.821    -2703325.509 7  -2106487.62822        23.750           1.719
  19720925.384    -6828085.075 7  -5320583.15423        27.500           3.125
  20117307.415   -21088210.972 7 -16432354.58223        23.000           3.000
 91  7  4  3 45 44.9970000  0  3G 3G17G23
  20241418.728    -2687692.553 7  -2094306.11522        24.000           1.656
  19720237.165    -6831689.771 7  -5323392.00423        26.750           3.250
  20110422.587   -21124380.847 7 -16460538.88223        23.000           3.000
 91  7  4  3 45 59.9970000  0  3G 3G17G23
  20244418.196    -2671929.284 7  -2082023.05122        24.000           1.688
  19719565.274    -6835222.075 7  -5326144.44823        26.500           3.281
  20103564.212   -21160435.817 7 -16488633.63023        23.750           2.969
 91  7  4  3 46 14.9970000  0  3G 3G17G23
  20247442.595    -2656039.074 7  -2069641.07622        24.250           1.781
  19718906.993    -6838685.127 7  -5328842.92423        26.000           3.313
  20096725.095   -21196379.343 7 -16516641.55323        24.750           2.906
 91  7  4  3 46 29.9970000  0  3G 3G17G23
  20250489.876    -2640026.025 7  -2057163.38922        23.750           1.656
  19718259.587    -6842083.257 7  -5331490.82023        26.250           3.375
  20089904.876   -21232215.451 7 -16544565.77523        24.500           3.031
 91  7  4  3 46 44.9970000  0  4G 3G21G17G23
  20253562.470    -2623885.858 7  -2044586.62822        23.750           1.750
  23689119.790          -0.04114                         7.250
  19717626.142    -6845412.121 7  -5334084.73323        26.500           3.375
  20083106.157   -21267939.348 7 -16572402.55823        24.500           2.969
 91  7  4  3 46 59.9970000  0  4G 3G21G17G23
  20256656.978    -2607619.081 7  -2031911.22522        23.500           1.719
  23677062.149      -63364.079 5                         7.500
  19717007.829    -6848672.282 7  -5336625.11223        27.000           3.344
  20076327.649   -21303552.052 7 -16600152.69423        24.500           2.906
 91  7  4  3 47 14.9970000  0  4G 3G21G17G23
  20259774.079    -2591228.021 7  -2019138.98122        23.000           1.719
  23665011.376     -126693.415 5                         7.750
  19716398.970    -6851865.901 7  -5339113.64023        26.500           3.375
  20069572.782   -21339055.520 7 -16627817.71523        25.250           2.938
 91  7  4  3 47 29.9970000  0  4G 3G21G17G23
  20262918.962    -2574709.390 7  -2006267.33622        23.250           1.750
  23652970.126     -189984.475 5                         8.000
  19715803.735    -6854989.818 7  -5341547.85724        26.250           3.500
  20062840.032   -21374446.303 7 -16655394.92723        26.000           3.125
 91  7  4  3 47 44.9970000  0  4G 3G21G17G23
  20266087.532    -2558065.835 7  -1993298.34422        22.750           1.781
  23640928.673     -253239.603 5                         7.500
  19715221.704    -6858046.725 7  -5343929.86224        26.500           3.500
  20056125.048   -21409726.923 7 -16682886.30223        26.000           3.063
 91  7  4  3 47 59.9970000  0  4G 3G21G17G23
  20269278.540    -2541294.801 7  -1980230.01722        22.750           1.688
  23628903.165     -316456.104 5        -0.12731         7.750           0.125
  19714653.821    -6861033.874 7  -5346257.51024        27.500           3.500
  20049432.235   -21444895.032 7 -16710290.00723        25.500           3.156
 91  7  4  3 48 14.9970000  0  4G 3G21G17G23
  20272492.259    -2524397.835 7  -1967063.56222        22.750           1.688
  23616879.267     -379635.514 5    -49230.74421         8.000           0.156
  19714098.157    -6863953.027 7  -5348532.17324        27.250           3.500
  20042761.298   -21479952.082 7 -16737607.16523        25.750           3.250
 91  7  4  3 48 29.9970000  0  4G 3G21G17G23
  20275733.235    -2507368.096 7  -1953793.64322        22.750           1.688
  23604861.657     -442770.599 5    -98426.82121         7.750           0.188
  19713558.243    -6866797.158 7  -5350748.37423        27.500           3.469
  20036112.563   -21514891.051 7 -16764832.31323        26.000           3.188
 91  7  4  3 48 44.9970000  0  4G 3G21G17G23
  20278999.103    -2490213.792 7  -1940426.66122        23.000           1.594
  23592853.845     -505869.196 5   -147594.48121         8.250           0.188
  19713029.423    -6869574.459 7  -5352912.50023        27.000           3.406
  20029485.431   -21549720.049 7 -16791971.77223        25.750           3.125
 91  7  4  3 48 59.9970000  0  4G 3G21G17G23
  20282285.431    -2472938.391 7  -1926965.31722        22.750           1.688
  23580853.790     -568934.590 5   -196736.23721         8.750           0.219
  19712513.454    -6872288.427 7  -5355027.27524        27.250           3.594
  20022878.235   -21584442.358 7 -16819028.10023        26.000           3.188
 91  7  4  3 49 14.9970000  0  4G 3G21G17G23
  20285596.985    -2455535.606 7  -1913404.71422        22.750           1.531
  23568862.337     -631960.450 5   -245847.19621         8.750           0.188
  19712009.634    -6874932.793 7  -5357087.81724        27.000           3.656
  20016292.399   -21619051.716 7 -16845996.41223        25.750           3.125
 91  7  4  3 49 29.9970000  0  4G 3G21G17G23
  20288931.759    -2438007.391 7  -1899746.37322        22.500           1.500
  23556876.532     -694948.166 5   -294928.43921         8.750           0.219
  19711519.743    -6877509.288 7  -5359095.47424        27.500           3.563
  20009725.603   -21653549.569 7 -16872877.83023        25.250           3.063
 91  7  4  3 49 44.9970000  0  4G 3G21G17G23
  20292292.173    -2420351.529 7  -1885988.57222        22.250           1.531
  23544893.681     -757895.680 5   -343978.35121         8.500           0.250
  19711043.353    -6880015.841 7  -5361048.62224        27.750           3.719
  20003182.142   -21687933.905 7 -16899670.79923        25.500           3.031
 91  7  4  3 49 59.9970000  0  4G 3G21G17G23
  20295675.407    -2402573.136 7  -1872135.27821        22.000           1.406
  23532919.649     -820807.663 5   -393000.60821         8.750           0.250
  19710576.587    -6882457.299 7  -5362951.05724        27.500           3.688
  19996661.188   -21722209.938 7 -16926379.37123        25.500           3.031
 91  7  4  3 50 14.9970000  0  4G 3G21G17G23
  20299082.431    -2384671.866 7  -1858186.24921        22.250           1.344
  23520961.165     -883683.522 5   -441994.69221         9.500           0.250
  19710125.579    -6884833.441 7  -5364802.59524        27.750           3.750
  19990157.626   -21756377.190 7 -16953003.18323        24.500           3.156
 91  7  4  3 50 29.9970000  0  4G 3G21G17G23
  20302512.774    -2366645.025 7  -1844139.36921        22.250           1.375
  23509003.626     -946520.496 5   -490958.48121         9.250           0.344
  19709685.923    -6887141.192 8  -5366600.84124        28.000           3.844
  19983677.345   -21790432.837 7 -16979540.03423        24.750           3.000
 91  7  4  3 50 44.9970000  0  4G 3G21G17G23
  20305965.767    -2348493.017 7  -1829994.95621        21.750           1.375
  23497050.720    -1009318.593 5   -539891.97121         9.000           0.281
  19709259.923    -6889381.403 7  -5368346.44924        27.750           3.844
  19977220.938   -21824376.882 7 -17005989.92023        25.750           3.219
 91  7  4  3 50 59.9970000  0  4G 3G21G17G23
  20309444.321    -2330215.982 7  -1815753.11421        22.000           1.344
  23485110.478    -1072077.989 5   -588795.31821         9.250           0.250
  19708846.579    -6891554.229 7  -5370039.55624        27.750           3.875
  19970779.017   -21858209.782 7 -17032353.19723        24.750           3.125
 91  7  4  3 51 14.9970000  0  4G 3G21G17G23
  20312947.040    -2311812.012 7  -1801412.36421        21.500           1.375
  23473178.274    -1134796.314 5   -637666.65421         9.500           0.406
  19708445.759    -6893657.237 8  -5371678.26624        28.000           3.875
  19964365.009   -21891929.231 7 -17058628.07023        25.250           3.188
 91  7  4  3 51 29.9970000  0  4G 3G21G17G23
  20316473.173    -2293282.713 7  -1786973.95321        21.750           1.344
  23461250.149    -1197475.054 5   -686507.13121        10.000           0.375
  19708060.290    -6895692.250 7  -5373263.98124        27.250           4.125
  19957967.946   -21925536.898 7 -17084815.84123        25.500           3.156
 91  7  4  3 51 44.9970000  0  4G 3G21G17G23
  20320022.782    -2274630.263 7  -1772439.59521        22.250           1.250
  23449327.743    -1260116.053 5   -735318.22421        10.000           0.438
  19707682.813    -6897661.393 7  -5374798.37624        27.250           4.125
  19951595.571   -21959034.593 7 -17110917.92123        25.250           3.125
 91  7  4  3 51 59.9970000  0  4G 3G21G17G23
  20323595.993    -2255851.674 7  -1757806.93921        22.250           1.438
  23437416.696    -1322716.378 5   -784097.62221         9.750           0.438
  19707322.860    -6899561.858 7  -5376279.24824        27.000           4.094
  19945241.267   -21992419.393 7 -17136932.03123        25.000           3.156
 91  7  4  3 52 14.9970000  0  4G 3G21G17G23
  20327191.665    -2236952.140 7  -1743080.03521        22.500           1.313
  23425508.970    -1385280.790 5   -832849.03121         9.500           0.281
  19706972.571    -6901398.684 7  -5377710.53124        27.000           4.281
  19938908.392   -22025696.528 7 -17162862.25223        25.250           3.125
 91  7  4  3 52 29.9970000  0  4G 3G21G17G23
  20330813.329    -2217926.595 7  -1728254.94321        22.250           1.406
  23413610.509    -1447804.154 5   -881568.45521         9.500           0.375
  19706636.962    -6903167.052 7  -5379088.48424        27.250           4.281
  19932598.118   -22058860.843 7 -17188704.55223        25.250           3.094
 91  7  4  3 52 44.9970000  0  4G 3G21G17G23
  20334455.681    -2198778.480 7  -1713334.34121        21.750           1.313
  23401720.485    -1510289.533 5   -930258.29421         9.250           0.375
  19706313.165    -6904870.217 7  -5380415.62624        27.250           4.438
  19926306.290   -22091915.842 7 -17214461.67523        25.500           3.188
 91  7  4  3 52 59.9970000  0  4G 3G21G17G23
  20338122.438    -2179506.970 7  -1698317.58421        21.750           1.375
  23389834.993    -1572735.658 5   -978917.54221         9.000           0.313
  19705999.829    -6906507.077 7  -5381691.09724        27.000           4.281
  19920038.735   -22124860.250 7 -17240132.62123        26.000           3.063
 91  7  4  3 53 14.9970000  0  4G 3G21G17G23
  20341815.892    -2160107.675 7  -1683201.26521        22.000           1.375
  23377961.845    -1635137.898 5  -1027542.58821         8.750           0.438
  19705702.290    -6908072.956 7  -5382911.25524        27.000           4.250
  19913790.634   -22157689.603 7 -17265713.91123        25.500           3.125
 91  7  4  3 53 29.9970000  0  4G 3G21G17G23
  20345530.103    -2140584.777 7  -1667988.62921        22.750           1.406
  23366096.829    -1697500.334 5  -1076136.61921         8.500           0.313
  19705417.595    -6909571.948 7  -5384079.29724        26.750           4.250
  19907565.712   -22190407.780 7 -17291208.58323        25.250           3.188
 91  7  4  3 53 44.9970000  0  4G 3G21G17G23
  20349269.790    -2120937.003 7  -1652678.67721        22.750           1.281
  23354233.298    -1759821.548 5  -1124698.53021         8.250           0.406
  19705145.556    -6911003.147 7  -5385194.51524        26.000           4.250
  19901361.282   -22223013.757 7 -17316615.82323        26.250           3.188
 91  7  4  3 53 59.9970000  0  4G 3G21G17G23
  20353032.720    -2101162.683 7  -1637270.12521        22.750           1.344
  23342381.798    -1822099.575 5  -1173226.79121         8.000           0.344
  19704886.181    -6912364.899 7  -5386255.61324        26.250           4.250
  19895178.040   -22255505.854 7 -17341934.31423        25.750           3.125
 91  7  4  3 54 14.9970000  0  4G 3G21G17G23
  20356818.032    -2081262.434 7  -1621763.44721        22.500           1.219
  23330542.017    -1884334.688 5  -1221721.60921         8.250           0.344
  19704640.462    -6913657.538 7  -5387262.86224        27.000           4.219
  19889015.790   -22287884.372 7 -17367164.30823        25.500           3.219
 91  7  4  3 54 29.9970000  0  4G 3G21G17G23
  20360629.759    -2061238.385 7  -1606160.30921        22.500           1.281
  23318706.267    -1946528.963 5  -1270184.62121         8.250           0.375
  19704407.626    -6914883.305 7  -5388218.00024        26.500           4.250
  19882878.048   -22320151.528 7 -17392307.53023        26.000           3.031
 91  7  4  3 54 44.9970000  0  4G 3G21G17G23
  20364461.524    -2041089.624 7  -1590459.98421        22.000           1.344
  23306880.251    -2008681.137 5  -1318614.79621         8.250           0.281
  19704186.329    -6916041.125 7  -5389120.19024        26.500           4.281
  19876757.657   -22352306.264 7 -17417363.14223        25.500           3.063
 91  7  4  3 54 59.9970000  0  4G 3G21G17G23
  20368322.509    -2020815.637 7  -1574662.06321        22.750           1.281
  23295058.813    -2070790.472 5  -1367011.62221         8.000           0.281
  19703980.290    -6917130.416 7  -5389968.98724        26.500           4.344
  19870659.337   -22384347.839 7 -17442330.58623        25.250           3.000
 91  7  4  3 55 14.9970000  0  4G 3G21G17G23
  20372203.962    -2000419.370 7  -1558768.87821        23.500           1.313
  23283250.806    -2132859.621 5  -1415377.10921         8.500           0.313
  19703785.188    -6918153.852 7  -5390766.46524        26.250           4.344
  19864583.399   -22416279.148 7 -17467212.10123        25.250           2.875
 91  7  4  3 55 29.9970000  0  4G 3G21G17G23
  20376107.259    -1979900.944 7  -1542780.50421        23.000           1.375
  23271444.063    -2194888.617 5  -1463711.33021         7.750           0.281
  19703604.626    -6919111.833 7  -5391512.94324        26.500           4.281
  19858528.282   -22448100.164 7 -17492007.68523        25.500           2.906
 91  7  4  3 55 44.9970000  0  4G 3G21G17G23
  20380036.728    -1959253.940 7  -1526691.93821        22.750           1.219
  23259649.540    -2256870.527 5  -1512008.84121         8.250           0.250
  19703433.821    -6919997.587 7  -5392203.13624        26.000           4.219
  19852494.267   -22479804.288 7 -17516712.17923        25.750           2.875
 91  7  4  3 55 59.9970000  0  4G 3G21G17G23
  20383989.040    -1938484.208 7  -1510507.73821        22.750           1.281
  23247860.735    -2318811.302 5  -1560274.31021         8.500           0.375
  19703277.712    -6920817.384 7  -5392841.93524        25.750           4.281
  19846482.321   -22511397.593 7 -17541330.31623        25.750           2.969
 91  7  4  3 56 14.9970000  0  4G 3G21G17G23
  20387963.415    -1917595.239 7  -1494230.62621        22.500           1.406
  23236084.329    -2380713.799 5  -1608509.94421         9.250           0.313
  19703134.290    -6921574.208 7  -5393431.66724        26.000           4.250
  19840491.688   -22542883.106 7 -17565864.46623        25.250           2.906
 91  7  4  3 56 29.9970000  0  4G 3G21G17G23
  20391962.470    -1896581.323 7  -1477856.15422        22.250           1.531
  23224313.259    -2442572.276 5  -1656711.29021         9.000           0.156
  19703002.063    -6922262.463 7  -5393967.96324        26.500           4.281
  19834520.696   -22574255.313 7 -17590310.33223        25.000           2.906
 91  7  4  3 56 44.9970000  0  4G 3G21G17G23
  20395985.235    -1875440.448 7  -1461382.75822        22.500           1.500
  23212548.681    -2504384.745 5  -1704876.76721         8.750           0.281
  19702884.993    -6922880.235 7  -5394449.33724        25.750           4.219
  19828572.360   -22605512.081 7 -17614666.23123        25.000           2.906
 91  7  4  3 56 59.9970000  0  4G 3G21G17G23
  20400034.173    -1854178.513 7  -1444815.02622        22.750           1.531
  23200792.157    -2566156.399 5  -1753010.47321         9.000           0.219
  19702779.431    -6923432.923 7  -5394880.00124        26.250           4.156
  19822646.735   -22636658.944 7 -17638936.49223        25.000           2.875
 91  7  4  3 57 14.9970000  0  4G 3G21G17G23
  20404099.970    -1832793.336 7  -1428151.26421        22.000           1.406
  23189050.103    -2627885.065 5  -1801110.65521         9.500           0.188
  19702688.688    -6923918.455 7  -5395258.33524        26.500           4.094
  19816740.790   -22667693.793 7 -17663119.47023        25.250           2.844
 91  7  4  3 57 29.9970000  0  4G 3G21G17G23
  20408194.376    -1811287.372 7  -1411393.38222        22.000           1.563
  23177311.657    -2689572.647 5  -1849178.81221         9.750           0.188
  19702605.040    -6924338.998 7  -5395586.03624        26.000           4.156
  19810856.634   -22698618.870 7 -17687216.91623        26.000           2.969
 91  7  4  3 57 44.9970000  0  4G 3G21G17G23
  20412308.813    -1789656.040 7  -1394537.80821        21.500           1.469
  23165580.321    -2751214.536 5  -1897211.36821         9.750           0.250
  19702539.118    -6924690.170 7  -5395859.67424        25.500           4.125
  19804992.368   -22729429.703 7 -17711225.34123        26.250           2.938
 91  7  4  3 57 59.9970000  0  4G 3G21G17G23
  20416449.298    -1767902.206 7  -1377586.77822        21.750           1.500
  23153858.774    -2812813.341 5  -1945210.37221        10.000           0.344
  19702484.212    -6924974.890 7  -5396081.52924        25.750           4.031
  19799149.728   -22760128.852 7 -17735146.73523        25.500           2.906
 91  7  4  3 58 14.9970000  0  4G 3G21G17G23
  20420612.821    -1746027.532 7  -1360541.60321        22.250           1.438
  23142142.774    -2874370.533 5  -1993176.91121         9.750           0.281
  19702444.485    -6925194.926 7  -5396252.98424        25.500           4.156
  19793329.001   -22790718.098 7 -17758982.50123        25.250           2.969
 91  7  4  3 58 29.9970000  0  4G 3G21G17G23
  20424800.376    -1724031.073 7  -1343401.51121        22.250           1.438
  23130436.595    -2935884.728 5  -2041109.98421        10.000           0.219
  19702414.634    -6925348.671 7                        26.000
  19787530.610   -22821196.083 7 -17782731.56023        25.500           2.906
 91  7  4  3 58 44.9970000  0  4G 3G21G17G23
  20429007.399    -1701907.208 7  -1326162.14621        21.250           1.406
  23118743.517    -2997350.008 5  -2089004.92921        10.250           0.281
  19702401.110    -6925430.640 7                        26.500
  19781753.118   -22851557.322 7 -17806389.65223        25.500           2.844
 91  7  4  3 58 59.9970000  0  4G 3G21G17G23
  20433241.368    -1679660.151 7  -1308826.77521        21.250           1.438
  23107053.524    -3058770.271 5  -2136864.78021        11.250           0.281
  19702397.282    -6925445.072 7                        26.000
  19775996.696   -22881805.782 7 -17829959.85523        25.250           2.875
 91  7  4  3 59 14.9970000  0  4G 3G21G17G23
  20437499.298    -1657292.644 7  -1291397.57021        21.750           1.438
  23095376.415    -3120148.249 5  -2184691.71121        11.250           0.281
  19702406.899    -6925394.666 7                        26.500
  19770261.126   -22911944.238 7 -17853444.35023        25.250           2.750
 91  7  4  3 59 29.9970000  0  4G 3G21G17G23
  20441778.384    -1634798.994 7  -1273870.06021        21.000           1.406
  23083705.431    -3181477.918 5  -2232480.97121        11.500           0.281
  19702430.860    -6925273.431 7                        26.250
  19764549.634   -22941966.658 7 -17876838.43023        26.000           2.781
 91  7  4  3 59 44.9970000  0  4G 3G21G17G23
  20446082.290    -1612183.319 7  -1256247.46321        21.000           1.469
  23072040.423    -3242763.181 5  -2280235.62721        11.250           0.313
  19702465.313    -6925085.610 7                        26.250
  19758858.735   -22971877.214 7 -17900145.33923        26.250           2.719
 91  7  4  3 59 59.9970000  0  4G 3G21G17G23
  20450409.040    -1589445.906 7  -1238530.01621        21.250           1.438
  23060386.118    -3304004.129 5  -2327955.75821        11.750           0.250
  19702514.790    -6924831.237 7                        26.250
  19753184.688   -23001676.023 7 -17923365.18323        25.250           2.781
 91  7  4  4  0 14.9970000  0  4G 3G21G17G23
  20454758.665    -1566586.031 7  -1220717.13322        20.000           1.563
  23048742.517    -3365199.686 6  -2375640.53921        12.250           0.313
  19702574.806    -6924509.607 7  -5395718.94624        26.750           3.781
  19747534.696   -23031362.513 7 -17946497.49423        25.000           2.750
 91  7  4  4  0 29.9970000  0  4G 3G21G17G23
  20459131.321    -1543605.320 7  -1202810.10022        20.000           1.531
  23037106.821    -3426351.270 5  -2423291.05021        11.750           0.313
  19702649.274    -6924122.502 7  -5395417.30024        27.250           3.688
  19741908.040   -23060938.085 7 -17969543.38423        25.000           2.750
 91  7  4  4  0 44.9970000  0  4G 3G21G17G23
  20463527.009    -1520504.924 7  -1184809.80121        20.000           1.438
  23025478.563    -3487459.676 5  -2470907.88621        11.750           0.344
  19702734.548    -6923670.452 7  -5395065.05324        26.750           3.781
  19736300.079   -23090403.517 7 -17992503.44023        24.500           2.625
 91  7  4  4  0 59.9970000  0  4G 3G21G17G23
  20467944.446    -1497283.165 6  -1166714.93821        19.750           1.375
  23013856.962    -3548523.150 5  -2518489.75121        11.500           0.281
  19702831.298    -6923152.093 7  -5394661.13724        27.000           3.813
  19730715.423   -23119757.313 7 -18015376.51223        24.750           2.656
 91  7  4  4  1 14.9970000  0  4G 3G21G17G23
  20472389.173    -1473938.227 6  -1148524.08522        19.750           1.531
  23002246.415    -3609539.281 5  -2566034.68721        11.500           0.344
  19702946.188    -6922565.202 7  -5394203.81824        27.250           3.750
  19725151.978   -23148997.330 7 -18038160.91923        25.250           2.625
 91  7  4  4  1 29.9970000  0  4G 3G21G17G23
  20476854.626    -1450473.040 7  -1130239.54122        20.500           1.500
  22990643.798    -3670510.898 5  -2613544.95521        10.750           0.438
  19703067.962    -6921912.959 7  -5393695.57824        27.750           3.688
  19719607.813   -23178126.580 7 -18060859.02523        24.500           2.563
 91  7  4  4  1 44.9970000  0  4G 3G21G17G23
  20481342.063    -1426882.930 6  -1111857.65421        19.750           1.469
  22979051.024    -3731433.100 5  -2661016.72421        11.250           0.344
  19703208.899    -6921190.322 8  -5393132.48024        28.750           3.563
  19714087.587   -23207140.102 7 -18083466.94623        24.000           2.594
 91  7  4  4  1 59.9970000  0  4G 3G21G17G23
  20485855.837    -1403168.449 7  -1093378.83822        20.250           1.500
  22967466.438    -3792306.182 5  -2708450.21221        10.750           0.375
  19703359.595    -6920397.859 8  -5392514.97024        29.000           3.531
  19708587.946   -23236038.541 7 -18105985.19423        23.750           2.563
 91  7  4  4  2 14.9970000  0  4G 3G21G17G23
  20490391.813    -1379331.915 7  -1074804.93222        21.000           1.500
  22955891.806    -3853132.202 5  -2755847.03221        10.750           0.406
  19703519.931    -6919537.896 8  -5391844.86724        28.000           3.531
  19703110.110   -23264824.137 7 -18128415.51523        24.250           2.688
 91  7  4  4  2 29.9970000  0  4G 3G21G17G23
  20494952.220    -1355371.352 7  -1056134.38022        21.500           1.563
  22944325.228    -3913908.800 5  -2803205.33521        10.500           0.313
  19703695.845    -6918608.311 7  -5391120.51623        27.500           3.438
  19697654.259   -23293494.589 7 -18150756.10923        24.500           2.594
 91  7  4  4  2 44.9960000  0  4G 3G21G17G23
  20499532.707    -1331291.597 7  -1037370.94021        20.500           1.406
  22932768.715    -3974634.921 5  -2850524.30521        10.000           0.438
  19703885.981    -6917612.257 8  -5390344.36423        28.500           3.375
  19692220.848   -23322051.200 7 -18173008.00523        24.750           2.563
 91  7  4  4  2 59.9960000  0  4G 3G21G17G23
  20504140.106    -1307093.991 7  -1018515.66221        21.000           1.375
  22921222.770    -4035322.976 5  -2897813.61321        10.250           0.406
  19704088.426    -6916554.175 8  -5389519.88724        28.250           3.563
  19686807.738   -23350502.350 7 -18195177.71423        25.000           2.563
 91  7  4  4  3 14.9960000  0  4G 3G21G17G23
  20508767.020    -1282776.981 7   -999567.35821        21.500           1.469
  22909682.613    -4095965.693 5  -2945067.59521        10.250           0.406
  19704302.777    -6915430.950 8  -5388644.65023        28.000           3.406
  19681412.082   -23378843.016 7 -18217261.34223        24.250           2.563
 91  7  4  4  3 29.9960000  0  4G 3G21G17G23
  20513415.629    -1258337.488 7   -980523.60621        21.250           1.406
  22898149.535    -4156559.297 5  -2992283.31121         9.500           0.469
  19704530.184    -6914239.048 8  -5387715.89723        28.750           3.406
  19676040.941   -23407069.509 7 -18239255.99723        24.000           2.625
 91  7  4  4  3 44.9960000  0  4G 3G21G17G23
  20518088.606    -1233777.100 7   -961385.65921        20.750           1.469
  22886627.129    -4217105.374 5  -3039461.98521         9.500           0.375
  19704769.559    -6912980.025 8  -5386734.83523        29.000           3.406
  19670691.137   -23435183.532 7 -18261163.01923        24.000           2.688
 91  7  4  4  3 59.9960000  0  4G 3G21G17G23
  20522786.152    -1209097.369 7   -942154.71621        21.000           1.406
  22875111.504    -4277605.196 5  -3086604.63821         9.500           0.500
  19705022.113    -6911655.398 8  -5385702.65723        29.250           3.406
  19665360.668   -23463186.432 7 -18282983.44023        23.750           2.656
 91  7  4  4  4 14.9960000  0  4G 3G21G17G23
  20527504.848    -1184298.786 7   -922831.15821        20.250           1.406
  22863612.098    -4338058.934 5  -3133711.36821         9.750           0.438
  19705284.754    -6910265.711 8  -5384619.78324        28.250           3.531
  19660055.231   -23491078.733 7 -18304717.68823        24.750           2.719
 91  7  4  4  4 29.9960000  0  4G 3G21G17G23
  20532248.106    -1159376.055 7   -903410.86121        21.000           1.438
  22852118.410    -4398460.930 5  -3180777.79121         9.750           0.469
  19705563.434    -6908805.381 8  -5383481.86123        28.500           3.438
  19654770.176   -23518854.792 7 -18326361.35523        24.750           2.625
 91  7  4  4  4 44.9960000  0  4G 3G21G17G23
  20537014.910    -1134330.943 7   -883895.19821        21.750           1.375
  22840631.473    -4458812.942 5  -3227805.24321         9.500           0.469
  19705854.824    -6907276.233 8  -5382290.31723        28.500           3.375
  19649506.098   -23546516.647 7 -18347916.03323        24.750           2.531
 91  7  4  4  4 59.9960000  0  4G 3G21G17G23
  20541804.145    -1109166.069 7   -864286.21921        22.250           1.406
  22829156.176    -4519117.174 5  -3274795.48321         9.250           0.438
  19706159.363    -6905680.676 8  -5381047.02523        28.750           3.375
  19644263.113   -23574066.641 7 -18369383.54123        24.000           2.500
 91  7  4  4  5 14.9960000  0  4G 3G21G17G23
  20546612.934    -1083884.752 7   -844586.50221        21.750           1.313
  22817685.652    -4579376.588 5  -3321750.81221         9.500           0.469
  19706473.527    -6904021.981 8  -5379754.53723        28.750           3.344
  19639040.441   -23601507.846 7 -18390766.28822        24.000           2.438
 91  7  4  4  5 29.9960000  0  4G 3G21G17G23
  20551448.871    -1058478.505 7   -824789.43721        21.750           1.313
  22806233.270    -4639582.361 5  -3368664.32821        10.000           0.531
  19706803.254    -6902291.293 8  -5378405.94723        29.000           3.375
  19633840.941   -23628831.696 7 -18412057.58022        24.250           2.438
 91  7  4  4  5 44.9960000  0  4G 3G21G17G23
  20556307.746    -1032945.693 7   -804893.75121        21.750           1.188
  22794786.676    -4699732.718 5  -3415534.66421        10.250           0.563
  19707145.520    -6900487.092 8  -5377000.07823        28.250           3.313
  19628664.504   -23656036.808 7 -18433256.35722        24.500           2.469
 91  7  4  4  5 59.9960000  0  4G 3G21G17G23
  20561187.457    -1007297.792 7   -784908.38121        21.500           1.250
  22783346.535    -4759838.606 5  -3462370.35521         9.750           0.500
  19707501.231    -6898620.723 8  -5375545.76923        28.500           3.250
  19623510.098   -23683134.164 7 -18454371.17223        25.000           2.563
 91  7  4  4  6 14.9960000  0  4G 3G21G17G23
  20566090.473     -981539.463 7   -764836.96121        22.000           1.344
  22771916.254    -4819904.603 5  -3509174.95721         9.500           0.531
  19707869.988    -6896696.867 8  -5374046.65823        29.250           3.188
  19618370.113   -23710128.440 7 -18475405.65423        24.250           2.531
 91  7  4  4  6 29.9960000  0  4G 3G21G17G23
  20571013.856     -955662.294 7   -744672.95521        21.750           1.313
  22760498.699    -4879922.307 5  -3555941.92921        10.250           0.563
  19708246.168    -6894706.882 8  -5372496.01923        28.500           3.250
  19613254.043   -23737011.236 7 -18496353.27422        24.000           2.438
 91  7  4  4  6 44.9960000  0  4G 3G21G17G23
  20575961.699     -929668.789 7   -724418.28821        22.250           1.344
  22749085.887    -4939893.607 5  -3602672.73721        10.500           0.563
  19708636.559    -6892652.896 7  -5370895.50823        27.750           3.250
  19608161.449   -23763784.645 7 -18517215.66023        24.750           2.500
 91  7  4  4  6 59.9960000  0  4G 3G21G17G23
  20580929.270     -903560.297 7   -704074.01821        22.250           1.281
  22737683.918    -4999819.494 5  -3649368.15921        10.500           0.625
  19709039.301    -6890536.361 8  -5369246.26823        28.000           3.344
  19603087.332   -23790450.048 7 -18537993.88222        24.750           2.469
 91  7  4  4  7 14.9960000  0  4G 3G21G17G23
  20585916.684     -877342.744 7   -683644.76721        21.250           1.219
  22726285.676    -5059705.529 5  -3696032.51621        10.750           0.656
  19709450.910    -6888363.179 7  -5367552.87423        27.500           3.375
  19598032.082   -23817013.225 7 -18558692.45222        25.250           2.438
 91  7  4  4  7 29.9960000  0  4G 3G21G17G23
  20590927.996     -851011.098 7   -663126.62121        21.250           1.219
  22714898.543    -5119546.616 5  -3742661.87421        10.500           0.688
  19709879.098    -6886128.078 8  -5365811.24023        28.250           3.219
  19592997.387   -23843469.081 7 -18579307.38822        25.250           2.469
 91  7  4  4  7 44.9960000  0  4G 3G21G17G23
  20595960.535     -824563.436 7   -642518.07221        21.750           1.156
  22703518.746    -5179340.454 5  -3789254.40421        11.000           0.531
  19710315.488    -6883829.134 8  -5364019.84823        28.000           3.406
  19587982.660   -23869815.419 7 -18599836.98823        24.250           2.500
 91  7  4  4  7 59.9960000  0  4G 3G21G17G23
  20601015.238     -798001.015 7   -621820.09121        21.750           1.188
  22692146.777    -5239088.218 5  -3835811.03421        11.000           0.469
  19710765.863    -6881467.179 7  -5362179.36523        27.750           3.344
  19582990.457   -23896053.696 7 -18620282.39222        24.250           2.438
 91  7  4  4  8 14.9960000  0  4G 3G21G17G23
  20606094.254     -771317.836 7   -601028.02621        21.500           1.125
  22680790.949    -5298783.569 5  -3882326.81621        11.750           0.438
  19711227.887    -6879036.335 8  -5360285.20123        28.000           3.313
  19578019.582   -23922177.606 7 -18640638.67223        24.250           2.563
 91  7  4  4  8 29.9960000  0  4G 3G21G17G23
  20611194.496     -744516.873 7   -580144.17321        21.500           1.188
  22669440.285    -5358429.063 5  -3928803.75621        11.750           0.563
  19711702.129    -6876539.392 7  -5358339.53123        27.750           3.281
  19573070.418   -23948189.920 7 -18660907.99423        24.750           2.594
 91  7  4  4  8 44.9960000  0  4G 3G21G17G23
  20616315.684     -717602.761 7   -559172.14921        21.000           1.188
  22658100.691    -5418029.270 6  -3975245.40621        12.000           0.406
  19712190.270    -6873981.022 8  -5356345.99423        28.000           3.344
  19568139.520   -23974095.582 7 -18681094.21123        24.500           2.531
 91  7  4  4  8 59.9960000  0  4G 3G21G17G23
  20621458.910     -690571.990 7   -538109.22921        21.500           1.125
  22646767.348    -5477580.159 6  -4021648.64221        12.250           0.469
  19712688.902    -6871357.488 7  -5354301.67923        27.500           3.344
  19563231.402   -23999890.660 7 -18701194.25722        24.250           2.406
 91  7  4  4  9 14.9960000  0  4G 3G21G17G23
  20626626.988     -663425.249 7   -516955.93821        22.000           1.188
  22635442.863    -5537082.093 6  -4068013.70921        12.250           0.469
  19713201.598    -6868669.357 8  -5352207.03323        28.000           3.469
  19558342.902   -24025575.648 7 -18721208.50823        24.250           2.563
 91  7  4  4  9 29.9960000  0  4G 3G21G17G23
  20631810.918     -636164.832 7   -495714.07021        21.500           1.188
  22624132.316    -5596536.993 6  -4114342.12721        12.500           0.469
  19713723.199    -6865918.612 7  -5350063.59523        27.500           3.406
  19553476.145   -24051152.622 7 -18741138.60823        24.250           2.625
 91  7  4  4  9 44.9960000  0  4G 3G21G17G23
  20637021.441     -608788.107 7   -474381.56721        21.500           1.063
  22612827.066    -5655942.289 6  -4160631.90421        12.500           0.438
  19714260.824    -6863102.531 7  -5347869.24223        27.750           3.406
  19548630.074   -24076619.185 7 -18760982.67723        24.250           2.531
 91  7  4  4  9 59.9960000  0  4G 3G21G17G23
  20642254.848     -581293.043 7   -452956.85821        21.750           1.125
  22601533.441    -5715295.438 6  -4206881.04921        12.750           0.344
  19714809.496    -6860219.051 7  -5345622.37023        27.500           3.469
  19543805.293   -24101973.000 7 -18780738.89123        24.500           2.594
 91  7  4  4 10 14.9960000  0  4G 3G21G17G23
  20647511.809     -553677.515 7   -431438.27621        22.000           1.031
  22590245.598    -5774593.879 6  -4253087.55021        12.000           0.344
  19715370.676    -6857265.773 7  -5343321.11124        27.250           3.625
  19539004.418   -24127211.772 7 -18800405.45823        25.250           2.594
 91  7  4  4 10 29.9960000  0  4G 3G21G17G23
  20652786.957     -525943.953 7   -409827.72321        21.000           0.969
  22578971.152    -5833839.786 6  -4299253.13521        12.750           0.344
  19715945.887    -6854245.160 7  -5340967.38024        27.500           3.531
  19534221.832   -24152337.839 7 -18819984.19423        24.750           2.531
 91  7  4  4 10 44.9960000  0  4G 3G21G17G23
  20658087.004     -498096.020 7   -388128.05621        21.250           1.063
  22567707.902    -5893036.623 6  -4345380.47321        12.750           0.344
  19716532.809    -6851160.677 7  -5338563.89024        27.250           3.625
  19529460.449   -24177354.755 7 -18839477.88623        24.750           2.531
 91  7  4  4 10 59.9960000  0  4G 3G21G17G23
  20663406.957     -470128.575 7   -366335.25921        20.750           1.000
  22556454.481    -5952179.220 6  -4391465.54521        13.250           0.438
  19717132.059    -6848007.003 7  -5336106.47924        26.750           3.563
  19524721.684   -24202257.385 7 -18858882.52423        24.750           2.531
 91  7  4  4 11 14.9960000  0  4G 3G21G17G23
  20668751.707     -442045.283 7   -344452.19221        20.750           1.063
  22545210.106    -6011270.818 6  -4437510.88421        13.500           0.281
  19717745.012    -6844787.735 7  -5333597.95824        26.750           3.625
  19520003.512   -24227049.109 7 -18878200.73422        24.500           2.438
 91  7  4  4 11 29.9960000  0  4G 3G21G17G23
  20674116.856     -413850.496 7   -322482.24721        20.750           1.031
  22533973.043    -6070315.191 6  -4483519.40821        13.000           0.375
  19718369.527    -6841507.001 7  -5331041.53724        27.000           3.594
  19515306.590   -24251734.059 7 -18897435.75423        24.750           2.594
 91  7  4  4 11 44.9960000  0  4G 3G21G17G23
  20679505.152     -385538.661 7   -300421.08321        21.000           0.938
  22522748.199    -6129306.791 6  -4529486.82721        13.000           0.313
  19719006.934    -6838159.482 7  -5328433.07924        27.000           3.531
  19510629.926   -24276306.937 7 -18916583.43923        24.500           2.531
 91  7  4  4 11 59.9960000  0  4G 3G21G17G23
  20684913.824     -357110.857 7   -278269.57121        21.250           1.000
  22511533.840    -6188246.306 6  -4575413.65721        13.000           0.344
  19719656.246    -6834745.780 7  -5325773.04924        26.000           3.594
  19505976.449   -24300768.530 7 -18935644.40823        25.250           2.594
 91  7  4  4 12 14.9960000  0  4G 3G21G17G23
  20690344.981     -328570.676 7   -256030.48721        21.250           1.000
  22500321.816    -6247137.010 6  -4621302.46621        12.750           0.469
  19720317.449    -6831269.359 7  -5323064.14924        26.250           3.563
  19501342.231   -24325122.089 7 -18954621.19422        25.000           2.469
 91  7  4  4 12 29.9960000  0  4G 3G21G17G23
  20695799.301     -299914.912 7   -233701.32421        22.000           1.063
  22489128.191    -6305975.352 6  -4667150.46021        12.750           0.344
  19720991.504    -6827726.765 7  -5320303.68224        25.750           3.656
  19496726.082   -24349364.527 7 -18973511.39723        24.500           2.500
 91  7  4  4 12 44.9960000  0  4G 3G21G17G23
  20701274.902     -271141.137 7   -211280.22121        21.750           0.938
  22477942.621    -6364758.781 6  -4712955.65821        12.750           0.500
  19721677.887    -6824115.611 7  -5317489.79624        26.250           3.594
  19492135.762   -24373493.340 7 -18992313.05923        24.500           2.563
 91  7  4  4 12 59.9960000  0  4G 3G21G17G23
  20706772.395     -242253.844 7   -188770.65821        21.000           1.000
  22466767.613    -6423491.204 6  -4758721.13121        12.500           0.313
  19722379.012    -6820440.016 7  -5314625.68324        27.000           3.594
  19487565.309   -24397512.733 7 -19011029.45723        24.250           2.563
 91  7  4  4 13 14.9960000  0  4G 3G21G17G23
  20712290.066     -213252.197 7   -166171.98821        20.750           0.906
  22455599.051    -6482171.654 5  -4804446.08121        11.750           0.500
  19723091.332    -6816699.271 7  -5311710.81924        26.250           3.625
  19483014.941   -24421422.020 7 -19029660.05723        24.500           2.594
 91  7  4  4 13 29.9960000  0  4G 3G21G17G23
  20717831.363     -184137.156 7   -143484.95921        21.250           0.875
  22444439.152    -6540800.757 5  -4850131.03321        11.250           0.500
  19723814.410    -6812894.057 7  -5308745.71124        26.250           3.563
  19478487.356   -24445221.789 7 -19048205.32023        24.500           2.656
 91  7  4  4 13 44.9960000  0  4G 3G21G17G23
  20723392.684     -154910.490 7   -120710.94821        21.000           0.906
  22433293.621    -6599380.087 5  -4895777.20921        11.000           0.500
  19724550.254    -6809025.780 7  -5305731.46624        26.000           3.656
  19473977.629   -24468913.704 7 -19066666.54223        24.250           2.594
 91  7  4  4 13 59.9960000  0  4G 3G21G17G23
  20728974.020     -125570.299 7    -97848.48021        20.750           0.813
  22422156.965    -6657907.387 5  -4941382.84621        11.250           0.531
  19725298.691    -6805092.562 7  -5302666.61924        26.250           3.688
  19469488.840   -24492495.675 7 -19085042.09223        23.750           2.563
 91  7  4  4 14 14.9960000  0  4G 3G21G17G23
  20734579.879      -96119.712 7    -74899.98221        20.750           0.906
  22411027.004    -6716385.475 5  -4986950.12421        10.750           0.500
  19726058.668    -6801097.478 7  -5299553.56224        26.500           3.781
  19465023.027   -24515970.969 7 -19103334.51723        24.250           2.531
 91  7  4  4 14 29.9960000  0  4G 3G21G17G23
  20740204.840      -66554.009 7    -51861.78221        20.500           0.875
  22399910.840    -6774809.022 5  -5032474.90621        11.000           0.531
  19726833.090    -6797035.590 7  -5296388.45624        26.000           3.656
  19460580.473   -24539334.626 7 -19121539.94522        25.750           2.469
 91  7  4  4 14 44.9960000  0  4G 3G21G17G23
  20745854.543      -36875.219 7    -28735.47321        21.500           0.906
  22388803.238    -6833180.011 5  -5077958.74321        11.500           0.594
  19727617.254    -6792908.731 7  -5293172.71724        26.000           3.750
  19456151.606   -24562588.460 7 -19139659.79923        24.500           2.656
 91  7  4  4 14 59.9960000  0  4G 3G21G17G23
  20751522.840       -7084.921 7     -5522.26921        20.750           0.969
  22377708.426    -6891499.840 5  -5123402.71321        11.500           0.563
  19728415.660    -6788718.506 7  -5289907.59724        26.250           3.813
  19451748.059   -24585734.005 7 -19157695.28823        24.750           2.531
 91  7  4  4 15 14.9960000  0  4G 3G21G17G23
  20757212.254       22820.868 7     17780.92321        20.500           0.844
  22366616.957    -6949764.076 5  -5168803.36521        10.750           0.625
  19729225.863    -6784460.667 7  -5286589.80024        27.000           3.938
  19447365.520   -24608767.290 7 -19175643.29323        25.250           2.563
 91  7  4  4 15 29.9960000  0  4G 3G21G17G23
  20762926.668       52839.632 7     41172.15421        20.750           0.875
  22355537.707    -7007975.038 5  -5214162.50921        10.500           0.688
  19730047.441    -6780137.429 7  -5283221.03624        26.500           3.688
  19443002.527   -24631690.449 7 -19193505.47923        25.250           2.594
 91  7  4  4 15 44.9960000  0  4G 3G21G17G23
  20768660.434       82971.297 7     64651.35121        20.500           0.938
  22344474.848    -7066132.119 5  -5259479.65921        11.250           0.594
  19730882.731    -6775748.713 7  -5279801.24724        26.250           3.813
  19438662.316   -24654503.263 7 -19211281.69323        25.250           2.531
 91  7  4  4 15 59.9960000  0  4G 3G21G17G23
  20774414.371      113217.047 7     88219.45321        20.000           0.875
  22333420.191    -7124234.201 5  -5304753.95121        11.500           0.625
  19731731.731    -6771293.478 7  -5276329.63124        26.500           3.844
  19434343.277   -24677205.007 7 -19228971.35123        25.750           2.594
 91  7  4  4 16 14.9960000  0  4G 3G21G17G23
  20780192.965      143575.090 7    111875.05721        20.750           0.781
  22322371.527    -7182282.610 5  -5349986.43521        11.000           0.656
  19732591.184    -6766773.004 7  -5272807.18424        26.250           3.844
  19430043.527   -24699797.101 7 -19246575.56823        25.500           2.594
 91  7  4  4 16 29.9960000  0  4G 3G21G17G23
  20785989.746      174047.230 6    135619.56721        19.750           0.906
  22311336.449    -7240275.371 5  -5395175.54521        11.250           0.594
  19733463.285    -6762185.409 7  -5269232.42924        26.250           3.844
  19425765.996   -24722277.636 7 -19264092.85823        26.250           2.688
 91  7  4  4 16 44.9960000  0  4G 3G21G17G23
  20791809.645      204627.673 6    159448.46121        19.250           0.906
  22300309.324    -7298217.881 5  -5440325.51021        11.250           0.656
  19734349.606    -6757536.457 7  -5265609.86024        27.250           3.844
  19421508.512   -24744652.215 7 -19281527.58323        26.000           2.656
 91  7  4  4 16 59.9960000  0  4G 3G21G17G23
  20797649.770      235322.078 6    183366.16021        19.250           0.906
  22289295.481    -7356104.332 5  -5485431.78121        11.750           0.719
  19735244.887    -6752820.307 7  -5261934.93124        26.250           3.813
  19417271.941   -24766915.089 7 -19298875.26523        26.000           2.625
 91  7  4  4 17 14.9960000  0  4G 3G21G17G23
  20803512.988      266126.831 6    207369.85421        19.000           0.875
  22278286.301    -7413937.728 5  -5530496.71921        11.500           0.688
  19736154.574    -6748040.211 7  -5258210.18124        26.500           3.750
  19413056.004   -24789069.487 7 -19316138.42223        26.000           2.719
 91  7  4  4 17 29.9960000  0  4G 3G21G17G23
  20809395.481      297044.859 6    231461.79821        18.500           0.781
  22267294.340    -7471714.919 6  -5575517.86221        12.250           0.625
  19737077.191    -6743193.316 7  -5254433.37424        26.500           3.719
  19408860.184   -24811112.731 7 -19333314.97123        26.000           2.688
 91  7  4  4 17 44.9960000  0  4G 3G21G17G23
  20815300.777      328073.097 6    255639.62621        19.000           0.906
  22256307.840    -7529438.660 6  -5620497.35521        12.250           0.563
  19738012.059    -6738282.468 7  -5250606.73624        26.250           3.750
  19404687.629   -24833047.696 7 -19350407.14223        26.250           2.656
 91  7  4  4 17 59.9960000  0  4G 3G21G17G23
  20821227.395      359210.831 6    279902.79021        19.500           0.875
  22245333.777    -7587109.171 6  -5665435.35821        12.500           0.531
  19738960.988    -6733307.951 7  -5246730.48224        26.750           3.813
  19400532.426   -24854874.726 7 -19367415.20723        25.000           2.656
 91  7  4  4 18 14.9960000  0  4G 3G21G17G23
  20827172.863      390458.035 6    304251.24121        19.250           0.813
  22234371.934    -7644726.346 6  -5710331.81721        14.000           0.469
  19739916.715    -6728269.985 7  -5242804.79524        26.000           3.813
  19396400.238   -24876593.930 7 -19384339.25423        25.500           2.719
 91  7  4  4 18 29.9960000  0  4G 3G21G17G23
  20833142.207      421821.008 6    328689.91021        19.500           0.875
  22223417.176    -7702283.627 6  -5755181.59921        13.750           0.594
  19740890.715    -6723162.070 7  -5238824.60124        26.250           3.938
  19392288.691   -24898198.935 7 -19401174.30823        25.750           2.625
 91  7  4  4 18 44.9960000  0  4G 3G21G17G23
  20839129.145      453292.610 6    353213.22121        18.250           0.813
  22212475.020    -7759787.984 6  -5799990.16121        14.500           0.563
  19741874.176    -6717991.010 7  -5234795.19224        25.750           3.844
  19388198.316   -24919696.633 7 -19417925.74623        26.250           2.656
 91  7  4  4 18 59.9960000  0  4G 3G21G17G23
  20845139.004      484875.168 6    377822.98721        18.000           0.844
  22201542.027    -7817236.608 6  -5844755.27321        14.500           0.563
  19742869.746    -6712754.218 7  -5230714.57324        26.250           3.875
  19384128.418   -24941084.567 7 -19434591.66523        26.250           2.688
 91  7  4  4 19 14.9960000  0  4G 3G21G17G23
  20851171.340      516566.123 6    402517.21121        18.250           0.844
  22190621.598    -7874631.817 6  -5889478.76321        14.500           0.656
  19743878.637    -6707454.056 7  -5226584.57724        26.250           3.938
  19380078.020   -24962365.201 7 -19451173.96423        25.750           2.719
 91  7  4  4 19 29.9960000  0  4G 3G21G17G23
  20857221.660      548364.814 6    427295.39021        17.750           0.813
  22179708.020    -7931973.811 6  -5934160.78621        14.250           0.750
  19744899.590    -6702091.149 7  -5222405.68124        26.500           4.031
  19376047.691   -24983539.024 7 -19467673.03823        25.750           2.719
 91  7  4  4 19 44.9960000  0  4G 3G21G17G23
  20863291.441      580270.618 6    452157.04421        17.500           0.875
  22168807.168    -7989263.075 6  -5978801.71421        14.500           0.625
  19745930.707    -6696665.827 7  -5218178.16124        26.250           4.125
  19372039.965   -25004606.769 7 -19484089.45423        26.250           2.563
 91  7  4  4 19 59.9960000  0  4G 3G21G17G23
  20869385.543      612286.054 6    477104.11221        17.500           0.875
  22157915.973    -8046496.565 6  -6023399.18321        15.000           0.656
  19746976.559    -6691175.664 7  -5213900.11224        26.750           4.125
  19368050.770   -25025565.587 7 -19500420.99323        25.750           2.719
 91  7  4  4 20 14.9960000  0  4G 3G21G17G23
  20875501.707      644412.899 6    502137.99121        17.500           0.875
  22147035.262    -8103672.262 6  -6067951.62621        15.000           0.750
  19748033.199    -6685618.576 7  -5209569.91424        26.750           4.094
  19364083.941   -25046413.600 7 -19516666.18123        25.250           2.625
 91  7  4  4 20 29.9960000  0  4G 3G21G17G23
  20881630.590      676644.892 6    527253.81521        17.000           0.750
  22136164.191    -8160796.287 6  -6112463.80521        14.500           0.750
  19749103.449    -6680000.795 8  -5205192.41924        28.000           4.031
  19360136.199   -25067156.969 7 -19532829.83723        25.250           2.719
 91  7  4  4 20 44.9960000  0  4G 3G21G17G23
  20887787.402      708987.247 6    552455.64321        17.500           0.844
  22125305.457    -8217862.870 6  -6156931.22321        15.000           0.750
  19750184.816    -6674316.562 7  -5200763.14724        27.500           4.063
  19356210.106   -25087790.410 7 -19548907.82623        26.000           2.781
 91  7  4  4 20 59.9960000  0  4G 3G21G17G23
  20893964.457      741440.446 6    577743.82521        18.500           0.844
  22114457.262    -8274871.352 6  -6201353.36321        15.000           0.688
  19751278.426    -6668565.533 7  -5196281.82824        27.500           4.063
  19352304.449   -25108313.274 7 -19564899.65723        26.000           2.719
 91  7  4  4 21 14.9960000  0  4G 3G21G17G23
  20900157.160      774001.043 6    603115.69721        17.500           0.750
  22103618.418    -8331824.803 6  -6245732.62821        14.250           0.719
  19752385.856    -6662750.828 7  -5191750.88924        27.500           4.094
  19348420.332   -25128728.809 7 -19580807.85723        26.250           2.688
 91  7  4  4 21 29.9960000  0  4G 3G21G17G23
  20906372.504      806668.505 6    628570.85321        17.500           0.781
  22092792.582    -8388723.317 6  -6290069.07921        14.750           0.875
  19753503.160    -6656872.698 7  -5187170.52724        27.500           4.094
  19344554.785   -25149037.423 7 -19596632.74923        25.750           2.625
 91  7  4  4 21 44.9960000  0  4G 3G21G17G23
  20912611.707      839445.601 6    654111.43221        17.500           0.844
  22081977.137    -8445563.754 6  -6334360.27721        13.750           0.750
  19754634.996    -6650928.402 8  -5182538.61324        28.000           4.156
  19340712.012   -25169236.109 7 -19612371.98123        26.250           2.594
 91  7  4  4 21 59.9960000  0  4G 3G21G17G23
  20918871.270      872332.674 6    679737.69321        17.750           0.844
  22071171.238    -8502345.425 6  -6378605.67221        14.250           0.813
  19755778.715    -6644917.130 8  -5177854.50224        28.000           4.125
  19336888.723   -25189324.631 7 -19628025.35823        26.250           2.531
 91  7  4  4 22 14.9960000  0  4G 3G21G17G23
  20925148.535      905323.025 6    705444.43321        17.500           0.813
  22060377.027    -8559074.873 6  -6422810.39421        15.000           0.750
  19756935.441    -6638845.498 8  -5173123.35724        28.250           4.094
  19333086.309   -25209309.194 7 -19643597.73623        25.750           2.625
 91  7  4  4 22 29.9960000  0  4G 3G21G17G23
  20931447.551      938423.237 6    731236.78821        17.500           0.906
  22049594.582    -8615745.249 6  -6466969.07321        15.000           0.813
  19758101.996    -6632706.885 8  -5168340.01924        28.250           4.063
  19329304.684   -25229183.431 7 -19659084.14723        26.000           2.656
 91  7  4  4 22 44.9960000  0  4G 3G21G17G23
  20937764.066      971631.556 6    757113.37921        16.500           0.781
  22038816.363    -8672357.755 6  -6511082.66321        14.500           0.719
  19759283.113    -6626502.745 8  -5163505.62024        28.500           4.063
  19325542.348   -25248948.859 7 -19674485.77523        26.000           2.656
 91  7  4  4 22 59.9960000  0  4G 3G21G17G23
  20944106.981     1004946.701 6    783073.21321        18.250           0.813
  22028052.691    -8728913.604 6  -6555152.10721        13.750           0.781
  19760475.559    -6620234.143 8  -5158620.99524        28.250           3.938
  19321801.746   -25268606.773 7 -19689803.62623        26.000           2.625
 91  7  4  4 23 14.9960000  0  4G 3G21G17G23
  20950465.762     1038369.242 6    809116.72721        17.250           0.875
  22017305.660    -8785411.756 6  -6599176.59621        14.250           0.719
  19761681.863    -6613900.424 8  -5153685.62824        28.750           3.969
  19318082.074   -25288156.267 7 -19705036.99123        26.000           2.531
 91  7  4  4 23 29.9960000  0  4G 3G21G17G23
  20956843.785     1071898.511 6    835243.40921        17.000           0.813
  22006564.582    -8841852.619 6  -6643156.43621        14.000           0.688
  19762897.668    -6607502.086 8  -5148699.91424        28.750           4.000
  19314382.340   -25307597.884 7 -19720186.29623        26.250           2.531
 91  7  4  4 23 44.9960000  0  4G 3G21G17G23
  20963245.426     1105532.556 6    861451.74721        16.000           0.719
  21995834.652    -8898237.928 6  -6687092.98621        13.500           0.688
  19764129.332    -6601040.975 8  -5143665.28224        29.750           3.906
  19310702.121   -25326933.840 7 -19735253.26322        26.500           2.469
 91  7  4  4 23 59.9960000  0  4G 3G21G17G23
  20969668.332     1139272.155 6    887742.32021        17.000           0.750
  21985117.402    -8954566.250 6  -6730985.13421        13.750           0.688
  19765370.754    -6594515.719 8  -5138580.67024        29.500           3.844
  19307043.363   -25346162.681 7 -19750236.77023        26.500           2.656
 91  7  4  4 24 14.9960000  0  4G 3G21G17G23
  20976110.059     1173116.942 6    914114.86721        17.500           0.781
  21974409.762    -9010837.864 6  -6774833.09021        13.750           0.625
  19766623.996    -6587926.774 8  -5133446.42424        29.250           3.906
  19303403.332   -25365284.835 7 -19765137.14223        26.000           2.500
 91  7  4  4 24 29.9960000  0  4G 3G21G17G23
  20982569.902     1207064.375 6    940567.38321        17.500           0.844
  21963711.676    -9067054.973 6  -6818638.58321        13.750           0.594
  19767887.973    -6581276.236 8  -5128264.19424        28.500           3.719
  19299785.379   -25384302.788 7 -19779956.32022        26.750           2.469
 91  7  4  4 24 44.9960000  0  4G 3G21G17G23
  20989046.270     1241118.921 6    967103.35821        16.500           0.844
  21953021.059    -9123212.810 6  -6862397.89421        12.500           0.531
  19769168.887    -6574559.639 8  -5123030.47524        29.750           3.844
  19296186.965   -25403212.084 7 -19794690.84123        27.000           2.500
 91  7  4  4 24 59.9960000  0  4G 3G21G17G23
  20995547.402     1275276.526 6    993719.65621        16.500           0.781
  21942347.934    -9179314.841 6  -6906113.72321        12.250           0.531
  19770456.848    -6567780.679 8  -5117748.17324        29.250           3.750
  19292609.871   -25422016.298 7 -19809343.46722        27.250           2.438
 91  7  4  4 25 14.9960000  0  4G 3G21G17G23
  21002070.059     1309542.452 6   1020420.35521        17.250           0.813
  21931684.606    -9235355.877 5  -6949782.00421        11.750           0.500
  19771760.582    -6560934.335 8  -5112413.35524        30.000           3.844
  19289051.793   -25440710.327 7 -19823910.23723        27.250           2.531
 91  7  4  4 25 29.9960000  0  4G 3G21G17G23
  21008608.637     1343914.738 6   1047203.94021        17.000           0.813
  21921030.066    -9291337.226 5  -6993403.78821        11.500           0.594
  19773076.356    -6554022.132 8  -5107027.22524        29.500           3.875
  19285514.988   -25459295.909 7 -19838392.49723        27.000           2.594
 91  7  4  4 25 44.9960000  0  4G 3G21G17G23
  21015170.684     1378389.269 6   1074067.19221        18.000           0.813
  21910388.762    -9347262.640 5  -7036981.98021        11.250           0.563
  19774404.254    -6547047.733 8  -5101592.63324        29.750           3.813
  19281996.621   -25477776.957 7 -19852793.31223        26.750           2.625
 91  7  4  4 25 59.9960000  0  4G 3G21G17G23
  21021751.270     1412970.298 6   1101013.42621        17.500           0.750
  21899756.949    -9403127.714 5  -7080513.15521        11.500           0.500
  19775743.113    -6540007.137 8  -5096106.44824        29.750           3.813
  19278502.246   -25496149.049 7 -19867109.21623        27.000           2.656
 91  7  4  4 26 14.9960000  0  4G 3G21G17G23
  21028350.574     1447656.755 6   1128041.81421        18.250           0.719
  21889137.488    -9458932.914 5  -7123997.68121        11.750           0.656
  19777094.723    -6532900.657 8  -5090568.92524        29.000           3.781
  19275026.332   -25514413.203 7 -19881341.02023        27.250           2.625
 91  7  4  4 26 29.9960000  0  4G 3G21G17G23
  21034972.145     1482448.238 6   1155152.03521        17.250           0.688
  21878526.840    -9514678.546 5  -7167435.78321        11.750           0.625
  19778460.207    -6525728.778 8  -5084980.45224        29.500           3.844
  19271570.996   -25532569.768 7 -19895488.99023        27.500           2.719
 91  7  4  4 26 44.9960000  0  4G 3G21G17G23
  21041614.512     1517345.439 6   1182344.64521        17.750           0.625
  21867935.262    -9570363.521 6  -7210826.62021        12.250           0.750
  19779836.410    -6518490.648 8  -5079340.35424        29.250           3.750
  19268136.910   -25550617.968 7 -19909552.50923        27.000           2.594
 91  7  4  4 26 59.9960000  0  4G 3G21G17G23
  21048274.613     1552347.098 6   1209618.64521        17.000           0.656
  21857346.410    -9625988.833 6  -7254170.98121        12.500           0.656
  19781226.762    -6511187.327 8  -5073649.45024        29.250           3.719
  19264722.832   -25568558.659 7 -19923532.26723        27.750           2.625
 91  7  4  4 27 14.9960000  0  4G 3G21G17G23
  21054953.785     1587448.988 6   1236970.74521        16.750           0.719
  21846772.981    -9681558.427 6  -7297471.91121        12.500           0.625
  19782627.410    -6503822.918 8  -5067910.95124        28.750           3.563
  19261328.395   -25586396.214 8 -19937431.65523        28.250           2.688
 91  7  4  4 27 29.9960000  0  4G 3G21G17G23
  21061651.863     1622655.652 6   1264404.47921        16.500           0.719
  21836210.160    -9737067.464 6  -7340725.65021        12.500           0.750
  19784043.535    -6496392.482 8  -5062121.00324        29.000           3.781
  19257955.738   -25604125.779 8 -19951246.89623        28.250           2.625
 91  7  4  4 27 44.9960000  0  4G 3G21G17G23
  21068372.496     1657967.422 6   1291920.12021        16.250           0.781
  21825658.035    -9792515.071 6  -7383931.53421        12.750           0.625
  19785468.668    -6488895.229 8  -5056278.98424        28.750           3.688
  19254601.129   -25621746.854 8 -19964977.60023        28.000           2.625
 91  7  4  4 27 59.9960000  0  4G 3G21G17G23
  21075111.074     1693380.568 6   1319514.76721        16.000           0.719
  21815116.590    -9847904.736 6  -7427092.26721        13.000           0.750
  19786908.621    -6481334.959 8  -5050387.86524        29.000           3.688
  19251267.816   -25639263.118 7 -19978626.62723        27.500           2.656
 91  7  4  4 28 14.9960000  0  4G 3G21G17G23
  21081869.535     1728897.624 6   1347190.37721        15.500           0.750
  21804587.176    -9903233.508 6  -7470205.56621        13.500           0.719
  19788359.660    -6473709.018 8  -5044445.57024        29.000           3.719
  19247954.645   -25656671.819 7 -19992191.84623        27.500           2.563
 91  7  4  4 28 29.9960000  0  4G 3G21G17G23
  21088649.145     1764519.953 6   1374948.00521        16.000           0.781
  21794072.012    -9958499.785 6  -7513270.14121        13.750           0.750
  19789822.676    -6466015.937 8  -5038450.96224        28.750           3.594
  19244664.285   -25673971.542 7 -20005672.14923        27.500           2.563
 91  7  4  4 28 44.9960000  0  4G 3G21G17G23
  21095444.660     1800243.169 6   1402784.26021        15.000           0.688
  21783567.496   -10013707.510 6  -7556289.09421        14.250           0.844
  19791299.137    -6458259.703 8  -5032407.15224        29.250           3.563
  19241390.504   -25691166.567 7 -20019070.86423        27.000           2.531
 91  7  4  4 28 59.9960000  0  4G 3G21G17G23
  21102264.254     1836067.344 6   1430699.18121        15.500           0.625
  21773072.621   -10068856.228 6  -7599262.06821        15.000           0.906
  19792786.754    -6450439.963 8  -5026313.84424        29.000           3.500
  19238139.137   -25708256.521 7 -20032387.70422        27.000           2.469
 91  7  4  4 29 14.9960000  0  4G 3G21G17G23
  21109099.137     1871994.105 6   1458694.04121        15.000           0.563
  21762590.895   -10123943.983 6  -7642187.53521        15.000           0.813
  19794285.910    -6442554.799 8  -5020169.55424        28.250           3.500
  19234907.590   -25725239.620 7 -20045621.28223        27.750           2.500
 91  7  4  4 29 29.9960000  0  4G 3G21G17G23
  21115956.559     1908022.958 6   1486768.44321        16.250           0.563
  21752116.652   -10178971.169 6  -7685065.80821        14.750           0.906
  19795801.020    -6434604.809 8  -5013974.76023        28.750           3.406
  19231695.152   -25742116.463 7 -20058772.06422        27.750           2.469
 91  7  4  4 29 44.9960000  0  4G 3G21G17G23
  21122828.340     1944151.818 6   1514920.78721        15.250           0.563
  21741659.574   -10233939.317 6  -7727898.09921        15.750           0.844
  19797324.996    -6426591.499 8  -5007730.62023        28.500           3.469
  19228504.098   -25758888.988 7 -20071841.55923        27.750           2.531
 91  7  4  4 29 59.9960000  0  4G 3G21G17G23
  21129725.348     1980381.367 6   1543151.58421        15.500           0.625
  21731209.160   -10288847.425 6  -7770683.58821        15.500           0.750
  19798859.981    -6418514.060 7  -5001436.50923        27.500           3.406
  19225331.746   -25775556.299 8 -20084829.07623        28.000           2.563
 91  7  4  4 30 14.9960000  0  4G 3G21G17G23
  21136637.356     2016710.516 6   1571459.99221        15.500           0.563
  21720771.316   -10343696.191 6  -7813422.84021        16.000           0.719
  19800410.668    -6410373.673 8  -4995093.35423        28.000           3.406
  19222178.816   -25792119.394 7 -20097735.37523        27.750           2.500
 91  7  4  4 30 29.9960000  0  4G 3G21G17G23
  21143570.840     2053137.327 6   1599844.51221        15.500           0.688
  21710345.731   -10398487.234 6  -7856117.11621        16.000           0.750
  19801971.340    -6402171.874 7  -4988702.34423        27.500           3.344
  19219048.395   -25808580.126 8 -20110561.91723        28.500           2.531
 91  7  4  4 30 44.9960000  0  4G 3G21G17G23
  21150519.770     2089663.959 6   1628306.80421        15.250           0.656
  21699930.379   -10453218.023 6  -7898764.43921        16.000           0.750
  19803545.090    -6393906.050 8  -4982261.44323        28.250           3.250
  19215936.106   -25824936.039 8 -20123306.77923        28.000           2.531
 91  7  4  4 30 59.9960000  0  4G 3G21G17G23
  21157492.145     2126291.021 6   1656847.35221        15.000           0.594
  21689528.551   -10507887.951 6  -7941364.34121        16.000           0.781
  19805131.512    -6385575.765 8  -4975770.30423        29.000           3.250
  19212843.629   -25841186.485 7 -20135969.45822        27.750           2.469
 91  7  4  4 31 14.9960000  0  4G 3G21G17G23
  21164477.856     2163014.714 6   1685463.19321        14.500           0.688
  21679134.402   -10562500.284 6  -7983919.36121        15.750           0.719
  19806727.715    -6377184.403 8  -4969231.58223        28.750           3.250
  19209771.160   -25857335.115 7 -20148552.80722        27.750           2.438
 91  7  4  4 31 29.9960000  0  4G 3G21G17G23
  21171486.332     2199836.157 6   1714155.19821        15.500           0.656
  21668756.246   -10617053.448 6  -8026428.27921        16.750           0.719
  19808335.785    -6368730.644 7  -4962644.23923        27.500           3.156
  19206717.020   -25873380.561 7 -20161055.74622        27.500           2.375
 91  7  4  4 31 44.9960000  0  4G 3G21G17G23
  21178511.715     2236758.758 6   1742926.03521        16.000           0.688
  21658384.270   -10671543.692 6  -8068888.16821        16.000           0.844
  19809957.559    -6360210.872 8  -4956005.45723        28.500           3.125
  19203682.902   -25889319.497 7 -20173475.69022        26.750           2.375
 91  7  4  4 31 59.9960000  0  4G 3G21G17G23
  21185558.777     2273778.576 6   1771772.62021        16.500           0.688
  21648027.363   -10725974.547 6  -8111301.78121        15.750           0.813
  19811589.551    -6351628.461 8  -4949317.86723        28.250           3.063
  19200671.387   -25905155.504 8 -20185815.43222        28.000           2.406
 91  7  4  4 32 14.9960000  0  4G 3G21G17G23
  21192621.043     2310897.424 6   1800696.37521        15.750           0.656
  21637681.191   -10780344.025 6  -8153667.57221        16.000           0.844
  19813236.207    -6342981.917 8  -4942580.29923        28.500           3.063
  19197677.988   -25920886.739 7 -20198073.52922        27.750           2.438
 91  7  4  4 32 29.9960000  0  4G 3G21G17G23
  21199702.965     2348112.487 6   1829695.11321        15.750           0.625
  21627345.277   -10834654.635 6  -8195987.47621        16.000           0.781
  19814893.121    -6334273.703 8  -4935794.68723        28.750           3.031
  19194702.777   -25936515.929 7 -20210252.11722        27.000           2.469
 91  7  4  4 32 44.9960000  0  4G 3G21G17G23
  21206803.809     2385427.325 6   1858771.60021        16.000           0.563
  21617022.441   -10888902.404 6  -8238258.42221        16.250           0.781
  19816562.223    -6325499.700 8  -4928957.80323        28.250           3.000
  19191749.160   -25952039.471 7 -20222348.38222        27.250           2.438
 91  7  4  4 32 59.9960000  0  4G 3G21G17G23
  21213923.012     2422840.970 6   1887925.06221        15.750           0.594
  21606711.113   -10943087.811 6  -8280480.77321        15.500           0.781
  19818245.410    -6316660.840 8  -4922070.38523        29.000           3.188
  19188814.168   -25967457.831 7 -20234362.68322        27.250           2.469
 91  7  4  4 33 14.9960000  0  4G 3G21G17G23
  21221061.691     2460352.835 6   1917155.07421        15.500           0.500
  21596412.856   -10997211.223 6  -8322654.82421        15.250           0.813
  19819939.363    -6307757.440 8  -4915132.67323        29.000           3.188
  19185899.527   -25982771.480 7 -20246295.38322        27.000           2.406
 91  7  4  4 33 29.9960000  0  4G 3G21G17G23
  21228213.926     2497957.363 6   1946457.29521        14.750           0.500
  21586121.395   -11051277.746 6  -8364784.53521        14.750           0.781
  19821644.613    -6298794.952 8  -4908148.91123        29.000           3.188
  19183005.035   -25997986.108 7 -20258150.93723        27.250           2.500
 91  7  4  4 33 44.9960000  0  4G 3G21G17G23
  21235390.856     2535655.484 6   1975832.43421        15.250           0.563
  21575845.934   -11105286.242 6  -8406869.03821        15.250           0.875
  19823361.582    -6289772.172 8  -4901118.17023        28.000           3.250
  19180129.629   -26013100.720 7 -20269928.55523        27.750           2.500
 91  7  4  4 33 59.9960000  0  4G 3G21G17G23
  21242585.145     2573452.165 6   2005284.36521        15.250           0.500
  21565580.348   -11159231.294 6  -8448904.10321        15.000           0.781
  19825091.246    -6280683.918 7  -4894036.41323        27.750           3.219
  19177273.637   -26028109.985 8 -20281624.07823        28.000           2.531
 91  7  4  4 34 14.9960000  0  4G 3G21G17G23
  21249795.285     2611346.712 6   2034812.57021        15.000           0.563
  21555328.652   -11213113.288 6  -8490890.03621        15.500           0.844
  19826831.332    -6271530.672 7  -4886904.02223        27.750           3.219
  19174435.606   -26043014.713 7 -20293238.14323        27.500           2.563
 91  7  4  4 34 29.9960000  0  4G 3G21G17G23
  21257025.129     2649335.221 6   2064413.96821        15.250           0.563
  21545083.816   -11266935.714 6  -8532829.55321        14.750           0.813
  19828585.684    -6262315.869 8  -4879723.65123        28.000           3.156
  19171620.184   -26057818.349 7 -20304773.44522        27.500           2.406
 91  7  4  4 34 44.9960000  0  4G 3G21G17G23
  21264272.074     2687424.158 6   2094093.64621        15.000           0.594
  21534857.441   -11320691.906 6  -8574717.45421        14.750           0.813
  19830352.441    -6253032.987 7  -4872490.23723        27.750           3.188
  19168823.684   -26072514.277 7 -20316224.81222        27.750           2.438
 91  7  4  4 34 59.9960000  0  4G 3G21G17G23
  21271534.168     2725607.045 6   2123846.53321        14.500           0.531
  21524638.215   -11374387.922 6  -8616558.45921        14.750           1.000
  19832131.465    -6243688.310 7  -4865208.67123        27.500           3.094
  19166045.996   -26087108.987 8 -20327597.30523        28.000           2.500
 91  7  4  4 35 14.9960000  0  4G 3G21G17G23
  21278821.285     2763882.161 6   2153671.27321        14.750           0.531
  21514430.465   -11428025.051 6  -8658353.58821        14.750           0.969
  19833918.934    -6234283.115 7  -4857879.94723        27.250           3.219
  19163287.598   -26101604.018 7 -20338892.12822        27.750           2.375
 91  7  4  4 35 29.9960000  0  4G 3G21G17G23
  21286125.402     2802250.311 6   2183568.51221        14.750           0.531
  21504235.668   -11481602.391 6  -8700102.13321        14.500           0.906
  19835722.590    -6224816.585 7  -4850503.42723        27.250           3.156
  19160548.527   -26115998.704 8 -20350108.75922        28.250           2.375
 91  7  4  4 35 44.9960000  0  4G 3G21G17G23
  21293441.551     2840708.384 6   2213535.81821        14.500           0.594
  21494049.973   -11535122.513 6  -8741806.08721        14.500           0.938
  19837533.121    -6215291.554 7  -4843081.33223        27.000           3.219
  19157827.762   -26130295.751 8 -20361249.30922        28.000           2.344
 91  7  4  4 35 59.9960000  0  4G 3G21G17G23
  21300775.137     2879259.598 6   2243575.70521        14.500           0.500
  21483878.738   -11588581.802 6  -8783462.64221        14.500           0.844
  19839359.106    -6205704.709 7  -4835611.06823        26.750           3.094
  19155125.777   -26144491.806 7 -20372311.16722        27.750           2.375
 91  7  4  4 36 14.9950000  0  4G 3G21G17G23
  21308131.874     2917902.816 6   2273687.28621        14.500           0.500
  21473716.452   -11641974.935 6  -8825067.64821        13.750           0.969
  19841195.233    -6196054.825 7  -4828091.67223        27.000           3.188
  19152445.054   -26158584.393 7 -20383292.39623        27.750           2.500
 91  7  4  4 36 29.9950000  0  4G 3G21G17G23
  21315501.202     2956642.856 6   2303874.32521        14.250           0.531
  21463567.007   -11695308.874 6  -8866626.51721        13.500           0.875
  19843042.468    -6186340.545 7  -4820522.10623        26.500           3.250
  19149781.827   -26172575.432 7 -20394194.49422        27.750           2.438
 91  7  4  4 36 44.9950000  0  4G 3G21G17G23
  21322892.351     2995476.932 6   2334134.61621        13.500           0.313
  21453428.913   -11748580.190 6  -8908136.60521        13.250           0.906
  19844905.023    -6176562.739 7  -4812903.03923        27.500           3.250
  19147139.773   -26186464.204 8 -20405016.90522        28.250           2.406
 91  7  4  4 36 59.9950000  0  4G 3G21G17G23
  21330298.210     3034404.148 6   2364467.49221        13.250           0.406
  21443302.827   -11801789.242 6  -8949598.16521        13.500           0.938
  19846775.913    -6166721.914 7  -4805234.86623        27.250           3.188
  19144515.405   -26200251.459 8 -20415760.21922        28.000           2.344
 91  7  4  4 37 14.9950000  0  4G 3G21G17G23
  21337726.249     3073422.250 6   2394871.20621        14.000           0.438
  21433193.210   -11854937.926 6  -8991012.70421        14.500           0.875
  19848660.538    -6156820.093 7  -4797519.16023        26.750           3.125
  19141910.398   -26213939.256 8 -20426426.02522        28.000           2.313
 91  7  4  4 37 29.9950000  0  4G 3G21G17G23
  21345168.515     3112536.735 6   2425349.98521        14.750           0.469
  21423089.108   -11908020.374 6  -9032375.61221        14.250           0.938
  19850557.210    -6146851.487 7  -4789751.41723        26.500           3.156
  19139325.444   -26227521.815 7 -20437009.82322        27.750           2.313
 91  7  4  4 37 44.9950000  0  4G 3G21G17G23
  21352630.132     3151744.696 6   2455901.63221        14.250           0.375
  21413000.257   -11961039.447 6  -9073689.14321        14.000           0.938
  19852466.890    -6136819.258 7  -4781934.10323        27.250           3.188
  19136761.077   -26241002.422 7 -20447514.18622        27.750           2.375
 91  7  4  4 37 59.9950000  0  4G 3G21G17G23
  21360103.312     3191044.780 6   2486525.04821        13.250           0.438
  21402922.773   -12013995.924 6  -9114953.89421        14.000           0.938
  19854387.429    -6126724.003 7  -4774067.67423        27.000           3.188
  19134215.405   -26254381.918 8 -20457939.76622        28.250           2.313
 91  7  4  4 38 14.9950000  0  4G 3G21G17G23
  21367606.905     3230435.132 6   2517218.81121        14.500           0.469
  21392856.296   -12066891.274 6  -9156171.02221        13.500           0.906
  19856321.608    -6116567.392 7  -4766153.43423        27.000           3.188
  19131688.296   -26267661.877 8 -20468287.77622        28.500           2.281
 91  7  4  4 38 29.9950000  0  4G 3G21G17G23
  21375116.819     3269919.030 6   2547985.46521        14.500           0.500
  21382801.827   -12119721.968 6  -9197337.75521        14.250           1.094
  19858265.523    -6106345.968 7  -4758188.69123        27.000           3.125
  19129180.444   -26280838.998 8 -20478555.64922        28.000           2.375
 91  7  4  4 38 44.9950000  0  4G 3G21G17G23
  21382649.812     3309496.323 6   2578824.87621        14.250           0.531
  21372765.898   -12172487.793 6  -9238453.95121        15.750           1.000
  19860221.343    -6096059.755 7  -4750173.46323        26.250           3.000
  19126693.054   -26293913.324 8 -20488743.43322        28.250           2.219
 91  7  4  4 38 59.9950000  0  4G 3G21G17G23
  21390195.132     3349165.739 6   2609736.08921        13.500           0.438
  21362734.444   -12225189.442 6  -9279520.13721        15.500           1.031
  19862191.460    -6085709.602 7  -4742108.40623        26.750           3.156
  19124224.671   -26306885.977 8 -20498851.98322        28.000           2.281
 91  7  4  4 39 14.9950000  0  4G 3G21G17G23
  21397762.179     3388926.718 6   2640718.65821        14.000           0.500
  21352717.304   -12277827.189 6  -9320536.53421        15.750           1.125
  19864174.804    -6075295.789 7  -4733993.74723        26.750           2.875
  19121773.296   -26319757.382 7 -20508881.63922        27.250           2.188
 91  7  4  4 39 29.9950000  0  4G 3G21G17G23
  21405347.390     3428777.917 6   2671771.52321        14.000           0.594
  21342710.819   -12330402.325 6  -9361504.13721        15.250           0.969
  19866167.835    -6064819.471 7  -4725830.38423        26.250           2.969
  19119344.429   -26332528.979 8 -20518833.52622        28.000           2.281
 91  7  4  4 39 44.9950000  0  4G 3G21G17G23
  21412947.476     3468717.548 6   2702893.28421        14.000           0.438
  21332717.835   -12382915.994 6  -9402423.85321        15.500           1.063
  19868172.679    -6054282.217 7  -4717619.54223        26.500           2.938
  19116932.116   -26345202.234 7 -20528708.78022        27.750           2.250
 91  7  4  4 39 59.9950000  0  4G 3G21G17G23
  21420565.280     3508747.357 6   2734085.31321        14.000           0.500
  21322740.648   -12435366.100 6  -9443294.02821        16.250           1.063
  19870191.265    -6043681.942 7  -4709359.58623        26.250           3.000
  19114539.694   -26357775.106 7 -20538505.82022        27.750           2.250
 91  7  4  4 40 14.9950000  0  4G 3G21G17G23
  21428198.937     3548869.782 6   2765349.51621        13.250           0.469
  21312771.898   -12487750.003 6  -9484112.62421        16.250           1.188
  19872219.405    -6033016.137 7  -4701048.56623        25.750           2.875
  19112168.374   -26370245.050 8 -20548222.65422        28.750           2.281
 91  7  4  4 40 29.9950000  0  4G 3G21G17G23
  21435850.562     3589081.967 6   2796683.66721        13.000           0.344
  21302815.851   -12540070.116 6  -9524881.50621        16.500           1.125
  19874261.827    -6022287.395 7  -4692688.50823        26.000           3.000
  19109813.405   -26382614.805 8 -20557861.41422        28.500           2.156
 91  7  4  4 40 44.9950000  0  4G 3G21G17G23
  21443521.718     3629384.744 6   2828088.40921        13.500           0.438
  21292867.944   -12592325.199 6  -9565599.71521        15.750           1.031
  19876315.351    -6011494.577 7  -4684278.52823        26.250           3.063
  19107478.554   -26394883.444 8 -20567421.38522        28.750           2.188
 91  7  4  4 40 59.9950000  0  4G 3G21G17G23
  21451203.280     3669773.038 6   2859559.78021        12.000           0.438
  21282938.929   -12644520.223 6  -9606271.13321        16.500           1.219
  19878380.405    -6000642.550 7  -4675822.39923        26.250           2.969
  19105162.585   -26407056.011 8 -20576906.49322        28.500           2.156
 91  7  4  4 41 14.9950000  0  4G 3G21G17G23
  21458910.944     3710248.089 6   2891098.75521        13.000           0.531
  21273019.046   -12696653.208 6  -9646894.20621        17.250           1.125
  19880456.273    -5989729.412 7  -4667318.65423        26.250           3.156
  19102864.398   -26419130.855 8 -20586315.45222        28.000           2.094
 91  7  4  4 41 29.9950000  0  4G 3G21G17G23
  21466630.265     3750812.623 6   2922707.47421        13.000           0.375
  21263112.179   -12748721.150 6  -9687466.58721        17.000           1.188
  19882545.655    -5978752.585 7  -4658765.28523        26.500           3.063
  19100584.913   -26431105.235 7 -20595646.13422        27.500           2.125
 91  7  4  4 41 44.9950000  0  4G 3G21G17G23
  21474364.069     3791466.408 6   2954385.72221        12.250           0.438
  21253212.687   -12800724.007 6  -9727988.26321        16.750           1.188
  19884647.116    -5967712.102 7  -4650162.30923        26.500           3.063
  19098325.663   -26442979.123 8 -20604898.50322        28.000           2.094
 91  7  4  4 41 59.9950000  0  4G 3G21G17G23
  21482115.460     3832209.167 5   2986133.30221        11.750           0.406
  21243330.562   -12852661.776 6  -9768459.21521        17.750           1.156
  19886760.390    -5956607.984 7  -4641509.74923        26.500           3.031
  19096085.319   -26454752.924 7 -20614072.88422        27.750           2.125
 91  7  4  4 42 14.9950000  0  4G 3G21G17G23
  21489888.226     3873041.608 5   3017950.76221        11.750           0.406
  21233460.312   -12904533.087 6  -9808878.38821        17.750           1.031
  19888886.273    -5945438.754 7  -4632806.44823        26.250           3.031
  19093864.312   -26466425.513 8 -20623168.41222        28.250           2.125
 91  7  4  4 42 29.9950000  0  4G 3G21G17G23
  21497676.179     3913967.262 5   3049840.86921        11.500           0.563
  21223603.702   -12956334.361 6  -9849242.97621        18.250           1.031
  19891024.335    -5934200.989 7  -4624049.75023        25.500           3.094
  19091663.241   -26477993.373 8 -20632182.31722        28.500           2.031
 91  7  4  4 42 44.9950000  0  4G 3G21G17G23
  21505479.398     3954978.515 5   3081797.66021        11.250           0.469
  21213756.577   -13008072.747 6  -9889558.57321        18.000           1.000
  19893173.257    -5922902.017 7  -4615245.35223        25.250           3.063
  19089479.827   -26489464.072 8 -20641120.51622        28.500           2.063
 91  7  4  4 42 59.9950000  0  4G 3G21G17G23
  21513299.093     3996075.706 5   3113821.42221        11.250           0.406
  21203923.366   -13059747.521 6  -9929824.60021        18.000           1.000
  19895335.241    -5911541.292 7  -4606392.83723        25.250           3.125
  19087316.319   -26500836.836 8 -20649982.40322        28.750           2.094
 91  7  4  4 43 14.9950000  0  4G 3G21G17G23
  21521137.679     4037261.857 5   3145914.50421        11.750           0.469
  21194101.585   -13111355.354 6  -9970038.45821        18.000           0.906
  19897510.780    -5900115.745 7  -4597489.81723        24.750           3.094
  19085171.398   -26512108.717 8 -20658765.67722        29.250           2.125
 91  7  4  4 43 29.9950000  0  4G 3G21G17G23
  21528992.429     4078538.678 5   3178078.22421        11.750           0.406
  21184294.835   -13162894.339 6 -10010198.68121        18.500           0.875
  19899696.187    -5888623.309 7  -4588534.67823        24.000           3.094
  19083045.499   -26523277.915 8 -20667468.94222        29.500           2.094
 91  7  4  4 43 44.9950000  0  4G 3G21G17G23
  21536860.921     4119901.965 5   3210309.32321        11.250           0.375
  21174502.304   -13214367.923 6 -10050307.93821        18.750           0.906
  19901895.358    -5877067.350 7  -4579530.04123        24.250           3.125
  19080940.343   -26534348.104 8 -20676095.06122        29.750           2.094
 91  7  4  4 43 59.9950000  0  4G 3G21G17G23
  21544752.327     4161352.286 5   3242608.25221        11.750           0.375
  21164718.148   -13265775.618 6 -10090365.85121        19.000           0.906
  19904106.733    -5865447.596 7  -4570475.68923        24.000           3.156
  19078850.976   -26545319.084 8 -20684643.86522        29.750           2.156
 91  7  4  4 44 14.9950000  0  4G 3G21G17G23
  21552657.257     4202888.753 5   3274974.30421        11.500           0.469
  21154947.765   -13317117.689 6 -10130372.62721        19.000           0.906
  19906330.226    -5853764.589 7  -4561372.05323        24.000           3.156
  19076781.679   -26556191.428 8 -20693115.81622        29.250           2.219
 91  7  4  4 44 29.9950000  0  4G 3G21G17G23
  21560573.765     4244509.254 5   3307405.84821        11.500           0.438
  21145191.858   -13368395.938 6 -10170329.68121        19.000           0.938
  19908564.351    -5842020.386 7  -4552220.73223        24.000           3.031
  19074731.312   -26566966.816 8 -20701512.21622        29.000           2.125
 91  7  4  4 44 44.9950000  0  4G 3G21G17G23
  21568514.554     4286212.552 6   3339901.88921        12.000           0.438
  21135443.249   -13419611.211 6 -10210237.64321        18.500           0.969
  19910812.288    -5830215.693 7  -4543022.27423        24.000           3.000
  19072699.687   -26577646.533 8 -20709834.06722        29.750           2.094
 91  7  4  4 44 59.9950000  0  4G 3G21G17G23
  21576464.148     4328005.686 6   3372467.93421        12.250           0.469
  21125711.187   -13470755.938 6 -10250090.64421        17.500           1.063
  19913070.444    -5818343.019 7  -4533770.83523        24.000           2.969
  19070687.163   -26588223.230 8 -20718075.64322        30.000           2.094
 91  7  4  4 45 14.9950000  0  4G 3G21G17G23
  21584433.257     4369881.459 6   3405098.37821        12.750           0.406
  21115989.593   -13521837.344 6 -10289894.30721        17.250           1.063
  19915342.858    -5806409.484 7  -4524471.98323        24.500           2.875
  19068691.898   -26598704.163 8 -20726242.59822        29.750           2.094
 91  7  4  4 45 29.9950000  0  4G 3G21G17G23
  21592416.960     4411840.204 6   3437793.47421        12.750           0.313
  21106278.960   -13572854.301 6 -10329647.74221        16.250           0.969
  19917625.913    -5794414.297 7  -4515125.09023        25.000           2.875
  19066715.257   -26609088.840 8 -20734334.54122        30.000           2.063
 91  7  4  4 45 44.9950000  0  4G 3G21G17G23
  21600421.069     4453884.175 6   3470555.01721        12.250           0.375
  21096584.765   -13623804.468 6 -10369349.14221        16.750           0.906
  19919917.726    -5782355.044 7  -4505728.27223        24.000           2.938
  19064758.593   -26619374.757 8 -20742349.54522        30.250           2.063
 91  7  4  4 45 59.9950000  0  4G 3G21G17G23
  21608434.663     4496010.346 6   3503380.57021        12.750           0.313
  21086902.812   -13674690.496 6 -10409000.55421        17.000           1.000
  19922226.257    -5770234.895 7  -4496284.00823        23.500           2.844
  19062820.507   -26629564.948 8 -20750289.95222        31.250           2.250
 91  7  4  4 46 14.9950000  0  4G 3G21G17G23
  21616469.523     4538221.787 6   3536272.58621        12.750           0.281
  21077233.499   -13725508.946 6 -10448599.30521        17.250           1.000
  19924543.562    -5758050.195 7  -4486789.43723        23.750           2.938
  19060899.444   -26639656.072 8 -20758153.15422        30.750           2.219
 91  7  4  4 46 29.9950000  0  4G 3G21G17G23
  21624514.108     4580518.833 6   3569231.28921        12.500           0.375
  21067574.187   -13776259.051 6 -10488144.80421        16.250           1.063
  19926875.952    -5745800.455 7  -4477244.18223        24.500           2.813
  19058997.296   -26649647.804 8 -20765938.91522        30.250           2.125
 91  7  4  4 46 44.9950000  0  4G 3G21G17G23
  21632580.062     4622897.466 6   3602253.58821        12.000           0.375
  21057927.327   -13826944.540 6 -10527639.95321        15.750           1.094
  19929218.507    -5733489.437 7  -4467651.17823        24.000           2.844
  19057115.163   -26659543.873 8 -20773650.13422        30.500           2.313
 91  7  4  4 46 59.9950000  0  4G 3G21G17G23
  21640658.398     4665355.867 6   3635338.03121        12.000           0.281
  21048294.648   -13877566.890 6 -10567085.91021        15.250           1.031
  19931571.476    -5721118.675 7  -4458011.62623        24.250           2.719
  19055250.640   -26669345.947 8 -20781288.11022        31.000           2.313
 91  7  4  4 47 14.9950000  0  4G 3G21G17G23
  21648756.343     4707899.107 5   3668488.55521        11.250           0.250
  21038678.007   -13928120.670 6 -10606478.44121        15.750           1.188
  19933938.046    -5708682.802 7  -4448321.33823        23.750           2.688
  19053403.593   -26679049.003 8 -20788848.92422        31.250           2.219
 91  7  4  4 47 29.9950000  0  4G 3G21G17G23
  21656865.257     4750521.930 5   3701701.14421        11.000           0.375
  21029070.265   -13978610.701 6 -10645821.28521        16.000           1.031
  19936315.726    -5696186.609 7  -4438584.05023        24.500           2.594
  19051574.288   -26688658.001 8 -20796336.45522        30.750           2.281
 91  7  4  4 47 44.9950000  0  4G 3G21G17G23
  21664993.030     4793226.974 5   3734977.76421        11.000           0.406
  21019472.648   -14029033.912 6 -10685112.04721        15.750           1.031
  19938705.866    -5683627.336 7  -4428797.59423        24.500           2.656
  19049764.640   -26698170.132 8 -20803748.50522        31.000           2.281
 91  7  4  4 47 59.9950000  0  4G 3G21G17G23
  21673134.327     4836012.069 5   3768316.77821        11.250           0.281
  21009891.132   -14079392.101 6 -10724352.15321        16.000           1.063
  19941108.476    -5671006.723 7  -4418963.35323        24.000           2.563
  19047972.577   -26707587.333 8 -20811086.57722        31.500           2.250
 91  7  4  4 48 14.9950000  0  4G 3G21G17G23
  21681291.812     4878880.835 5   3801720.98521        10.750           0.313
  21000322.194   -14129681.430 6 -10763538.60921        16.000           1.031
  19943521.343    -5658321.285 7  -4409078.59523        24.250           2.563
  19046199.765   -26716905.962 8 -20818347.84022        31.250           2.156
 91  7  4  4 48 29.9950000  0  4G 3G21G17G23
  21689466.132     4921831.052 5   3835188.66121        11.250           0.375
  20990762.312   -14179903.606 6 -10802672.74621        16.000           1.031
  19945947.327    -5645572.625 7  -4399144.58123        24.500           2.563
  19044443.858   -26726128.017 8 -20825533.85622        30.750           2.281
 91  7  4  4 48 44.9950000  0  4G 3G21G17G23
  21697654.546     4964863.375 5   3868720.31721        11.000           0.375
  20981219.562   -14230057.645 6 -10841753.78521        16.000           1.094
  19948387.757    -5632759.793 7  -4389160.54723        24.750           2.531
  19042707.663   -26735252.629 8 -20832643.94622        30.750           2.281
 91  7  4  4 48 59.9950000  0  4G 3G21G17G23
  21705858.358     5007974.761 5   3902313.57321        10.750           0.375
  20971687.944   -14280146.258 6 -10880783.83021        16.000           1.063
  19950836.257    -5619885.694 7  -4379128.77823        24.250           2.656
  19040989.726   -26744282.883 8 -20839680.50322        31.500           2.281
 91  7  4  4 49 14.9950000  0  4G 3G21G17G23
  21714078.304     5051167.787 5   3935970.45821        11.500           0.281
  20962169.226   -14330166.516 6 -10919760.61621        15.750           1.094
  19953298.952    -5606947.515 7  -4369047.08323        24.250           2.688
  19039289.632   -26753215.704 8 -20846641.14022        31.250           2.281
 91  7  4  4 49 29.9950000  0  4G 3G21G17G23
  21722314.952     5094443.364 5   3969691.66321        11.750           0.344
  20952663.421   -14380117.145 6 -10958683.14921        15.750           1.031
  19955772.726    -5593943.997 7  -4358914.47323        23.750           2.688
  19037609.249   -26762050.283 8 -20853525.22122        31.750           2.344
 91  7  4  4 49 44.9950000  0  4G 3G21G17G23
  21730564.241     5137797.398 6   4003473.99921        12.000           0.281
  20943173.179   -14430001.975 6 -10997554.41221        16.250           1.094
  19958257.452    -5580878.996 7  -4348733.95623        23.750           2.719
  19035946.233   -26770790.563 8 -20860335.82822        31.250           2.375
 91  7  4  4 49 59.9950000  0  4G 3G21G17G23
  21738830.226     5181227.066 5   4037315.26721        11.250           0.375
  20933691.663   -14479823.259 6 -11036376.16021        15.750           1.094
  19960755.273    -5567755.062 7  -4338507.51323        23.750           2.688
  19034301.015   -26779439.360 8 -20867075.15522        31.750           2.375
 91  7  4  4 50 14.9950000  0  4G 3G21G17G23
  21747108.312     5224735.807 5   4071218.14721        10.000           0.313
  20924222.171   -14529577.247 6 -11075145.46321        15.750           1.219
  19963265.288    -5554568.484 7  -4328232.25323        23.750           2.813
  19032671.194   -26787992.813 8 -20873740.17322        31.750           2.406
 91  7  4  4 50 29.9950000  0  4G 3G21G17G23
  21755395.937     5268319.790 5   4105179.65321         9.500           0.313
  20914768.187   -14579267.414 6 -11113865.04021        17.000           1.281
  19965787.163    -5541322.662 7  -4317910.83323        23.500           2.781
  19031062.163   -26796454.862 8 -20880333.97922        31.750           2.406
 91  7  4  4 50 44.9950000  0  4G 3G21G17G23
  21763712.944     5311985.736 5   4139205.03521        10.000           0.375
  20905326.569   -14628886.801 6 -11152529.44821        17.250           1.375
  19968317.976    -5528010.990 7  -4307538.11523        24.000           2.844
  19029469.648   -26804818.475 8 -20886851.08322        30.750           2.469
 91  7  4  4 50 59.9950000  0  4G 3G21G17G23
  21772036.718     5355728.914 5   4173290.59421        10.000           0.375
  20895895.640   -14678439.607 6 -11191141.98621        17.000           1.281
  19970865.780    -5514637.572 7  -4297117.26923        24.750           2.844
  19027895.624   -26813088.130 8 -20893294.96123        30.750           2.500
 91  7  4  4 51 14.9950000  0  4G 3G21G17G23
  21780370.038     5399550.524 5   4207437.27621         9.750           0.344
  20886480.796   -14727924.168 6 -11229701.34821        17.000           1.313
  19973423.085    -5501200.794 7  -4286647.05423        25.000           2.781
  19026341.601   -26821262.680 8 -20899664.73523        31.250           2.500
 91  7  4  4 51 29.9950000  0  4G 3G21G17G23
  21788728.632     5443450.754 5   4241645.21321        11.250           0.375
  20877075.288   -14777340.110 6 -11268207.24521        17.000           1.375
  19975989.804    -5487700.629 7  -4276127.44523        24.750           2.781
  19024802.374   -26829341.853 8 -20905960.18422        30.250           2.469
 91  7  4  4 51 44.9950000  0  4G 3G21G17G23
  21797098.233     5487428.014 5   4275913.18821        11.000           0.344
  20867683.937   -14826688.660 6 -11306660.61921        17.500           1.313
  19978571.491    -5474137.951 7  -4265559.12523        24.750           2.781
  19023283.085   -26837326.758 8 -20912182.19123        30.000           2.563
 91  7  4  4 51 59.9950000  0  4G 3G21G17G23
  21805480.140     5531483.124 5   4310241.79721        11.000           0.250
  20858308.741   -14875968.646 6 -11345060.57221        18.000           1.375
  19981163.999    -5460511.896 7  -4254941.41923        24.750           2.750
  19021782.991   -26845216.668 8 -20918330.16423        30.250           2.625
 91  7  4  4 52 14.9950000  0  4G 3G21G17G23
  21813876.624     5575613.618 5   4344629.15721        10.500           0.313
  20848941.265   -14925182.131 6 -11383408.69921        17.500           1.406
  19983769.507    -5446824.775 7  -4244276.14123        25.000           2.719
  19020298.187   -26853013.890 8 -20924405.91923        30.000           2.594
 91  7  4  4 52 29.9950000  0  4G 3G21G17G23
  21822288.702     5619822.010 5   4379077.24321         9.750           0.281
  20839590.233   -14974326.248 6 -11421702.78021        18.250           1.406
  19986385.476    -5433073.824 7  -4233561.11823        25.000           2.719
  19018831.741   -26860715.722 8 -20930407.34423        29.500           2.563
 91  7  4  4 52 44.9950000  0  4G 3G21G17G23
  21830713.554     5664110.247 5   4413587.51621         9.250           0.375
  20830251.937   -15023398.721 6 -11459941.03721        18.750           1.469
  19989015.843    -5419256.609 7  -4222794.45823        25.000           2.625
  19017386.554   -26868319.980 8 -20936332.74123        29.750           2.625
 91  7  4  4 52 59.9950000  0  4G 3G21G17G23
  21839163.351     5708476.396 5   4448158.52221        10.500           0.344
  20820923.593   -15072400.967 6 -11498124.57421        17.750           1.438
  19991655.405    -5405374.635 7  -4211977.33123        25.000           2.625
  19015957.726   -26875828.413 8 -20942183.45523        29.750           2.625
 91  7  4  4 53 14.9950000  0  4G 3G21G17G23
  21847618.499     5752916.938 5   4482787.45421        11.000           0.281
  20811613.694   -15121336.220 6 -11536255.91521        18.000           1.438
  19994309.132    -5391431.296 7  -4201112.39223        25.250           2.594
  19014546.562   -26883244.555 8 -20947962.26423        29.250           2.625
 91  7  4  4 53 29.9950000  0  4G 3G21G17G23
  21856087.718     5797435.008 5   4517476.83421        11.000           0.188
  20802315.562   -15170200.960 6 -11574332.30221        18.500           1.406
  19996975.171    -5377423.184 7  -4190196.98923        25.250           2.563
  19013153.413   -26890565.237 8 -20953666.68723        29.000           2.594
 91  7  4  4 53 44.9950000  0  4G 3G21G17G23
  21864571.765     5842031.961 5   4552227.66121        11.250           0.250
  20793032.273   -15218993.347 6 -11612352.31321        19.000           1.438
  19999654.483    -5363348.536 7  -4179229.72623        24.750           2.500
  19011778.405   -26897788.626 8 -20959295.29523        28.750           2.719
 91  7  4  4 53 59.9950000  0  4G 3G21G17G23
  21873075.015     5886706.150 5   4587038.70221        11.250           0.281
  20783760.226   -15267714.800 6 -11650317.05621        18.750           1.375
  20002343.358    -5349209.007 7  -4168211.91122        24.500           2.438
  19010422.023   -26904916.432 8 -20964849.42823        28.750           2.813
 91  7  4  4 54 14.9950000  0  4G 3G21G17G23
  21881592.429     5931452.941 5   4621906.30621        11.500           0.250
  20774501.671   -15316369.429 6 -11688229.71521        18.750           1.375
  20005046.343    -5335008.911 7  -4157146.89922        24.000           2.406
  19009083.093   -26911952.903 8 -20970332.38723        28.500           2.531
 91  7  4  4 54 29.9950000  0  4G 3G21G17G23
  21890122.741     5976270.191 5   4656828.80721        11.500           0.313
  20765253.796   -15364959.255 6 -11726091.88421        18.500           1.406
  20007759.413    -5320750.021 7  -4146036.07722        24.500           2.469
  19007760.421   -26918900.186 8 -20975745.84723        28.000           2.531
 91  7  4  4 54 44.9950000  0  4G 3G21G17G23
  21898661.983     6021165.673 5   4691812.26321        11.000           0.344
  20756020.976   -15413476.071 6 -11763897.17721        18.750           1.344
  20010483.249    -5306423.939 7  -4134872.90522        24.000           2.438
  19006457.999   -26925750.399 8 -20981083.67423        28.750           2.656
 91  7  4  4 54 59.9950000  0  4G 3G21G17G23
  21907219.163     6066132.164 5   4726851.04721        11.250           0.281
  20746803.101   -15461926.611 6 -11801650.81421        18.750           1.313
  20013224.773    -5292037.816 7  -4123662.94423        24.250           2.531
  19005171.116   -26932510.419 8 -20986351.21323        28.500           2.688
 91  7  4  4 55 14.9950000  0  4G 3G21G17G23
  21915790.866     6111172.976 5   4761947.76121        11.750           0.219
  20737595.905   -15510307.014 6 -11839349.79622        18.250           1.500
  20015972.054    -5277588.146 7  -4112403.46523        24.000           2.656
  19003902.890   -26939176.835 8 -20991545.82223        28.250           2.625
 91  7  4  4 55 29.9950000  0  4G 3G21G17G23
  21924378.187     6156285.273 5   4797100.18521        11.500           0.250
  20728403.343   -15558620.310 6 -11876996.50121        18.500           1.469
  20018733.898    -5263077.869 7  -4101096.76523        24.250           2.625
  19002650.929   -26945752.743 8 -20996669.90523        28.250           2.625
 91  7  4  4 55 44.9950000  0  4G 3G21G17G23
  21932973.749     6201467.710 5   4832307.22521        11.000           0.344
  20719220.374   -15606867.113 6 -11914591.39321        18.750           1.469
  20021507.624    -5248507.408 7  -4089743.15922        23.750           2.469
  19001416.835   -26952238.941 8 -21001724.08223        29.000           2.656
 91  7  4  4 55 59.9950000  0  4G 3G21G17G23
  21941583.655     6246718.992 5   4867567.92921        10.250           0.375
  20710052.163   -15655048.483 6 -11952135.29122        19.000           1.625
  20024290.851    -5233878.021 7  -4078343.64723        23.750           2.594
  19000199.241   -26958636.645 8 -21006709.29923        29.000           2.594
 91  7  4  4 56 14.9950000  0  4G 3G21G17G23
  21950208.187     6292042.578 5   4902884.94721        10.750           0.250
  20700897.648   -15703160.561 6 -11989625.19622        19.000           1.625
  20027084.273    -5219186.190 7  -4066895.46823        23.500           2.656
  18998999.648   -26964942.234 8 -21011622.74023        28.500           2.625
 91  7  4  4 56 29.9950000  0  4G 3G21G17G23
  21958848.085     6337436.756 5   4938257.02721        11.500           0.281
  20691755.749   -15751204.602 6 -12027062.08122        19.500           1.625
  20029893.296    -5204433.071 7  -4055399.53223        23.000           2.719
  18997816.124   -26971157.163 8 -21016465.53923        28.000           2.594
 91  7  4  4 56 44.9950000  0  4G 3G21G17G23
  21967500.257     6382902.392 5   4973684.74521        11.500           0.219
  20682624.827   -15799179.422 6 -12064445.02822        19.000           1.656
  20032713.077    -5189617.459 7  -4043854.91223        24.250           2.938
  18996650.585   -26977280.487 7 -21021236.96123        27.250           2.531
 91  7  4  4 56 59.9950000  0  4G 3G21G17G23
  21976164.562     6428438.900 5   5009167.72321        11.250           0.344
  20673509.882   -15847084.991 6 -12101774.01022        19.500           1.688
  20035544.710    -5174739.661 7  -4032261.83723        23.750           2.813
  18995504.335   -26983312.615 7 -21025937.31523        27.750           2.500
 91  7  4  4 57 14.9950000  0  4G 3G21G17G23
  21984840.085     6474046.278 5   5044705.89921        10.750           0.281
  20664406.741   -15894921.321 6 -12139049.04122        19.500           1.594
  20038387.413    -5159799.491 7  -4020620.15923        24.000           2.750
  18994372.937   -26989253.531 7 -21030566.58823        27.500           2.563
 91  7  4  4 57 29.9950000  0  4G 3G21G17G23
  21993534.858     6519726.556 5   5080300.88821        11.250           0.094
  20655317.718   -15942685.741 6 -12176268.03822        19.250           1.594
  20041241.718    -5144794.324 7  -4008927.83523        24.000           2.844
  18993261.280   -26995100.802 7 -21035122.89823        27.750           2.531
 91  7  4  4 57 44.9950000  0  4G 3G21G17G23
  22002245.327     6565476.543 5   5115950.18621        11.500           0.281
  20646240.155   -15990381.402 6 -12213433.46322        19.250           1.563
  20044110.804    -5129727.970 7  -3997187.82423        24.000           2.813
  18992164.062   -27000857.881 7 -21039608.92523        27.500           2.625
 91  7  4  4 57 59.9950000  0  4G 3G21G17G23
  22010960.554     6611297.514 5   5151654.79521        11.000           0.281
  20637176.874   -16038006.230 6 -12250543.69822        19.500           1.531
  20046989.577    -5114598.112 7  -3985398.33723        24.500           2.781
  18991087.265   -27006522.944 7 -21044023.25123        27.750           2.563
 91  7  4  4 58 14.9950000  0  4G 3G21G17G23
  22019693.718     6657186.931 5   5187412.75921        10.500           0.281
  20628126.679   -16085562.661 6 -12287600.63122        19.000           1.594
  20049878.296    -5099407.222 7  -3973561.28523        24.000           2.781
  18990026.265   -27012098.572 7 -21048367.89023        27.750           2.594
 91  7  4  4 58 29.9950000  0  4G 3G21G17G23
  22028439.929     6703143.843 5   5223223.28521        10.750           0.375
  20619090.249   -16133051.125 6 -12324604.59821        19.000           1.469
  20052783.077    -5084155.677 7  -3961676.96623        24.000           2.594
  18988983.023   -27017585.325 8 -21052643.27823        28.000           2.656
 91  7  4  4 58 44.9950000  0  4G 3G21G17G23
  22037199.460     6749169.638 5   5259087.49721        10.500           0.313
  20610067.077   -16180469.988 6 -12361554.34322        19.000           1.531
  20055696.288    -5068842.021 7  -3949744.24923        24.250           2.594
  18987954.421   -27022981.801 7 -21056848.31622        27.750           2.469
 91  7  4  4 58 59.9950000  0  4G 3G21G17G23
  22045968.718     6795263.027 5   5295004.40021         9.500           0.250
  20601058.437   -16227820.039 6 -12398450.46622        19.250           1.500
  20058621.929    -5053467.002 7  -3937763.72423        24.250           2.594
  18986944.538   -27028289.009 8 -21060983.79523        28.250           2.563
 91  7  4  4 59 14.9950000  0  4G 3G21G17G23
  22054750.968     6841427.630 5   5330976.79021         8.750           0.375
  20592060.890   -16275097.380 6 -12435289.93321        19.000           1.438
  20061559.757    -5038027.169 7  -3925732.69423        24.250           2.563
  18985951.538   -27033503.213 8 -21065046.80423        28.000           2.594
 91  7  4  4 59 29.9950000  0  4G 3G21G17G23
  22063551.069     6887661.281 5   5367002.96321         9.000           0.281
  20583078.921   -16322303.827 6 -12472074.14821        19.500           1.469
  20064510.179    -5022524.109 7  -3913652.39822        23.250           2.281
  18984977.882   -27038626.570 8 -21069039.03223        28.750           2.531
 91  7  4  4 59 44.9950000  0  4G 3G21G17G23
  22072362.194     6933964.454 5   5403083.31421         9.000           0.313
  20574108.452   -16369438.555 6 -12508802.46721        18.750           1.469
  20067471.030    -5006957.070 7  -3901522.24322        24.500           2.375
  18984020.944   -27043658.651 8 -21072960.12322        28.500           2.438
 91  7  4  4 59 59.9950000  0  4G 3G21G17G23
  22081188.124     6980338.769 5   5439219.12021         9.500           0.344
  20565153.030   -16416499.255 6 -12545473.11522        18.750           1.500
  20070447.116    -4991323.908 7  -3889340.56622        24.000           2.313
  18983079.460   -27048597.258 7 -21076808.38923        27.750           2.531
 91  7  4  5  0 14.9950000  0  4G 3G21G17G23
  22090029.460     7026784.064 5   5475410.21421         9.500           0.219
  20556210.273   -16463486.351 6 -12582086.41322        19.000           1.500
  20073435.046    -4975625.315 7  -3877107.90022        23.250           2.219
  18982158.382   -27053442.748 8 -21080584.09722        28.750           2.438
 91  7  4  5  0 29.9950000  0  4G 3G21G17G23
  22098879.608     7073299.921 5   5511656.30021         9.500           0.250
  20547283.773   -16510399.518 6 -12618642.10521        19.250           1.406
  20076435.077    -4959860.808 7  -3864823.88022        23.750           2.188
  18981253.249   -27058195.269 8 -21084287.35022        28.500           2.406
 91  7  4  5  0 44.9950000  0  4G 3G21G17G23
  22107743.679     7119881.749 5   5547953.78821         9.500           0.188
  20538369.991   -16557242.997 6 -12655143.49121        19.250           1.438
  20079446.085    -4944034.579 7  -3852491.77022        23.750           2.281
  18980367.062   -27062859.212 8 -21087921.58523        29.000           2.531
 91  7  4  5  0 59.9950000  0  4G 3G21G17G23
  22116614.991     7166529.504 5   5584302.65521         9.250           0.281
  20529470.640   -16604016.498 6 -12691590.34522        19.750           1.500
  20082469.194    -4928146.541 7  -3840111.49622        23.250           2.188
  18979494.812   -27067434.617 8 -21091486.83022        29.000           2.438
 91  7  4  5  1 14.9950000  0  4G 3G21G17G23
  22125507.655     7213242.691 5   5620702.49021         9.000           0.250
  20520580.976   -16650719.944 6 -12727982.60121        19.000           1.438
  20085505.288    -4912196.899 7  -3827683.20422        23.500           2.188
  18978642.483   -27071921.416 8 -21094983.03422        29.250           2.375
 91  7  4  5  1 29.9950000  0  4G 3G21G17G23
  22134413.374     7260022.856 5   5657154.53021         9.500           0.250
  20511706.062   -16697351.609 6 -12764318.93621        18.500           1.469
  20088551.913    -4896183.701 7  -3815205.39922        24.250           2.250
  18977805.413   -27076317.993 8 -21098408.92823        28.750           2.531
 91  7  4  5  1 44.9950000  0  4G 3G21G17G23
  22143325.546     7306866.465 5   5693656.01021         9.250           0.219
  20502848.335   -16743914.850 6 -12800601.95421        19.250           1.313
  20091610.765    -4880110.473 7  -3802680.80222        24.750           2.250
  18976985.921   -27080628.155 8 -21101767.48522        28.500           2.469
 91  7  4  5  1 59.9950000  0  4G 3G21G17G23
  22152252.257     7353774.865 5   5730207.95521         9.250           0.219
  20494002.507   -16790407.627 6 -12836830.06021        19.750           1.313
  20094681.030    -4863975.332 7  -3790107.97222        23.750           2.250
  18976180.898   -27084850.024 8 -21105057.24822        28.000           2.406
 91  7  4  5  2 14.9950000  0  4G 3G21G17G23
  22161189.296     7400748.515 5   5766810.77521         9.250           0.250
  20485163.499   -16836829.273 6 -12873002.73721        18.250           1.313
  20097763.288    -4847777.713 7  -3777486.45922        23.750           2.219
  18975394.687   -27088983.046 8 -21108277.78122        28.750           2.438
 91  7  4  5  2 29.9950000  0  4G 3G21G17G23
  22170136.179     7447789.455 5   5803466.00921         8.750           0.281
  20476346.257   -16883177.179 6 -12909117.97621        19.000           1.250
  20100857.663    -4831515.062 7  -3764814.27022        23.750           2.281
  18974625.921   -27093024.943 8 -21111427.30522        28.750           2.281
 91  7  4  5  2 44.9950000  0  4G 3G21G17G23
  22179104.444     7494895.481 5   5840171.97921         8.750           0.250
  20467540.054   -16929453.467 6 -12945177.40921        19.500           1.281
  20103963.530    -4815189.386 7  -3752092.97122        23.500           2.375
  18973873.952   -27096977.929 8 -21114507.54722        28.750           2.344
 91  7  4  5  2 59.9950000  0  4G 3G21G17G23
  22188083.749     7542068.560 5   5876930.17521         8.500           0.281
  20458749.327   -16975655.454 6 -12981178.92721        19.250           1.313
  20107084.405    -4798798.255 7  -3739320.67522        24.250           2.375
  18973139.382   -27100839.765 8 -21117516.76423        28.750           2.500
 91  7  4  5  3 14.9950000  0  4G 3G21G17G23
  22197070.491     7589303.897 5   5913736.88321         8.500           0.250
  20449972.983   -17021787.825 6 -13017126.19321        19.750           1.375
  20110213.577    -4782346.481 7  -3726501.12522        24.500           2.406
  18972419.468   -27104615.279 8 -21120458.71422        28.000           2.313
 91  7  4  5  3 29.9950000  0  4G 3G21G17G23
  22206073.976     7636606.586 5   5950596.09421         8.750           0.344
  20441203.382   -17067845.035 6 -13053014.88321        18.750           1.344
  20113359.507    -4765828.711 7  -3713630.14922        25.250           2.344
  18971718.765   -27108299.036 8 -21123329.16922        28.000           2.344
 91  7  4  5  3 44.9950000  0  5G 3G21G17G11G23
  22215087.452     7683970.768 5   5987503.23121         9.500           0.281
  20432455.116   -17113832.388 6 -13088849.14521        19.500           1.281
  20116511.288    -4749250.159 7  -3700711.80722        24.000           2.469
  23181135.218          -0.82414                         7.250
  18971034.257   -27111896.518 8 -21126132.39522        28.000           2.344
 91  7  4  5  3 59.9950000  0  5G 3G21G17G11G23
  22224109.640     7731396.811 5   6024458.53321         9.250           0.281
  20423715.273   -17159749.424 6 -13124628.61421        19.000           1.438
  20119680.898    -4732610.296 7  -3687745.69322        24.500           2.469
  23168368.538      -67073.971 4                         7.000
  18970365.507   -27115407.610 7 -21128868.30422        27.750           2.344
 91  7  4  5  4 14.9950000  0  5G 3G21G17G11G23
  22233146.452     7778885.752 5   6061462.86321         9.250           0.250
  20414991.132   -17205594.611 6 -13160352.11821        19.250           1.344
  20122857.616    -4715907.703 7  -3674730.69622        24.250           2.313
  23155606.046     -134133.330 4        -0.03631         7.250           0.219
  18969714.929   -27118831.100 8 -21131535.94822        28.000           2.313
 91  7  4  5  4 29.9950000  0  5G 3G21G17G11G23
  22242195.304     7826442.045 5   6098519.67221         8.750           0.156
  20406281.858   -17251363.068 6 -13196015.81521        19.500           1.469
  20126049.452    -4699137.735 7  -3661663.19622        24.000           2.281
  23142852.015     -201173.825 5    -52239.29821         7.750           0.250
  18969081.499   -27122162.060 8 -21134131.50222        28.500           2.469
 91  7  4  5  4 44.9950000  0  5G 3G21G17G11G23
  22251254.179     7874056.390 5   6135621.73121         8.500           0.250
  20397585.843   -17297063.849 6 -13231626.76921        19.250           1.375
  20129249.999    -4682309.589 7  -3648550.36622        24.000           2.281
  23130099.007     -268204.234 5   -104470.74821         8.000           0.281
  18968463.929   -27125409.808 8 -21136662.20422        28.500           2.438
 91  7  4  5  4 59.9950000  0  5G 3G21G17G11G23
  22260331.851     7921729.874 5   6172769.86221         8.750           0.250
  20388902.515   -17342695.591 6 -13267183.93321        19.000           1.469
  20132464.429    -4665421.560 7  -3635390.86822        24.250           2.281
  23117346.398     -335222.750 5   -156692.89621         8.000           0.156
  18967860.640   -27128573.129 7 -21139127.12223        27.750           2.500
 91  7  4  5  5 14.9950000  0  5G 3G21G17G11G23
  22269415.062     7969463.475 5   6209964.83521         8.500           0.156
  20380232.007   -17388256.920 6 -13302686.23221        18.750           1.375
  20135688.101    -4648472.411 7  -3622183.74922        24.000           2.313
  23104594.398     -402227.678 5   -208904.47021         7.750           0.250
  18967274.538   -27131650.760 8 -21141525.27523        28.000           2.531
 91  7  4  5  5 29.9950000  0  5G 3G21G17G11G23
  22278506.405     8017255.792 5   6247205.55321         8.500           0.250
  20371576.069   -17433748.776 6 -13338134.39921        18.750           1.406
  20138926.226    -4631463.269 7  -3608929.87122        24.250           2.281
  23091844.546     -469219.916 4   -261106.15721         7.250           0.219
  18966706.507   -27134644.125 8 -21143857.75722        28.250           2.469
 91  7  4  5  5 44.9950000  0  5G 3G21G17G11G23
  22287611.374     8065104.121 5   6284489.94821         8.250           0.281
  20362931.983   -17479173.402 6 -13373530.17921        18.500           1.406
  20142176.241    -4614396.830 7  -3595631.36122        25.250           2.188
  23079095.757     -536201.335 4   -313299.40721         7.250           0.125
  18966152.358   -27137555.664 7 -21146126.48623        27.500           2.563
 91  7  4  5  5 59.9950000  0  5G 3G21G17G11G23
  22296726.882     8113018.962 5   6321826.16421         8.250           0.219
  20354302.390   -17524519.872 6 -13408865.06221        18.500           1.281
  20145436.405    -4597262.163 7  -3582279.68222        25.750           2.156
  23066352.218     -603160.758 4   -365475.53821         7.250           0.188
  18965615.530   -27140374.591 7 -21148323.04323        27.000           2.563
 91  7  4  5  6 14.9950000  0  5G 3G21G17G11G23
  22305857.148     8160997.511 5   6359212.02121         8.250           0.188
  20345687.640   -17569790.888 6 -13444141.13421        19.250           1.344
  20148708.812    -4580061.531 7  -3568876.59722        25.250           2.094
  23053616.577     -670100.544 4   -417636.36421         7.000           0.094
  18965095.882   -27143103.854 7 -21150449.73823        27.250           2.500
 91  7  4  5  6 29.9950000  0  5G 3G21G17G11G23
  22315005.866     8209038.901 5   6396646.84521         8.750           0.281
  20337090.335   -17614986.695 6 -13479358.61121        19.500           1.375
  20151993.952    -4562795.497 7  -3555422.55022        24.250           2.125
  23040879.101     -737020.811 4   -469781.95221         7.250           0.219
  18964593.468   -27145743.905 8 -21152506.91123        28.000           2.563
 91  7  4  5  6 44.9950000  0  5G 3G21G17G11G23
  22324161.991     8257140.866 5   6434128.86021         9.000           0.125
  20328502.687   -17660109.336 6 -13514519.07921        18.500           1.375
  20155292.757    -4545466.175 7  -3541919.19222        24.500           1.938
  23028152.132     -803923.170 5   -521913.61321         8.000           0.250
  18964108.233   -27148297.000 8 -21154496.32323        28.000           2.500
 91  7  4  5  6 59.9950000  0  5G 3G21G17G11G23
  22333317.773     8305297.131 5   6471653.17421         8.750           0.125
  20319926.023   -17705164.600 6 -13549627.05121        18.250           1.375
  20158601.858    -4528079.556 7  -3528371.18622        24.750           2.094
  23015426.788     -870813.302 5   -574035.73521         8.750           0.188
  18963637.038   -27150769.191 7 -21156422.70223        27.250           2.719
 91  7  4  5  7 14.9950000  0  5G 3G21G17G11G23
  22342491.530     8353512.918 5   6509223.89321         8.500           0.125
  20311364.952   -17750147.029 6 -13584678.26221        18.750           1.406
  20161919.233    -4510630.134 7  -3514774.23922        23.750           1.938
  23002699.194     -937685.313 5   -626143.76921         9.000           0.188
  18963183.898   -27153155.028 8 -21158281.79623        28.000           2.594
 91  7  4  5  7 29.9950000  0  5G 3G21G17G11G23
  22351680.773     8401787.295 5   6546840.24521         8.250           0.125
  20302822.015   -17795057.196 6 -13619673.17321        19.250           1.313
  20165251.351    -4493118.463 7  -3501128.78522        23.750           2.031
  22989974.530    -1004539.550 5   -678237.99921         9.250           0.094
  18962746.155   -27155455.294 7 -21160074.19623        27.500           2.625
 91  7  4  5  7 44.9950000  0  5G 3G21G17G11G23
  22360879.421     8450121.141 5   6584502.94621         8.250           0.094
  20294290.421   -17839893.737 6 -13654610.70421        19.500           1.375
  20168595.476    -4475543.272 7  -3487433.83522        23.250           2.063
  22977259.593    -1071374.477 5   -730317.11121         9.000           0.219
  18962324.499   -27157669.106 7 -21161799.24023        27.750           2.625
 91  7  4  5  7 59.9950000  0  5G 3G21G17G11G23
  22370086.077     8498509.354 5   6622208.02121         7.750           0.125
  20285771.694   -17884661.468 6 -13689494.62821        19.250           1.344
  20171953.562    -4457909.712 7  -3473693.41022        23.250           2.156
  22964544.585    -1138194.553 5   -782384.65721         8.750           0.156
  18961918.694   -27159801.286 8 -21163460.67523        28.000           2.750
 91  7  4  5  8 14.9950000  0  5G 3G21G17G11G23
  22379305.398     8546954.242 4   6659957.25821         7.250           0.188
  20277264.038   -17929357.791 6 -13724322.90121        19.500           1.344
  20175320.648    -4440214.976 7  -3459905.31022        23.500           2.156
  22951827.694    -1204996.863 5   -834438.34621         8.500           0.281
  18961526.562   -27161849.321 7 -21165056.54023        27.750           2.719
 91  7  4  5  8 29.9950000  0  5G 3G21G17G11G23
  22388533.694     8595456.411 4   6697751.10721         7.250           0.156
  20268773.687   -17973981.601 6 -13759094.67721        19.750           1.406
  20178697.983    -4422457.952 7  -3446068.68022        23.750           2.219
  22939125.304    -1271780.019 5   -886477.15321         8.250           0.188
  18961154.343   -27163812.556 7 -21166586.32123        27.750           2.719
 91  7  4  5  8 44.9950000  0  5G 3G21G17G11G23
  22397776.882     8644013.985 5   6735588.19121         8.000           0.156
  20260296.312   -18018534.584 6 -13793811.26221        19.750           1.406
  20182090.069    -4404640.470 7  -3432184.93122        24.500           2.125
  22926416.835    -1338545.316 5   -938502.03321         8.500           0.188
  18960797.210   -27165692.603 7 -21168051.29323        27.250           2.625
 91  7  4  5  8 59.9950000  0  5G 3G21G17G11G23
  22407029.085     8692629.320 5   6773470.20521         7.750           0.063
  20251830.718   -18063013.839 6 -13828470.39721        19.500           1.469
  20185490.843    -4386759.843 7  -3418251.98522        24.000           2.156
  22913716.523    -1405289.684 5   -990510.57221         8.500           0.344
  18960454.960   -27167486.939 7 -21169449.46323        27.250           2.688
 91  7  4  5  9 14.9950000  0  5G 3G21G17G11G23
  22416286.913     8741299.121 5   6811394.69621         7.500           0.125
  20243378.960   -18107422.348 6 -13863074.41022        19.000           1.500
  20188907.585    -4368819.059 7  -3404272.16422        24.250           2.313
  22901018.585    -1472015.857 5  -1042504.97821         8.500           0.313
  18960130.452   -27169198.723 7 -21170783.31723        27.750           2.719
 91  7  4  5  9 29.9950000  0  5G 3G21G17G11G23
  22425561.515     8790022.884 4   6849361.26821         7.250           0.219
  20234943.101   -18151760.137 6 -13897623.30622        19.000           1.594
  20192333.444    -4350818.252 7  -3390245.57322        24.000           2.219
  22888323.093    -1538723.625 5  -1094484.99021         8.750           0.313
  18959819.499   -27170828.287 7 -21172053.09923        27.750           2.688
 91  7  4  5  9 44.9950000  0  5G 3G21G17G11G23
  22434841.343     8838802.491 4   6887371.32421         7.250           0.094
  20226518.866   -18196025.009 6 -13932115.38722        18.250           1.563
  20195768.577    -4332755.467 7  -3376170.67722        24.250           2.156
  22875632.257    -1605410.513 5  -1146448.79721         8.500           0.281
  18959525.085   -27172373.689 7 -21173257.30123        27.750           2.719
 91  7  4  5  9 59.9950000  0  5G 3G21G17G11G23
  22444134.116     8887635.206 4   6925422.73721         7.250           0.219
  20218110.444   -18240219.204 6 -13966552.40922        18.250           1.625
  20199216.671    -4314632.799 7  -3362049.11822        24.500           2.344
  22862945.929    -1672078.399 5  -1198397.77321         8.250           0.188
  18959248.483   -27173837.336 8 -21174397.80323        28.000           2.813
 91  7  4  5 10 14.9950000  0  5G 3G21G17G11G23
  22453433.944     8936517.424 4   6963512.76521         6.750           0.219
  20209711.577   -18284346.076 6 -14000936.95822        18.750           1.750
  20202678.765    -4296453.740 7  -3347883.62822        25.000           2.250
  22850263.343    -1738730.339 5  -1250334.29721         8.500           0.313
  18958983.257   -27175222.698 7 -21175477.29323        27.750           2.625
 91  7  4  5 10 29.9940000  0  5G 3G21G17G11G23
  22462745.361     8985445.806 4   7001638.74921         7.000           0.250
  20201328.705   -18328402.389 6 -14035266.52322        19.250           1.750
  20206147.315    -4278219.356 7  -3333675.02322        24.750           2.188
  22837578.338    -1805361.297 5  -1302254.49421         8.000           0.438
  18958734.643   -27176529.555 7 -21176495.61423        27.750           2.656
 91  7  4  5 10 44.9940000  0  5G 3G21G17G11G23
  22472070.877     9034434.032 4   7039811.34521         7.250           0.281
  20192956.275   -18372386.581 6 -14069539.88922        18.750           1.781
  20209627.096    -4259919.628 7  -3319415.51022        24.250           2.125
  22824908.877    -1871972.343 5  -1354159.16321         8.250           0.406
  18958501.932   -27177750.886 8 -21177447.29423        28.000           2.594
 91  7  4  5 10 59.9940000  0  5G 3G21G17G11G23
  22481404.057     9083473.057 5   7078023.55021         7.500           0.156
  20184601.580   -18416300.966 6 -14103758.87122        18.750           1.844
  20213122.916    -4241561.197 7  -3305110.23722        24.000           2.125
  22812234.658    -1938564.193 5  -1406048.88321         8.750           0.375
  18958285.182   -27178892.368 8 -21178336.75523        28.500           2.625
 91  7  4  5 11 14.9940000  0  5G 3G21G17G11G23
  22490745.979     9132566.830 4   7116278.38021         7.250           0.156
  20176259.244   -18460141.325 6 -14137920.17022        19.000           1.875
  20216626.471    -4223139.845 7  -3290755.94522        23.250           2.000
  22799569.080    -2005132.183 5  -1457920.00521         9.000           0.313
  18958084.807   -27179949.775 8 -21179160.70323        28.500           2.688
 91  7  4  5 11 29.9940000  0  5G 3G21G17G11G23
  22500092.541     9181713.256 4   7154574.26221         7.000           0.125
  20167933.486   -18503909.500 6 -14172025.21422        19.750           1.969
  20220143.565    -4204657.587 7  -3276354.19622        23.500           1.969
  22786905.158    -2071677.999 5  -1509773.86121         9.000           0.344
  18957899.650   -27180925.117 8 -21179920.70423        28.500           2.594
 91  7  4  5 11 44.9940000  0  5G 3G21G17G11G23
  22509461.611     9230909.051 5   7192908.59621         7.750           0.250
  20159615.213   -18547608.301 6 -14206076.20222        19.500           1.813
  20223673.072    -4186117.363 7  -3261907.27322        23.750           2.000
  22774248.760    -2138204.121 5  -1561612.34721         9.500           0.406
  18957726.674   -27181821.316 8 -21180619.03523        28.250           2.688
 91  7  4  5 11 59.9940000  0  5G 3G21G17G11G23
  22518833.525     9280158.366 5   7231284.67221         7.500           0.094
  20151311.682   -18591233.227 6 -14240069.62022        19.000           1.969
  20227214.877    -4167514.530 7  -3247411.55822        24.250           1.906
  22761591.955    -2204705.718 5  -1613431.73321         9.500           0.313
  18957574.775   -27182634.260 8 -21181252.48423        28.500           2.656
 91  7  4  5 12 14.9940000  0  5G 3G21G17G11G23
  22528212.877     9329461.780 5   7269702.84621         8.000           0.219
  20143029.549   -18634783.256 7 -14274004.69022        20.250           1.938
  20230764.830    -4148848.104 7  -3232866.30022        23.250           1.906
  22748945.752    -2271181.553 5  -1665231.04621        10.000           0.250
  18957434.080   -27183363.014 8 -21181820.33623        28.750           2.656
 91  7  4  5 12 29.9940000  0  5G 3G21G17G11G23
  22537599.650     9378817.482 5   7308161.76621         7.750           0.250
  20134754.135   -18678259.940 7 -14307882.60122        20.000           1.969
  20234328.455    -4130119.933 7  -3218272.92322        22.750           1.875
  22736297.697    -2337632.811 5  -1717011.25421        10.000           0.281
  18957311.025   -27184009.456 8 -21182324.05523        28.500           2.719
 91  7  4  5 12 44.9940000  0  5G 3G21G17G11G23
  22547006.377     9428219.727 5   7346657.03521         8.000           0.188
  20126490.260   -18721668.568 6 -14341707.48622        19.250           1.969
  20237903.768    -4111335.140 7  -3203635.43222        23.000           1.938
  22723655.721    -2404064.402 5  -1768776.09121        10.250           0.250
  18957205.916   -27184578.820 8 -21182767.71623        29.000           2.656
 91  7  4  5 12 59.9940000  0  5G 3G21G17G11G23
  22556417.440     9477675.240 5   7385193.73721         8.250           0.125
  20118248.111   -18765001.958 7 -14375473.75022        20.000           1.906
  20241489.713    -4092486.778 7  -3188948.40422        22.750           2.000
  22711020.283    -2470468.887 5  -1820519.82221        10.250           0.281
  18957108.783   -27185064.213 8 -21183145.93423        28.500           2.656
 91  7  4  5 13 14.9940000  0  5G 3G21G17G11G23
  22565836.322     9527182.597 5   7423770.87021         7.750           0.094
  20110015.080   -18808261.312 7 -14409182.31022        20.250           1.969
  20245090.018    -4073575.931 7  -3174212.68622        23.750           1.969
  22698391.424    -2536847.212 5  -1872243.16621        10.500           0.219
  18957033.713   -27185467.249 8 -21183459.98223        28.500           2.656
 91  7  4  5 13 29.9940000  0  5G 3G21G17G11G23
  22575268.494     9576738.342 5   7462385.71521         8.000           0.125
  20101795.143   -18851449.621 7 -14442835.51822        20.000           1.938
  20248698.525    -4054605.813 7  -3159430.77722        23.000           1.969
  22685762.307    -2603202.208 5  -1923948.30921         9.750           0.281
  18956973.440   -27185791.058 8 -21183712.29723        29.000           2.625
 91  7  4  5 13 44.9940000  0  5G 3G21G17G11G23
  22584709.541     9626342.180 5   7501038.02021         7.750           0.188
  20093591.057   -18894566.846 7 -14476433.33422        20.500           1.938
  20252317.783    -4035576.557 7  -3144602.78722        22.750           1.969
  22673140.150    -2669533.558 5  -1975635.02721        10.000           0.250
  18956925.393   -27186035.741 8 -21183902.94923        28.500           2.625
 91  7  4  5 13 59.9940000  0  5G 3G21G17G11G23
  22594154.221     9675993.337 5   7539727.17821         8.000           0.219
  20085399.604   -18937613.472 7 -14509976.13822        20.250           2.156
  20255953.861    -4016488.494 7  -3129728.97922        23.250           2.031
  22660519.986    -2735841.178 5  -2027303.29321        10.750           0.344
  18956893.643   -27186201.793 8                        28.250
 91  7  4  5 14 14.9940000  0  5G 3G21G17G11G23
  22603615.486     9725694.013 5   7578454.96721         8.000           0.188
  20077224.065   -18980586.973 7 -14543461.96122        21.000           2.281
  20259598.018    -3997339.067 7  -3114807.34222        23.750           1.938
  22647910.338    -2802122.069 5  -2078950.72121        10.750           0.281
  18956879.479   -27186286.896 7                        27.750
 91  7  4  5 14 29.9940000  0  5G 3G21G17G11G23
  22613081.955     9775443.364 5   7617220.65921         7.750           0.219
  20069059.182   -19023487.845 7 -14576891.18622        20.750           2.219
  20263251.158    -3978129.015 7  -3099838.47722        23.000           2.000
  22635301.275    -2868376.694 5  -2130577.67521        10.750           0.281
  18956878.557   -27186291.930 8                        28.000
 91  7  4  5 14 44.9940000  0  5G 3G21G17G11G23
  22622557.502     9825239.977 5   7656023.16021         7.750           0.188
  20060907.354   -19066317.000 7 -14610264.52822        20.250           2.313
  20266919.557    -3958859.544 7  -3084823.30522        23.500           1.938
  22622697.197    -2934605.729 5  -2182184.68921        11.000           0.250
  18956891.783   -27186218.123 7                        27.500
 91  7  4  5 14 59.9940000  0  5G 3G21G17G11G23
  22632044.119     9875087.813 5   7694865.62021         7.750           0.219
  20052771.908   -19109070.120 7 -14643578.62922        20.250           2.344
  20270599.533    -3939526.058 7  -3069758.25522        23.750           1.969
  22610098.119    -3000804.538 5  -2233768.15521        10.750           0.281
  18956920.400   -27186061.255 7                        27.500
 91  7  4  5 15 14.9940000  0  4G21G17G11G23
  20044649.721   -19151750.653 7 -14676836.15322        20.500           2.438
  20274287.775    -3920132.108 7  -3054646.09022        23.250           1.938
  22597506.791    -3066976.045 5  -2285330.34121        10.750           0.313
  18956963.815   -27185824.810 7                        27.250
 91  7  4  5 15 29.9940000  0  4G21G17G11G23
  20036540.002   -19194360.600 7 -14710038.68122        20.750           2.375
  20277991.502    -3900679.915 7  -3039488.54022        22.750           1.906
  22584923.666    -3133122.111 5  -2336872.73521        10.500           0.219
  18957025.861   -27185511.097 7 -21183494.08423        27.000           2.688
 91  7  4  5 15 44.9940000  0  4G21G17G11G23
  20028446.182   -19236899.156 7 -14743185.58922        20.750           2.438
  20281704.260    -3881168.574 7  -3024284.90122        23.750           1.813
  22572338.752    -3199241.565 5  -2388394.35721        10.750           0.375
  18957099.854   -27185119.512 7 -21183188.94423        27.000           2.563
 91  7  4  5 15 59.9940000  0  4G21G17G11G23
  20020364.229   -19279361.008 7 -14776272.72822        20.250           2.375
  20285427.908    -3861593.092 7  -3009031.28222        23.750           1.844
  22559764.065    -3265328.865 5  -2439890.89021        10.500           0.344
  18957191.588   -27184644.994 7 -21182819.18423        27.750           2.531
 91  7  4  5 16 14.9940000  0  4G21G17G11G23
  20012300.854   -19321747.541 7 -14809301.17422        21.250           2.375
  20289166.424    -3841954.559 7  -2993728.54022        23.750           1.813
  22547194.643    -3331384.768 5  -2491362.98421        10.250           0.375
  18957294.346   -27184088.989 7 -21182385.92723        27.250           2.594
 91  7  4  5 16 29.9940000  0  4G21G17G11G23
  20004248.986   -19364059.922 7 -14842271.83423        21.500           2.531
  20292912.486    -3822254.633 7  -2978377.94422        23.500           1.688
  22534631.307    -3397410.463 5  -2542811.54821        10.750           0.344
  18957418.924   -27183453.058 7 -21181890.38623        26.500           2.563
 91  7  4  5 16 44.9940000  0  4G21G17G11G23
  19996213.330   -19406298.213 7 -14875184.77122        22.000           2.406
  20296675.580    -3802493.097 7  -2962979.34822        23.500           1.719
  22522071.260    -3463405.654 5  -2594236.36421        10.750           0.344
  18957551.861   -27182737.496 7 -21181332.80023        26.000           2.688
 91  7  4  5 16 59.9940000  0  4G21G17G11G23
  19988188.268   -19448463.123 7 -14908040.50722        21.500           2.313
  20300446.119    -3782670.836 7  -2947533.43622        23.500           1.750
  22509516.643    -3529370.729 5  -2645637.67121        11.250           0.344
  18957703.111   -27181943.083 7 -21180713.77123        26.250           2.656
 91  7  4  5 17 14.9940000  0  4G21G17G11G23
  19980177.400   -19490553.054 7 -14940837.83022        21.000           2.313
  20304228.854    -3762786.408 7  -2932039.07322        23.500           1.813
  22496969.299    -3595303.868 5  -2697014.11221        10.750           0.281
  18957872.033   -27181068.683 7 -21180032.41823        26.750           2.625
 91  7  4  5 17 29.9940000  0  4G21G17G11G23
  19972180.775   -19532572.510 7 -14973580.23822        21.000           2.375
  20308024.682    -3742844.377 7  -2916499.83222        22.750           1.750
  22484433.338    -3661209.149 5  -2748368.83321        11.500           0.469
  18958051.690   -27180118.690 7 -21179292.15223        26.250           2.688
 91  7  4  5 17 44.9940000  0  4G21G17G11G23
  19964196.900   -19574523.280 7 -15006269.11622        21.000           2.344
  20311830.994    -3722846.673 7  -2900917.21222        23.500           1.781
  22471894.072    -3727087.990 6  -2799702.95221        12.000           0.469
  18958244.619   -27179095.220 7 -21178494.63523        25.500           2.688
 91  7  4  5 17 59.9940000  0  4G21G17G11G23
  19956228.096   -19616403.970 7 -15038903.41522        22.000           2.156
  20315649.119    -3702791.575 7  -2885289.86322        23.250           1.875
  22459361.127    -3792938.733 5  -2851015.19021        11.250           0.438
  18958456.072   -27177997.023 7 -21177638.89123        25.750           2.750
 91  7  4  5 18 14.9940000  0  4G21G17G11G23
  19948275.760   -19658208.374 7 -15071478.24122        22.500           2.188
  20319477.416    -3682673.155 7  -2869613.17822        24.250           1.781
  22446834.861    -3858754.897 5  -2902300.46221        10.250           0.469
  18958679.174   -27176818.251 7 -21176720.35723        25.250           2.813
 91  7  4  5 18 29.9940000  0  4G21G17G11G23
  19940334.596   -19699937.936 7 -15103994.76222        22.500           2.219
  20323315.190    -3662493.168 7  -2853888.51422        23.750           1.688
  22434318.494    -3924537.745 5  -2953559.78221        11.500           0.469
  18958918.979   -27175560.439 7 -21175740.23223        24.750           2.781
 91  7  4  5 18 44.9940000  0  4G21G17G11G23
  19932404.947   -19741592.137 7 -15136452.55122        21.750           2.250
  20327166.447    -3642250.876 7  -2838115.30622        23.500           1.656
  22421807.182    -3990286.285 5  -3004792.39621        11.250           0.438
  18959174.799   -27174223.267 7 -21174698.27323        25.750           2.906
 91  7  4  5 18 59.9940000  0  4G21G17G11G23
  19924492.518   -19783172.863 7 -15168853.08522        22.000           2.250
  20331031.440    -3621948.310 7  -2822295.12522        23.500           1.719
  22409300.432    -4056001.962 5  -3055999.37721        11.500           0.406
  18959443.900   -27172808.818 7 -21173596.09723        25.500           2.875
 91  7  4  5 19 14.9940000  0  4G21G17G11G23
  19916596.229   -19824681.256 7 -15201197.26422        22.000           2.250
  20334907.916    -3601586.536 7  -2806428.81622        23.750           1.688
  22396802.018    -4121685.609 6  -3107181.41021        12.000           0.500
  18959726.432   -27171318.242 7 -21172434.59723        25.000           2.938
 91  7  4  5 19 29.9940000  0  4G21G17G11G23
  19908709.947   -19866119.324 7 -15233486.63322        22.250           2.250
  20338791.932    -3581167.704 7  -2790518.03822        23.750           1.656
  22384309.338    -4187338.892 6  -3158339.76421        12.750           0.469
  18960024.885   -27169753.806 7 -21171215.54823        25.250           2.906
 91  7  4  5 19 44.9940000  0  4G21G17G11G23
  19900839.065   -19907482.538 7 -15265717.67722        22.500           2.125
  20342684.775    -3560687.227 7  -2774559.22222        23.000           1.656
  22371824.846    -4252956.863 5  -3209470.61121        11.750           0.313
  18960337.861   -27168111.332 7 -21169935.69223        25.500           2.938
 91  7  4  5 19 59.9940000  0  4G21G17G11G23
  19892981.690   -19948768.141 7 -15297888.24422        22.250           2.250
  20346598.533    -3540142.362 7  -2758550.24422        23.000           1.750
  22359343.830    -4318536.686 6  -3260571.76721        12.000           0.438
  18960666.440   -27166388.243 7 -21168593.02023        26.000           2.969
 91  7  4  5 20 14.9940000  0  4G21G17G11G23
  19885139.502   -19989984.099 7 -15330004.54922        22.250           2.188
  20350519.166    -3519541.188 7  -2742497.38322        23.250           1.781
  22346868.760    -4384085.835 6  -3311649.00521        12.000           0.438
  18961007.221   -27164592.480 7 -21167193.71623        26.000           3.031
 91  7  4  5 20 29.9940000  0  4G21G17G11G23
  19877310.174   -20031127.482 7 -15362064.30422        22.500           2.031
  20354452.291    -3498881.180 7  -2726398.68522        23.750           1.844
  22334404.518    -4449601.240 6  -3362699.94121        12.000           0.344
  18961361.158   -27162721.506 7 -21165735.80523        25.500           3.031
 91  7  4  5 20 44.9940000  0  4G21G17G11G23
  19869496.065   -20072196.724 7 -15394066.27522        22.750           1.969
  20358393.119    -3478160.598 7  -2710252.77922        23.250           1.750
  22321941.197    -4515080.808 5  -3413722.94021        11.750           0.469
  18961733.752   -27160773.881 7 -21164218.17523        26.000           3.125
 91  7  4  5 20 59.9940000  0  4G21G17G11G23
  19861693.916   -20113192.306 7 -15426010.84422        22.250           2.063
  20362346.869    -3457379.724 7  -2694059.89322        23.750           1.750
  22309487.979    -4580524.690 5  -3464718.13821        11.500           0.438
  18962118.190   -27158750.222 7 -21162641.29023        25.250           3.125
 91  7  4  5 21 14.9940000  0  4G21G17G11G23
  19853904.572   -20154112.792 7 -15457896.90922        21.500           2.031
  20366313.338    -3436537.445 7  -2677819.16222        24.000           1.656
  22297038.393    -4645931.058 5  -3515684.08621        11.500           0.281
  18962517.299   -27156649.386 7 -21161004.27223        26.000           3.063
 91  7  4  5 21 29.9940000  0  4G21G17G11G23
  19846132.783   -20194961.011 7 -15489726.66022        21.250           2.031
  20370292.721    -3415636.697 7  -2661532.86922        24.500           1.625
  22284602.002    -4711302.560 5  -3566622.90021        11.750           0.281
  18962932.979   -27154474.375 7 -21159309.45223        26.500           3.031
 91  7  4  5 21 44.9940000  0  4G21G17G11G23
  19838375.002   -20235733.147 7 -15521497.13122        21.750           2.188
  20374279.346    -3394673.731 7  -2645198.09422        23.500           1.719
  22272171.408    -4776635.188 6  -3617531.39921        12.250           0.375
  18963359.635   -27152221.663 7 -21157554.08223        26.500           3.156
 91  7  4  5 21 59.9940000  0  4G21G17G11G23
  19830629.502   -20276435.098 7 -15553212.90522        21.500           2.094
  20378280.143    -3373654.509 7  -2628819.48122        23.750           1.719
  22259746.705    -4841934.341 6  -3668413.83921        12.750           0.344
  18963802.416   -27149897.124 7 -21155742.75223        26.250           3.125
 91  7  4  5 22 14.9940000  0  4G21G17G11G23
  19822897.885   -20317064.029 7 -15584871.77622        21.500           2.094
  20382290.510    -3352575.896 7  -2612394.59222        23.250           1.719
  22247327.557    -4907196.765 6  -3719267.64021        12.250           0.344
  18964259.143   -27147498.036 7 -21153873.32023        26.750           3.125
 91  7  4  5 22 29.9940000  0  4G21G17G11G23
  19815179.611   -20357617.804 7 -15616472.08522        21.250           2.094
  20386313.830    -3331436.147 7  -2595922.06922        24.000           1.688
  22234910.854    -4972420.063 6  -3770090.94421        12.500           0.344
  18964731.065   -27145022.797 7 -21151944.55623        26.750           3.219
 91  7  4  5 22 44.9940000  0  4G21G17G11G23
  19807477.033   -20398095.980 7 -15648013.48422        21.250           2.125
  20390349.330    -3310235.004 7  -2579401.70522        23.500           1.688
  22222508.963    -5037603.446 6  -3820883.15221        12.000           0.313
  18965215.682   -27142471.167 7 -21149956.27123        27.000           3.250
 91  7  4  5 22 59.9940000  0  4G21G17G11G23
  19799786.221   -20438501.294 7 -15679498.11722        21.000           2.031
  20394393.127    -3288975.049 7  -2562835.50922        23.000           1.688
  22210114.119    -5102749.270 6  -3871646.10221        12.250           0.281
  18965715.924   -27139845.854 7 -21147910.57323        27.250           3.250
 91  7  4  5 23 14.9940000  0  4G21G17G11G23
  19792110.924   -20478833.600 7 -15710925.85622        20.500           2.063
  20398448.088    -3267656.259 7  -2546223.47722        21.750           1.750
  22197722.807    -5167857.103 6  -3922379.47321        12.500           0.375
  18966229.619   -27137146.917 8 -21145807.49823        28.000           3.188
 91  7  4  5 23 29.9940000  0  4G21G17G11G23
  19784453.361   -20519095.068 7 -15742298.39522        21.500           1.875
  20402516.815    -3246280.650 7  -2529567.16822        21.750           1.688
  22185338.744    -5232928.637 6  -3973084.52521        12.500           0.406
  18966756.096   -27134376.703 7 -21143648.88023        27.750           3.313
 91  7  4  5 23 44.9940000  0  4G21G17G11G23
  19776805.635   -20559284.576 7 -15773614.86122        21.500           1.969
  20406597.182    -3224847.255 7  -2512865.81522        22.000           1.813
  22172963.354    -5297962.578 5  -4023760.28021        11.750           0.438
  18967298.502   -27131534.405 7 -21141434.09623        27.500           3.313
 91  7  4  5 23 59.9940000  0  4G21G17G11G23
  19769172.643   -20599397.693 7 -15804871.79722        21.500           1.969
  20410686.643    -3203351.848 7  -2496116.16222        23.000           1.844
  22160596.643    -5362954.168 6  -4074403.02221        12.250           0.438
  18967851.033   -27128615.757 7 -21139159.82423        27.250           3.344
 91  7  4  5 24 14.9940000  0  4G21G17G11G23
  19761553.682   -20639435.737 7 -15836070.24622        21.000           1.969
  20414790.549    -3181795.833 7  -2479319.28722        23.500           1.781
  22148237.080    -5427904.294 6  -4125013.48621        12.000           0.406
  18968421.830   -27125622.265 7 -21136827.23323        27.500           3.313
 91  7  4  5 24 29.9940000  0  4G21G17G11G23
  19753946.190   -20679401.449 7 -15867212.32122        20.250           1.938
  20418903.799    -3160181.910 7  -2462477.27922        23.750           1.719
  22135884.252    -5492815.426 5  -4175593.55621        11.500           0.375
  18969006.135   -27122556.688 8 -21134438.47223        28.000           3.344
 91  7  4  5 24 44.9940000  0  4G21G17G11G23
  19746356.877   -20719290.668 7 -15898294.80522        21.250           1.906
  20423028.893    -3138506.007 7  -2445586.97522        23.500           1.813
  22123539.611    -5557683.052 5  -4226139.70621        11.750           0.406
  18969602.846   -27119415.139 7 -21131990.50723        27.500           3.219
 91  7  4  5 24 59.9940000  0  4G21G17G11G23
  19738783.197   -20759102.330 7 -15929316.84622        21.750           1.875
  20427166.010    -3116767.032 7  -2428647.52022        22.750           1.750
  22111205.940    -5622505.632 6  -4276650.76821        12.500           0.375
  18970214.346   -27116196.811 7 -21129482.71723        27.500           3.250
 91  7  4  5 25 14.9940000  0  4G21G17G11G23
  19731219.041   -20798842.621 7 -15960283.28022        21.500           1.813
  20431312.002    -3094971.264 7  -2411663.81222        22.750           1.750
  22098877.494    -5687289.072 6  -4327131.35921        12.000           0.406
  18970840.815   -27112908.088 7 -21126920.07623        27.750           3.250
 91  7  4  5 25 29.9940000  0  4G21G17G11G23
  19723671.752   -20838505.132 7 -15991189.11322        21.500           1.906
  20435472.057    -3073112.466 7  -2394630.98622        23.250           1.656
  22086557.244    -5752026.698 6  -4377576.21721        12.000           0.375
  18971482.088   -27109542.812 8 -21124297.77323        28.000           3.125
 91  7  4  5 25 44.9940000  0  4G21G17G11G23
  19716136.830   -20878094.442 7 -16022037.89922        21.000           1.844
  20439642.283    -3051195.246 7  -2377552.63722        22.750           1.781
  22074247.025    -5816722.782 6  -4427988.73121        12.250           0.313
  18972135.369   -27106105.721 8 -21121619.50823        28.250           3.188
 91  7  4  5 25 59.9940000  0  4G21G17G11G23
  19708618.658   -20917608.256 7 -16052827.85822        21.000           1.813
  20443823.916    -3029217.272 7  -2360426.95522        22.500           1.719
  22061944.721    -5881374.541 6  -4478366.68721        12.250           0.313
  18972803.682   -27102594.654 8 -21118883.61223        28.250           3.219
 91  7  4  5 26 14.9940000  0  4G21G17G11G23
  19701111.924   -20957049.210 7 -16083561.04022        20.750           1.844
  20448018.783    -3007181.247 7  -2343256.03022        22.500           1.688
  22049646.721    -5945984.291 6  -4528711.89221        12.500           0.344
  18973485.205   -27099012.524 8 -21116092.33523        28.500           3.031
 91  7  4  5 26 29.9940000  0  4G21G17G11G23
  19693620.986   -20996415.057 7 -16114235.70022        21.000           1.719
  20452224.861    -2985085.142 7  -2326038.29922        22.750           1.625
  22037360.838    -6010549.591 6  -4579022.50621        12.500           0.406
  18974180.752   -27095357.161 7 -21113243.99423        27.750           3.000
 91  7  4  5 26 44.9940000  0  4G21G17G11G23
  19686144.104   -21035704.770 7 -16144851.03622        21.000           1.750
  20456438.932    -2962927.827 7  -2308772.87022        22.250           1.688
  22025084.791    -6075068.901 6  -4629297.26221        12.500           0.438
  18974891.768   -27091627.710 8 -21110337.92623        28.000           3.000
 91  7  4  5 26 59.9940000  0  4G21G17G11G23
  19678683.900   -21074919.709 7 -16175408.10422        20.750           1.781
  20460666.307    -2940710.829 7  -2291460.93422        21.500           1.719
  22012816.479    -6139543.265 6  -4679536.98421        12.750           0.375
  18975613.830   -27087825.709 8 -21107375.32123        28.000           3.000
 91  7  4  5 27 14.9940000  0  4G21G17G11G23
  19671234.518   -21114055.857 7 -16205903.77322        20.250           1.813
  20464906.674    -2918430.078 7  -2274099.31122        21.750           1.719
  22000554.127    -6203968.290 5  -4729738.28721        11.750           0.406
  18976352.580   -27083947.328 8 -21104353.20423        28.250           2.938
 91  7  4  5 27 29.9940000  0  4G21G17G11G23
  19663802.807   -21153114.237 7 -16236338.84922        20.750           1.813
  20469159.033    -2896086.660 7  -2256688.86822        22.500           1.719
  21988303.174    -6268344.652 6  -4779901.62121        12.500           0.375
  18977103.760   -27079993.810 7 -21101272.53923        27.500           2.906
 91  7  4  5 27 44.9940000  0  4G21G17G11G23
  19656384.361   -21192102.896 7 -16266719.59722        20.750           1.813
  20473419.494    -2873688.835 7  -2239236.02422        22.750           1.688
  21976061.408    -6332680.099 6  -4830033.10121        12.250           0.344
  18977870.783   -27075973.444 7 -21098139.77923        27.500           2.969
 91  7  4  5 27 59.9940000  0  4G21G17G11G23
  19648977.596   -21231020.103 7 -16297044.66222        20.000           1.781
  20477693.791    -2851234.667 7  -2221739.27722        23.500           1.719
  21963825.721    -6396972.370 6  -4880130.95321        12.250           0.313
  18978649.135   -27071884.536 8 -21094953.61023        28.000           2.938
 91  7  4  5 28 14.9940000  0  4G21G17G11G23
  19641587.596   -21269860.251 7 -16327309.69822        20.000           1.813
  20481975.830    -2828718.837 7  -2204194.48922        22.750           1.594
  21951602.229    -6461215.611 6  -4930190.61621        13.250           0.344
  18979440.666   -27067721.799 7 -21091709.91723        27.750           2.938
 91  7  4  5 28 29.9940000  0  4G21G17G11G23
  19634208.033   -21308626.665 6 -16357517.26822        19.500           1.813
  20486275.502    -2806144.655 7  -2186604.21822        23.500           1.594
  21939387.611    -6525412.716 6  -4980214.29121        13.000           0.375
  18980246.377   -27063488.675 7 -21088411.37323        27.750           2.875
 91  7  4  5 28 44.9940000  0  4G21G17G11G23
  19626846.518   -21347316.499 6 -16387665.14922        19.000           1.875
  20490581.463    -2783509.260 7  -2168966.25222        23.500           1.594
  21927180.666    -6589560.575 6  -5030199.60321        13.250           0.344
  18981067.111   -27059182.460 8 -21085055.87623        28.000           2.813
 91  7  4  5 28 59.9940000  0  4G21G17G11G23
  19619496.619   -21385933.111 6 -16417755.98922        19.250           1.875
  20494899.572    -2760816.078 7  -2151283.26022        22.750           1.813
  21914982.768    -6653662.141 6  -5080148.86721        14.000           0.500
  18981898.166   -27054806.874 7 -21081646.32423        27.500           2.688
 91  7  4  5 29 14.9940000  0  4G21G17G11G23
  19612162.205   -21424474.789 6 -16447788.44122        19.500           1.906
  20499229.596    -2738063.559 7  -2133554.04022        22.250           1.719
  21902794.135    -6717715.396 6  -5130060.46021        13.750           0.406
  18982743.252   -27050360.206 7 -21078181.38423        27.000           2.688
 91  7  4  5 29 29.9940000  0  4G21G17G11G23
  19604843.244   -21462941.684 6 -16477762.62422        19.500           1.938
  20503570.408    -2715251.778 7  -2115778.62722        22.750           1.719
  21890615.197    -6781720.149 6  -5179934.23821        13.500           0.375
  18983602.486   -27045842.991 7 -21074661.47523        26.500           2.719
 91  7  4  5 29 44.9940000  0  4G21G17G11G23
  19597537.908   -21501332.566 7 -16507677.56822        20.000           1.938
  20507924.799    -2692379.571 7  -2097956.13822        23.000           1.656
  21878443.768    -6845674.822 6  -5229769.03521        13.750           0.469
  18984476.713   -27041254.012 7 -21071085.64223        26.250           2.563
 91  7  4  5 29 59.9940000  0  4G21G17G11G23
  19590247.291   -21539645.888 6 -16537532.07922        19.750           1.938
  20512284.908    -2669445.495 7  -2080085.44422        22.250           1.813
  21866282.065    -6909577.517 6  -5279563.31321        13.250           0.438
  18985363.838   -27036591.858 7 -21067452.78623        27.000           2.563
 91  7  4  5 30 14.9940000  0  4G21G17G11G23
  19582969.354   -21577886.036 7 -16567329.57422        20.000           1.906
  20516660.807    -2646454.217 7  -2062170.17022        22.000           1.719
  21854129.955    -6973432.148 6  -5329320.15721        13.500           0.344
  18986263.869   -27031861.203 7 -21063766.55123        26.500           2.656
 91  7  4  5 30 29.9940000  0  4G21G17G11G23
  19575707.111   -21616052.172 7 -16597069.39322        20.500           2.000
  20521049.799    -2623404.598 7  -2044209.43722        22.500           1.781
  21841990.900    -7037237.366 6  -5379038.49921        14.000           0.469
  18987177.916   -27027061.291 7 -21060026.35123        25.750           2.563
 91  7  4  5 30 44.9940000  0  4G21G17G11G23
  19568458.783   -21654146.244 7 -16626753.06522        21.000           2.000
  20525447.025    -2600298.872 7  -2026204.99222        22.250           1.813
  21829859.658    -7100995.012 6  -5428719.73121        14.000           0.500
  18988103.791   -27022194.301 7 -21056233.88623        26.250           2.625
 91  7  4  5 30 59.9940000  0  4G21G17G11G23
  19561222.885   -21692162.448 7 -16656376.05622        20.500           2.156
  20529855.400    -2577131.302 7  -2008152.34322        22.250           1.750
  21817734.924    -7164698.990 6  -5478359.18921        14.250           0.469
  18989043.502   -27017254.783 7 -21052384.89923        26.250           2.688
 91  7  4  5 31 14.9940000  0  4G21G17G11G23
  19554004.854   -21730103.042 7 -16685940.13722        20.500           2.125
  20534274.033    -2553904.012 7  -1990053.16522        22.500           1.813
  21805625.205    -7228350.960 6  -5527958.13021        14.000           0.469
  18989996.432   -27012245.091 7 -21048481.23223        26.250           2.719
 91  7  4  5 31 29.9940000  0  4G21G17G11G23
  19546800.760   -21767968.227 7 -16715445.45922        21.250           2.063
  20538704.400    -2530617.301 7  -1971907.67822        22.750           1.813
  21793521.369    -7291950.721 6  -5577516.34621        14.250           0.469
  18990963.572   -27007165.401 7 -21044523.02123        26.000           2.813
 91  7  4  5 31 44.9940000  0  4G21G17G11G23
  19539607.908   -21805758.718 7 -16744892.57522        21.000           2.125
  20543147.072    -2507272.144 7  -1953716.65222        22.500           1.781
  21781430.315    -7355498.788 6  -5627034.29721        14.250           0.375
  18991943.768   -27002016.776 7 -21040511.09423        26.000           2.781
 91  7  4  5 31 59.9940000  0  4G21G17G11G23
  19532429.557   -21843473.912 7 -16774281.01522        20.250           2.063
  20547601.908    -2483867.772 7  -1935479.49222        22.500           1.750
  21769346.354    -7418994.038 6  -5676511.09121        14.250           0.406
  18992935.736   -26996798.883 7 -21036445.19223        26.250           2.844
 91  7  4  5 32 14.9940000  0  4G21G17G11G23
  19525268.283   -21881112.454 7 -16803609.73422        20.000           2.156
  20552066.588    -2460403.076 7  -1917195.32422        22.250           1.844
  21757275.486    -7482434.876 6  -5725945.48621        14.250           0.500
  18993943.088   -26991510.405 7 -21032324.29223        27.000           2.688
